[[[{"header":{"parameterUnit":"kt","parameterCategory":2,"dx":1,"dy":1,"la1":29.587661999999998,"la2":31.0,"lo1":-88.76705300000003,"lo2":-86.6583820000003,"nx":115,"ny":88,"refTime":"2022-10-03T12:00:00:Z","depth":0,"parameterNumber":1,"parameterNumberName":"U-component_of_WINDS"},"data":[2.0839,2.0839,2.0839,2.0839,2.0879,2.0959,2.1071,2.1163,2.1795,2.1894,2.2078,2.2282,2.231,2.2209,2.2369,2.2693,2.3244,2.2859,2.258,2.258,2.258,2.258,2.2726,2.3278,2.3406,2.3558,2.3671,2.3745,2.3487,2.3903,2.4527,2.576,2.5583,2.5831,2.5831,2.6843,2.7353,2.5711,2.5583,2.5958,2.5455,2.4823,2.4823,2.4823,2.4823,2.4823,2.4823,2.4823,2.4823,2.4823,2.4823,2.4823,2.4823,2.4823,2.4823,2.4823,2.4823,2.4823,2.4823,2.5327,2.5831,2.7471,2.7971,2.9349,3.136,3.2493,3.2472,3.3351,3.4352,3.6731,3.7508,3.7631,3.904,3.8602,3.8736,3.8534,3.9145,3.9382,3.9253,3.9215,3.9137,3.9033,3.8929,3.8799,3.8799,3.8851,3.8916,3.915,3.9189,3.9267,3.9371,3.9189,3.9007,3.8721,3.8449,3.8384,3.8436,3.8591,3.8565,3.8202,3.789,3.7782,3.7756,3.7756,3.7756,3.7756,3.7756,3.7756,3.7756,3.7756,3.7756,3.7756,3.7756,3.8081,3.8531,2.0839,2.0839,2.0839,2.0839,2.0853,2.0892,2.0905,2.1004,2.1499,2.1598,2.142,2.1696,2.1782,2.1855,2.2066,2.2336,2.2514,2.2553,2.258,2.258,2.258,2.258,2.2859,2.3145,2.3105,2.3128,2.3241,2.3046,2.2925,2.3332,2.4381,2.6383,2.7064,2.7454,2.8461,2.9349,2.8733,2.6205,2.5831,2.6333,2.5703,2.4823,2.4823,2.4823,2.4823,2.4823,2.4823,2.4823,2.4823,2.4823,2.4823,2.4823,2.4823,2.4823,2.4823,2.4823,2.4823,2.4823,2.4823,2.4823,2.5199,2.5455,2.5327,2.6716,2.9231,2.9972,2.9311,2.9555,2.9924,3.095,3.1389,3.2182,3.4374,3.5534,3.6168,3.6417,3.7851,3.8913,3.8838,3.8604,3.8488,3.8332,3.815,3.803,3.8017,3.8082,3.8124,3.8384,3.863,3.876,3.8825,3.8682,3.8488,3.8189,3.7991,3.7978,3.7929,3.8085,3.8189,3.7903,3.7682,3.7769,3.7756,3.7756,3.7756,3.7756,3.7756,3.7756,3.7756,3.7756,3.7756,3.7756,3.7756,3.7756,3.7756,2.0839,2.0839,2.0839,2.0839,2.0839,2.0839,2.0839,2.0919,2.1281,2.1301,2.111,2.1459,2.1604,2.1518,2.1954,2.2257,2.2329,2.2494,2.2527,2.256,2.258,2.2534,2.2586,2.2866,2.2706,2.2713,2.2824,2.2946,2.2769,2.2979,2.3066,2.4341,2.4664,2.492,2.5183,2.607,2.5822,2.4431,2.5191,2.5199,2.4567,2.4311,2.4439,2.4823,2.4823,2.4823,2.4823,2.4823,2.4823,2.4823,2.4823,2.4823,2.4823,2.4823,2.4823,2.4823,2.4823,2.4823,2.4823,2.4823,2.4951,2.5079,2.4951,2.492,2.7437,2.854,2.7895,2.8214,2.8454,2.9135,2.9588,2.9697,3.1656,3.2695,3.3167,3.3611,3.4598,3.6349,3.7334,3.7527,3.8059,3.7929,3.7978,3.7756,3.7782,3.7874,3.8137,3.8501,3.8345,3.8345,3.8306,3.8215,3.802,3.7848,3.7756,3.7756,3.7756,3.7756,3.7861,3.7769,3.7782,3.7769,3.7756,3.7756,3.7756,3.7756,3.7756,3.7756,3.7756,3.7756,3.7756,3.7756,3.7756,3.7756,3.7756,2.0839,2.0839,2.0839,2.0839,2.0839,2.0839,2.0839,2.0859,2.1083,2.092,2.0945,2.1255,2.1393,2.1373,2.1809,2.2085,2.2171,2.2343,2.2408,2.2336,2.2191,2.2118,2.2316,2.2408,2.2441,2.2514,2.2494,2.2539,2.2408,2.2125,2.2207,2.2535,2.2892,2.3013,2.3148,2.3534,2.4039,2.379,2.4047,2.3662,2.3798,2.4054,2.4183,2.4695,2.4823,2.4823,2.4823,2.4823,2.4823,2.4815,2.4823,2.4815,2.4815,2.4823,2.4823,2.4823,2.4823,2.4823,2.4823,2.4823,2.4823,2.4823,2.4815,2.4912,2.5246,2.6566,2.7297,2.7582,2.8045,2.8829,2.9336,2.9268,2.9629,2.9836,3.0063,3.0335,3.0715,3.3005,3.5301,3.6412,3.757,3.7782,3.7795,3.7756,3.7756,3.7838,3.8176,3.8152,3.7958,3.8137,3.8163,3.7841,3.7582,3.7756,3.7756,3.7756,3.7756,3.7756,3.7756,3.7756,3.7756,3.7756,3.7756,3.7756,3.7756,3.7756,3.7756,3.7756,3.7756,3.7756,3.7756,3.7756,3.7756,3.7756,3.7756,2.0839,2.0839,2.0839,2.0839,2.0839,2.0839,2.0839,2.0846,2.0879,2.0866,2.0853,2.0912,2.1083,2.1136,2.1571,2.1848,2.1993,2.2105,2.2079,2.1782,2.1743,2.171,2.1815,2.1802,2.1993,2.2375,2.2408,2.2123,2.1731,2.1491,2.1191,2.0975,2.1606,2.187,2.1999,2.2385,2.2563,2.2633,2.247,2.2484,2.3294,2.3881,2.4183,2.4641,2.4625,2.476,2.4768,2.4792,2.4823,2.4815,2.48,2.4753,2.4729,2.4721,2.4865,2.4857,2.4666,2.4658,2.4651,2.4643,2.469,2.4729,2.48,2.4683,2.4391,2.4939,2.511,2.5404,2.5544,2.6189,2.6323,2.6371,2.6639,2.7029,2.7251,2.7624,2.8553,3.0494,3.2674,3.3941,3.4977,3.5796,3.5796,3.5455,3.5342,3.6966,3.7472,3.7637,3.7764,3.8111,3.7893,3.732,3.7557,3.7756,3.7756,3.7756,3.7756,3.7756,3.7756,3.7756,3.7756,3.7756,3.7756,3.7756,3.7756,3.7756,3.7756,3.7756,3.7756,3.7756,3.7756,3.7756,3.7756,3.7756,3.7756,2.0839,2.0839,2.0839,2.0839,2.0839,2.0839,2.0839,2.0839,2.0839,2.0839,2.0839,2.0839,2.0899,2.0933,2.1327,2.1532,2.1677,2.1789,2.1782,2.1617,2.1644,2.1472,2.142,2.1479,2.1525,2.1446,2.1466,2.1525,2.1195,2.0899,2.082,2.0806,2.0968,2.1226,2.1321,2.1524,2.1535,2.1342,2.1351,2.17,2.2054,2.243,2.2702,2.2923,2.3048,2.3298,2.3548,2.3672,2.393,2.4195,2.4336,2.4336,2.4344,2.4344,2.4344,2.4375,2.4383,2.4399,2.4407,2.4383,2.4344,2.432,2.4296,2.413,2.3878,2.3704,2.3554,2.3428,2.3349,2.3278,2.3175,2.3191,2.3803,2.4408,2.4742,2.4967,2.6571,2.8292,2.9908,3.1288,3.2445,3.3371,3.3485,3.3154,3.3508,3.4923,3.5756,3.6236,3.6942,3.7297,3.7005,3.6878,3.7318,3.7756,3.7756,3.7756,3.7756,3.7756,3.7756,3.7756,3.7756,3.7756,3.7756,3.7756,3.7756,3.7756,3.7756,3.7756,3.7756,3.7756,3.7756,3.7756,3.7756,3.7756,3.7756,2.0839,2.0839,2.0839,2.0839,2.0839,2.0839,2.0839,2.0839,2.0839,2.0839,2.0839,2.0839,2.0846,2.0866,2.1012,2.1136,2.1373,2.1453,2.1479,2.1399,2.1037,2.1017,2.0945,2.0853,2.0905,2.0879,2.0892,2.0905,2.0741,2.0714,2.0681,2.0615,2.051,2.053,2.067,2.0582,2.0451,2.0376,2.0564,2.093,2.1287,2.1549,2.1913,2.216,2.2291,2.2415,2.2655,2.2771,2.3134,2.348,2.358,2.381,2.3795,2.3917,2.3917,2.3917,2.3909,2.3909,2.3917,2.3925,2.3965,2.4004,2.3744,2.3507,2.3349,2.3238,2.3175,2.3104,2.3041,2.3065,2.301,2.2978,2.3284,2.3587,2.3705,2.3805,2.4132,2.5864,2.7481,2.8975,3.0599,3.1414,3.1414,3.1069,3.1205,3.2661,3.3967,3.5122,3.5855,3.6021,3.6035,3.6501,3.6953,3.7644,3.7756,3.7644,3.7644,3.7756,3.7756,3.7756,3.7756,3.7756,3.7756,3.7756,3.7756,3.7756,3.7756,3.7756,3.7756,3.7756,3.7756,3.7756,3.7756,3.7756,3.7644,2.0833,2.0839,2.0839,2.0839,2.0839,2.0839,2.0839,2.0839,2.0839,2.0839,2.0839,2.0839,2.0839,2.0899,2.1136,2.111,2.1136,2.1136,2.1011,2.0642,2.051,2.0246,2.016,2.0134,2.0286,2.0602,2.0648,2.0365,2.0404,2.0338,2.0239,2.0134,2.016,2.0075,2.0022,2.0002,1.9943,1.9973,2.0049,2.0403,2.0512,2.0839,2.1165,2.128,2.1409,2.1532,2.1783,2.192,2.2194,2.2584,2.2859,2.3249,2.3641,2.3909,2.3909,2.3894,2.3846,2.3815,2.3791,2.3759,2.3775,2.3528,2.319,2.3049,2.2829,2.2632,2.2616,2.2562,2.2531,2.2648,2.2766,2.2766,2.2648,2.2648,2.2648,2.2641,2.2617,2.3547,2.5165,2.6204,2.7945,2.8523,2.8408,2.8985,2.888,3.0191,3.1364,3.2294,3.1709,3.233,3.418,3.4761,3.5443,3.6714,3.7644,3.7531,3.7531,3.7756,3.7756,3.7756,3.7756,3.7756,3.7756,3.7756,3.7756,3.7756,3.7756,3.7756,3.7756,3.7756,3.7756,3.7704,3.7345,3.7423,3.7293,2.0549,2.0569,2.076,2.0839,2.0839,2.0839,2.0839,2.0839,2.0839,2.0839,2.0839,2.0839,2.0839,2.0866,2.0815,2.0868,2.0861,2.0855,2.0714,2.0444,2.0272,1.9989,1.9771,1.9725,1.9791,1.962,1.9679,1.9818,1.9857,1.9844,1.987,1.9916,2.0106,1.9752,1.9514,1.9448,1.9448,1.9589,1.9716,1.9943,1.9936,2.0156,2.0269,2.0276,2.0269,2.0382,2.0608,2.0834,2.0946,2.141,2.1649,2.1776,2.2007,2.2253,2.2619,2.2873,2.3,2.3262,2.3174,2.3174,2.2966,2.2703,2.1976,2.17,2.1693,2.181,2.181,2.1693,2.1575,2.1575,2.1693,2.1567,2.1567,2.1575,2.1575,2.1575,2.1678,2.214,2.3422,2.2953,2.3881,2.424,2.4474,2.5399,2.6562,2.7713,2.8639,2.75,2.6706,2.9111,3.1299,3.1414,3.1861,3.4169,3.567,3.6488,3.7066,3.7644,3.7756,3.7756,3.7756,3.7756,3.7756,3.7756,3.7756,3.7756,3.7756,3.7756,3.7756,3.7756,3.7691,3.7345,3.7111,3.6955,3.68,2.045,2.0563,2.0754,2.0839,2.0839,2.0839,2.0839,2.0839,2.0839,2.0839,2.0839,2.0839,2.0839,2.0839,2.0853,2.0793,2.0714,2.0681,2.0424,2.0134,2.0042,1.9778,1.9407,1.9369,1.931,1.9145,1.8987,1.9171,1.9276,1.9295,1.9547,1.9626,1.9567,1.9448,1.9198,1.9086,1.9086,1.9092,1.9329,1.9558,1.9217,1.9467,1.9473,1.9125,1.9257,1.9382,1.9751,1.9764,2.012,2.0704,2.0704,2.0933,2.1273,2.1391,2.1723,2.1825,2.1943,2.2288,2.2288,2.2288,2.2045,2.17,2.1325,2.1097,2.0979,2.0979,2.0979,2.1097,2.1215,2.1097,2.0972,2.0972,2.0972,2.0854,2.0854,2.0854,2.0972,2.1442,2.1678,2.1325,2.156,2.2492,2.2977,2.4382,2.4733,2.5425,2.5775,2.4625,2.5425,2.7732,2.888,2.8764,2.9678,3.209,3.3929,3.4977,3.5783,3.7066,3.7644,3.7644,3.7644,3.7756,3.7756,3.7756,3.7756,3.7756,3.7756,3.7756,3.7756,3.7626,3.7306,3.7085,3.6696,3.6423,3.6228,2.0536,2.0813,2.0806,2.0813,2.08,2.0826,2.0839,2.0839,2.0839,2.0839,2.0839,2.0839,2.0839,2.0826,2.0767,2.0655,2.0497,2.0398,2.0134,1.9765,1.9699,1.9308,1.9105,1.9033,1.9152,1.9099,1.9092,1.9099,1.9132,1.9046,1.9145,1.9191,1.9257,1.9165,1.9106,1.9086,1.9086,1.9086,1.9086,1.9086,1.9086,1.9086,1.9204,1.9086,1.9086,1.9086,1.921,1.921,1.9558,1.9912,2.003,2.0147,2.0619,2.0854,2.0972,2.0972,2.109,2.109,2.1082,2.0972,2.109,2.0965,2.0729,2.0619,2.0736,2.0854,2.0736,2.0508,2.0619,2.0736,2.0854,2.0854,2.0736,2.0619,2.0619,2.0619,2.0619,2.0854,2.109,2.0972,2.1442,2.2148,2.2523,2.2883,2.3001,2.3118,2.3009,2.3931,2.5425,2.6688,2.7045,2.7384,2.8533,3.0369,3.1506,3.3005,3.4749,3.6601,3.7418,3.7305,3.7418,3.7644,3.7756,3.7756,3.7756,3.7756,3.7756,3.7743,3.76,3.7332,3.7085,3.6709,3.6228,3.5852,3.5579,2.016,2.0253,2.045,2.053,2.0556,2.0747,2.0839,2.0839,2.0839,2.0839,2.0839,2.0839,2.0839,2.0767,2.0642,2.0457,2.0332,2.0154,1.9864,1.9653,1.9361,1.923,1.9178,1.9086,1.9086,1.9086,1.9086,1.9086,1.9086,1.9086,1.9086,1.9086,1.9086,1.9086,1.9086,1.9086,1.9086,1.9086,1.9086,1.9086,1.9086,1.9086,1.9086,1.9086,1.9086,1.9086,1.9086,1.9086,1.9204,1.9322,1.9447,1.9447,1.9676,2.003,2.0265,2.0501,2.0736,2.0979,2.0854,2.0619,2.0265,2.0265,2.003,1.9794,1.9676,1.9683,1.9794,1.9794,1.9676,1.9558,1.9565,1.9794,1.9794,1.9912,1.9912,2.003,2.003,2.0383,2.0501,2.0619,2.1207,2.1795,2.2155,2.228,2.2515,2.2758,2.2766,2.3454,2.4608,2.4967,2.5317,2.6115,2.7152,2.7954,2.8975,3.0714,3.2445,3.4294,3.6022,3.6249,3.6953,3.7531,3.7756,3.7405,3.7405,3.7644,3.7717,3.7639,3.7358,3.7124,3.6748,3.6358,3.5878,3.5371,3.5047,1.9009,1.9859,1.903,1.8674,1.9002,2.02,2.0734,2.0826,2.0839,2.0839,2.0839,2.0826,2.078,2.0648,2.045,2.0292,2.0048,1.987,1.9633,1.9328,1.9243,1.9257,1.9178,1.9086,1.9086,1.9086,1.9086,1.9086,1.9086,1.9086,1.9086,1.9086,1.9086,1.8968,1.8968,1.9086,1.9086,1.9086,1.9086,1.9086,1.9086,1.9086,1.9086,1.9086,1.9086,1.9086,1.9086,1.9086,1.9086,1.9086,1.9086,1.9092,1.9204,1.9447,1.9683,1.9683,1.9912,2.0147,2.003,1.9794,1.9676,1.9558,1.9322,1.9086,1.9204,1.9092,1.9086,1.9086,1.9086,1.9204,1.9092,1.9086,1.9086,1.9086,1.9086,1.9204,1.944,2.003,2.0265,2.0383,2.0854,2.156,2.1678,2.1678,2.2155,2.2515,2.2523,2.2758,2.311,2.3587,2.3814,2.4391,2.485,2.5533,2.7365,2.8754,3.0138,3.2205,3.4282,3.4851,3.5431,3.6362,3.7066,3.6827,3.6714,3.7266,3.7665,3.7449,3.7072,3.654,3.6189,3.5917,3.5462,3.4943,3.467,1.7106,1.9151,1.6578,1.5755,1.6374,1.8821,1.9894,2.0111,2.0266,2.0407,2.0697,2.082,2.0681,2.0457,2.0332,2.0055,1.9446,1.9394,1.9236,1.9073,1.9092,1.9112,1.9106,1.9086,1.9086,1.9086,1.9086,1.9086,1.9086,1.9086,1.885,1.8731,1.8134,1.8377,1.8134,1.7773,1.8252,1.8252,1.8252,1.8371,1.7773,1.8252,1.8371,1.8495,1.885,1.9086,1.9086,1.9086,1.9086,1.9086,1.9086,1.9086,1.9086,1.921,1.921,1.921,1.9322,1.9322,1.9322,1.921,1.9092,1.9092,1.9086,1.9086,1.9086,1.9086,1.9086,1.9086,1.9086,1.9086,1.9086,1.9086,1.9086,1.9086,1.9086,1.9086,1.9322,1.9794,2.0147,2.0147,2.0619,2.1207,2.1442,2.1442,2.1795,2.1803,2.1928,2.2045,2.2406,2.2883,2.2883,2.2883,2.3118,2.4023,2.5855,2.6911,2.7954,2.9793,3.1173,3.2205,3.3587,3.509,3.6022,3.6022,3.6488,3.7128,3.7514,3.6341,3.5624,3.5537,3.5579,3.5345,3.4956,3.4631,3.4384,1.3128,1.3538,1.3025,1.2874,1.3097,1.3876,1.5561,1.7413,1.7563,1.8827,2.0266,2.0562,2.0412,2.0411,2.016,1.9877,1.9394,1.9177,1.904,1.9112,1.9086,1.9086,1.9086,1.9086,1.9086,1.9086,1.9086,1.8731,1.885,1.8613,1.7537,1.6342,1.6223,1.5394,1.4554,1.5152,1.6229,1.6229,1.6223,1.5389,1.444,1.5394,1.6111,1.6827,1.7898,1.9086,1.9086,1.885,1.885,1.885,1.8731,1.885,1.9086,1.9086,1.9086,1.8968,1.8252,1.8371,1.8371,1.8371,1.8968,1.9086,1.9086,1.8252,1.8613,1.9086,1.8968,1.8731,1.8731,1.885,1.9086,1.9086,1.9086,1.9086,1.9086,1.9086,1.9204,1.9558,1.9912,2.003,2.0383,2.0979,2.0972,2.1082,2.1207,2.1207,2.1325,2.156,2.2038,2.2523,2.2641,2.2648,2.2742,2.3054,2.3982,2.4349,2.564,2.692,2.7723,2.887,3.1058,3.2674,3.3768,3.5293,3.6488,3.6586,3.6014,3.4828,3.3876,3.4554,3.5124,3.4826,3.4553,3.4384,3.4099,0.8322,0.8259,0.9532,1.0082,1.0398,1.1588,1.3099,1.4516,1.4752,1.5759,1.6907,1.7128,1.7827,1.8701,1.9579,1.9505,1.9363,1.9178,1.9086,1.9086,1.9086,1.9086,1.885,1.8968,1.9086,1.9086,1.8968,1.8134,1.5986,1.5507,1.527,1.3723,1.3486,1.2654,1.2412,1.3125,1.3486,1.3604,1.3604,1.2892,1.2293,1.2773,1.3609,1.3723,1.4915,1.5389,1.5513,1.575,1.6229,1.7419,1.7419,1.7773,1.8731,1.8968,1.8968,1.8731,1.7182,1.5986,1.5868,1.5626,1.5507,1.5631,1.5626,1.5986,1.575,1.5631,1.5868,1.73,1.7419,1.8016,1.8731,1.8968,1.9086,1.9086,1.9086,1.9086,1.9086,1.9565,1.9683,1.9919,2.0154,2.0037,2.003,2.0147,2.0147,2.039,2.0736,2.0972,2.145,2.1928,2.2045,2.2148,2.2203,2.218,2.2313,2.2508,2.3998,2.5632,2.6437,2.6905,2.879,2.971,3.0408,3.1652,3.2888,3.3687,3.4312,3.3487,3.2837,3.3603,3.4579,3.4293,3.4031,3.3787,3.3378,0.3962,0.4081,0.6349,0.7354,0.7924,0.9755,1.1067,1.1724,1.1857,1.208,1.3128,1.2738,1.4134,1.5707,1.7554,1.8062,1.7978,1.7413,1.7182,1.7182,1.73,1.73,1.7779,1.8134,1.7294,1.7058,1.7419,1.5394,1.3248,1.2293,1.158,1.1104,1.0985,1.0628,0.9798,1.0509,1.0985,1.0985,1.0985,1.0985,1.0866,1.087,1.0989,1.1104,1.1699,1.2174,1.2412,1.2535,1.3011,1.4677,1.4915,1.5981,1.7655,1.814,1.814,1.6827,1.4559,1.1461,1.1937,1.2293,1.2412,1.2531,1.2174,1.158,1.2293,1.2412,1.3129,1.4796,1.4915,1.5626,1.6821,1.8016,1.8489,1.8371,1.8613,1.9086,1.9086,1.9329,1.9322,1.944,1.9683,1.9447,1.9329,1.9329,1.921,1.9676,2.003,2.0383,2.0736,2.0972,2.1097,2.1302,2.1329,2.1498,2.1637,2.1532,2.2963,2.5023,2.5142,2.51,2.6402,2.7215,2.7597,2.7779,2.7939,2.8729,2.961,3.0593,3.1581,3.1748,3.1543,3.2023,3.2845,3.2965,3.2526,0.3962,0.3962,0.4439,0.4686,0.4821,0.5301,0.6919,0.8713,0.9006,1.0071,1.204,1.2205,1.2335,1.2992,1.3289,1.3436,1.302,1.3234,1.3358,1.3481,1.3486,1.3248,1.3129,1.3006,1.3481,1.3842,1.3248,1.2412,1.0866,1.0866,1.0033,0.8963,0.8367,0.7537,0.6586,0.7656,0.8248,0.8364,0.8364,0.8367,0.8364,0.8367,0.8367,0.8367,1.039,1.1223,1.0866,1.0747,1.1346,1.1937,1.2293,1.2531,1.2892,1.3011,1.3011,1.2892,1.2179,1.158,1.1342,1.1104,1.0628,1.0513,1.1223,1.1342,1.1223,1.0751,1.1227,1.206,1.2293,1.2769,1.3842,1.5033,1.5868,1.6342,1.7655,1.8968,1.8731,1.8613,1.8495,1.8731,1.9092,1.921,1.921,1.9092,1.9092,1.944,1.9558,1.9794,2.003,2.0147,2.0278,2.0362,2.0559,2.0624,2.0864,2.09,2.1873,2.3476,2.3443,2.3255,2.4042,2.4836,2.4964,2.5126,2.5073,2.5266,2.5036,2.5787,2.7845,2.9133,2.8602,2.8911,2.9945,3.0299,3.0314,0.3962,0.3962,0.3962,0.3962,0.3962,0.3962,0.4821,0.6066,0.6103,0.6886,0.7905,0.8289,0.8754,0.9761,0.9876,1.061,1.1358,1.1464,1.1394,1.1457,1.1461,1.1461,1.158,1.158,1.1461,1.087,0.885,0.7778,0.7776,0.8017,0.6944,0.599,0.575,0.5155,0.4559,0.5273,0.5631,0.575,0.575,0.575,0.587,0.575,0.587,0.599,0.7064,0.7778,0.7778,0.7778,0.8373,0.9321,0.9556,1.0271,1.0394,0.9682,0.7778,0.7778,0.7659,0.7659,0.7778,0.7778,0.8017,0.7898,0.7659,0.7778,0.7778,0.8017,0.754,0.8017,0.8492,1.0033,1.1223,1.265,1.3367,1.3723,1.444,1.5744,1.6821,1.7064,1.7064,1.7064,1.7182,1.7419,1.8016,1.8489,1.885,1.9086,1.9086,1.9204,1.944,1.9477,1.9362,1.9513,1.952,1.9836,2.0256,2.0111,2.0599,2.1341,2.164,2.1558,2.2039,2.249,2.2666,2.2739,2.279,2.2919,2.3009,2.3753,2.5233,2.6598,2.6622,2.683,2.7387,2.7684,2.7652,0.3831,0.3813,0.3823,0.3827,0.3827,0.3827,0.3957,0.3858,0.4123,0.3899,0.4147,0.4009,0.5402,0.6542,0.6922,0.8082,0.9157,0.9316,0.9595,0.9546,0.9563,0.9563,0.9324,0.9205,0.9682,0.8966,0.6708,0.4559,0.4441,0.3962,0.4559,0.4203,0.4081,0.4081,0.3962,0.3962,0.4201,0.4441,0.4321,0.4321,0.4321,0.4321,0.4321,0.4321,0.4559,0.4679,0.4321,0.4201,0.4798,0.6703,0.6937,0.8131,0.8489,0.6229,0.4679,0.4561,0.4679,0.4919,0.4799,0.4321,0.4082,0.3962,0.4441,0.4321,0.4201,0.4201,0.4799,0.5037,0.6229,0.7776,1.004,1.0394,1.0747,1.0989,1.158,1.2769,1.4084,1.4203,1.3842,1.4559,1.4915,1.5152,1.5631,1.6105,1.5986,1.5868,1.5915,1.6206,1.7211,1.7885,1.8117,1.833,1.8466,1.8914,1.9366,1.901,1.9091,1.9869,2.0263,2.0192,2.0252,2.0607,2.0613,2.0564,2.0596,2.0965,2.165,2.2416,2.3298,2.3421,2.4197,2.4972,2.4992,2.5015,2.4978,0.3783,0.3695,0.3747,0.3768,0.3767,0.377,0.382,0.3882,0.382,0.3819,0.3832,0.3744,0.396,0.4285,0.443,0.4452,0.5054,0.5326,0.5959,0.5868,0.5874,0.5994,0.5874,0.5874,0.5754,0.5037,0.4201,0.3962,0.3962,0.3962,0.3962,0.3962,0.3962,0.3962,0.3962,0.3962,0.3962,0.3962,0.3962,0.3962,0.3962,0.3962,0.3962,0.3962,0.3962,0.3962,0.3962,0.3962,0.4081,0.432,0.4439,0.4679,0.4798,0.4081,0.3962,0.3962,0.3962,0.3962,0.3962,0.3962,0.3962,0.3962,0.3962,0.3962,0.3962,0.3962,0.3962,0.4081,0.432,0.5157,0.5157,0.6942,0.8009,0.8486,1.0274,1.1461,1.1699,1.0033,1.039,1.1461,1.2179,1.265,1.3129,1.3922,1.3116,1.2514,1.251,1.3033,1.477,1.5843,1.6536,1.6832,1.6879,1.73,1.7385,1.7185,1.7918,1.8596,1.9119,1.9148,1.9124,1.9461,1.9633,1.9175,1.9072,1.9484,2.018,2.0772,2.0642,2.0056,2.0732,2.2008,2.2388,2.2328,2.3203,0.3744,0.367,0.3695,0.3707,0.3711,0.3625,0.3665,0.3815,0.3772,0.3787,0.3807,0.3718,0.3685,0.3714,0.3709,0.3709,0.3721,0.3768,0.3812,0.3838,0.3962,0.3962,0.3962,0.3962,0.3962,0.3962,0.3962,0.3962,0.3962,0.3962,0.3962,0.3962,0.3962,0.3962,0.3962,0.3962,0.3962,0.3962,0.3962,0.3962,0.3962,0.3962,0.3962,0.3962,0.3962,0.3962,0.3962,0.3962,0.3962,0.3962,0.3962,0.3962,0.3962,0.3962,0.3962,0.3962,0.3962,0.3962,0.3962,0.3962,0.3962,0.3962,0.3962,0.3962,0.3962,0.3962,0.3962,0.3962,0.3962,0.3962,0.3962,0.5275,0.5513,0.587,0.6705,0.8015,0.8725,0.7179,0.6583,0.8606,0.944,1.0033,1.0943,1.2056,1.1695,1.1079,1.097,1.1271,1.2987,1.327,1.4131,1.5048,1.5201,1.5355,1.5309,1.5698,1.6401,1.6721,1.7431,1.786,1.7567,1.7963,1.8463,1.8674,1.8446,1.8647,1.8415,1.8882,1.9097,1.9047,1.9242,1.947,1.9908,2.0484,2.126,0.2899,0.2963,0.3432,0.3665,0.3673,0.3714,0.3625,0.3636,0.3728,0.3739,0.3768,0.3693,0.3672,0.3593,0.3697,0.3685,0.3702,0.3756,0.3795,0.3961,0.3962,0.3962,0.3962,0.3962,0.3962,0.3962,0.3962,0.3962,0.3962,0.3962,0.3962,0.3962,0.3962,0.3962,0.3962,0.3962,0.3962,0.3962,0.3962,0.3962,0.3962,0.3962,0.3962,0.3962,0.3962,0.3962,0.3962,0.3962,0.3601,0.336,0.3481,0.3962,0.3962,0.3962,0.3962,0.3962,0.3962,0.3962,0.3962,0.3962,0.3962,0.3962,0.3962,0.3962,0.3962,0.3962,0.3962,0.3962,0.3962,0.3962,0.3962,0.3962,0.4201,0.4201,0.4441,0.5036,0.599,0.5157,0.4916,0.6227,0.682,0.7524,0.9273,0.9176,0.9241,0.9656,0.9611,0.9908,1.0091,1.0267,1.1388,1.2727,1.2973,1.3201,1.3262,1.3411,1.3816,1.403,1.5579,1.6581,1.5662,1.563,1.5053,1.5736,1.7015,1.7387,1.695,1.7334,1.8201,1.8514,1.8711,1.8907,1.9004,1.878,1.9348,0.0345,0.056,0.2731,0.3665,0.3549,0.3673,0.3705,0.3611,0.3541,0.3645,0.3675,0.3621,0.3612,0.3489,0.3694,0.3621,0.3625,0.3787,0.3824,0.3832,0.3962,0.3962,0.3962,0.3962,0.3962,0.3962,0.3962,0.3962,0.3962,0.3962,0.3962,0.3842,0.3721,0.3842,0.3842,0.3721,0.3842,0.3602,0.3481,0.3361,0.3,0.3,0.288,0.288,0.3,0.3001,0.3241,0.3601,0.2639,0.0479,0.264,0.3241,0.3481,0.3721,0.3601,0.3361,0.312,0.324,0.3601,0.312,0.3481,0.3241,0.3361,0.3962,0.3241,0.3,0.3,0.288,0.3842,0.3601,0.3601,0.3842,0.3842,0.3841,0.3601,0.3841,0.4201,0.4082,0.3962,0.432,0.4318,0.4288,0.4489,0.4454,0.4662,0.6542,0.6149,0.6804,0.7458,0.7552,0.8548,0.9713,1.0207,1.0808,1.0854,1.0893,1.0904,1.1465,1.3115,1.3516,1.2631,1.269,1.1928,1.2102,1.3706,1.4524,1.4781,1.6027,1.7305,1.7747,1.7658,1.8081,1.866,1.8479,1.821,-0.2182,-0.1898,0.045,0.1466,0.1692,0.3049,0.3668,0.3725,0.3666,0.3662,0.3694,0.3656,0.3629,0.3632,0.3679,0.3702,0.3711,0.3763,0.3791,0.3796,0.3704,0.3717,0.3841,0.3962,0.3962,0.3962,0.3962,0.3842,0.3842,0.3962,0.3962,0.3481,0.2399,0.2518,0.3361,0.2518,0.1559,0.1678,0.1559,0.0839,-0.0479,-0.0599,-0.0599,-0.0599,-0.0599,-0.0599,-0.0359,0.0839,0.0479,-0.1437,-0.1317,-0.0599,-0.0599,-0.0599,-0.0599,-0.0599,-0.0599,-0.0599,-0.0599,-0.0599,-0.0599,-0.0599,-0.0599,-0.0599,-0.0479,-0.0599,-0.0599,-0.024,0.0959,0.1439,0.1919,0.312,0.3722,0.336,0.1079,-0.0599,-0.0599,0.0838,0.1552,0.2016,0.2838,0.3768,0.3711,0.367,0.3641,0.339,0.3136,0.4024,0.4796,0.5032,0.5391,0.5761,0.6237,0.6739,0.6891,0.7033,0.711,0.837,0.967,0.9517,0.9516,1.0231,1.0097,1.0465,1.0963,1.1525,1.1704,1.2411,1.4433,1.6002,1.6522,1.7,1.7981,1.8359,1.795,-0.4846,-0.441,-0.2146,-0.1129,-0.0791,0.0791,0.16,0.1731,0.1598,0.1822,0.2636,0.2739,0.2611,0.2845,0.3312,0.332,0.2992,0.3379,0.3636,0.3524,0.2722,0.2014,0.2016,0.1903,0.2149,0.2518,0.1798,0.2159,0.2759,0.1799,0.1559,0.1799,-0.024,-0.012,0.1318,-0.024,-0.0958,-0.1078,-0.0958,-0.2035,-0.3469,-0.359,-0.3947,-0.3947,-0.3708,-0.3708,-0.359,-0.2035,-0.2275,-0.4545,-0.4306,-0.3947,-0.359,-0.359,-0.347,-0.347,-0.359,-0.3828,-0.3708,-0.371,-0.371,-0.3947,-0.3351,-0.3947,-0.3947,-0.3828,-0.3828,-0.359,-0.2394,-0.0958,-0.0719,0.0479,0.1439,0.1319,-0.1317,-0.3345,-0.3093,-0.2021,-0.0947,-0.07,0.0698,0.1271,0.1369,0.1353,0.1229,0.1445,0.1772,0.2544,0.2528,0.2747,0.3313,0.3105,0.2892,0.3142,0.3278,0.3405,0.4071,0.5458,0.5422,0.5391,0.5656,0.6322,0.7163,0.8355,0.7956,0.8882,0.911,0.9463,1.1322,1.3494,1.4474,1.5781,1.685,1.7581,1.7166,-0.7482,-0.6886,-0.4663,-0.3721,-0.36,-0.3248,-0.2751,-0.3037,-0.291,-0.1668,-0.011,0.0223,0.0224,0.0673,0.2038,0.1935,0.1031,0.2086,0.2916,0.1862,-0.0463,-0.2418,-0.2308,-0.2331,-0.1415,-0.0358,-0.1912,-0.1794,0.0,-0.1676,-0.347,-0.2872,-0.3231,-0.347,-0.2872,-0.347,-0.371,-0.359,-0.359,-0.3829,-0.4308,-0.4308,-0.4308,-0.4427,-0.4427,-0.4547,-0.4666,-0.4308,-0.5023,-0.6696,-0.5503,-0.4666,-0.4188,-0.3947,-0.4427,-0.4547,-0.4068,-0.4427,-0.4187,-0.4786,-0.4666,-0.4786,-0.4786,-0.3947,-0.4666,-0.4906,-0.4906,-0.4786,-0.4067,-0.359,-0.359,-0.2992,-0.3231,-0.347,-0.4308,-0.4517,-0.3756,-0.363,-0.3254,-0.3104,-0.3088,-0.2845,-0.224,-0.2343,-0.2433,-0.2195,-0.0875,0.0,0.0217,0.0541,0.1413,0.1415,0.0981,0.1208,0.1327,0.1443,0.1552,0.2194,0.1205,0.0981,0.0974,0.1283,0.1896,0.3491,0.4532,0.5877,0.689,0.7702,0.9032,1.0731,1.2475,1.4198,1.529,1.5868,1.5939,-1.1212,-1.0764,-0.8065,-0.6856,-0.6443,-0.4442,-0.3629,-0.3396,-0.3475,-0.3003,-0.2215,-0.2114,-0.2329,-0.2421,-0.1437,-0.1551,-0.2441,-0.1353,-0.1136,-0.2157,-0.3866,-0.4336,-0.4456,-0.4477,-0.383,-0.3176,-0.3774,-0.3555,-0.2512,-0.335,-0.3947,-0.4306,-0.5501,-0.5499,-0.4067,-0.5262,-0.6218,-0.6218,-0.6218,-0.7057,-0.8259,-0.8618,-0.8618,-0.8618,-0.8618,-0.8618,-0.862,-0.862,-0.9095,-0.9576,-0.9218,-0.8737,-0.862,-0.8498,-0.862,-0.862,-0.8618,-0.8618,-0.8618,-0.8379,-0.8618,-0.8618,-0.8618,-0.8618,-0.8618,-0.862,-0.8618,-0.8379,-0.7179,-0.6218,-0.5979,-0.5023,-0.5503,-0.8137,-0.8495,-0.8558,-0.8205,-0.6958,-0.5953,-0.5428,-0.439,-0.3573,-0.3423,-0.3405,-0.3503,-0.3491,-0.2722,-0.2174,-0.2039,-0.2024,-0.1694,-0.1374,-0.1274,-0.1069,-0.0648,-0.0542,-0.0543,-0.1954,-0.3149,-0.335,-0.29,-0.2442,-0.1674,0.0102,0.0894,0.2259,0.3308,0.4445,0.5852,0.7993,0.9628,1.1199,1.26,1.3482,1.422,-1.333,-1.297,-1.1072,-1.0061,-0.9486,-0.7521,-0.6604,-0.6427,-0.6185,-0.5687,-0.5236,-0.4991,-0.5166,-0.5443,-0.4457,-0.4676,-0.5654,-0.6046,-0.6527,-0.7206,-0.7265,-0.7406,-0.7417,-0.7335,-0.7286,-0.7015,-0.7061,-0.6534,-0.5882,-0.6361,-0.6485,-0.673,-0.8168,-0.7956,-0.6531,-0.7879,-0.8853,-0.8734,-0.8734,-0.9576,-1.1262,-1.1385,-1.1385,-1.1505,-1.1505,-1.1588,-1.1895,-1.1895,-1.2039,-1.2097,-1.1859,-1.1616,-1.1501,-1.1505,-1.1505,-1.1505,-1.1505,-1.1505,-1.1385,-1.1381,-1.1262,-1.1381,-1.1381,-1.1505,-1.1505,-1.1262,-1.1262,-1.1143,-0.9938,-0.8734,-0.8495,-0.7179,-0.7879,-1.1066,-1.1417,-1.1216,-1.1271,-0.973,-0.8451,-0.8001,-0.6642,-0.573,-0.5678,-0.588,-0.6086,-0.5944,-0.4961,-0.4393,-0.433,-0.4183,-0.4048,-0.3208,-0.3811,-0.3623,-0.2538,-0.193,-0.4304,-0.7457,-0.7643,-0.7709,-0.6152,-0.5033,-0.3917,-0.2825,-0.2562,-0.1745,-0.0864,0.0381,0.1984,0.3841,0.5734,0.766,0.9437,1.0664,1.1626,-1.3647,-1.3866,-1.3409,-1.3604,-1.3524,-1.2758,-1.2839,-1.2521,-1.2079,-1.0473,-0.8783,-0.8653,-0.86,-0.8259,-0.6738,-0.6735,-0.8801,-1.0678,-1.1568,-1.1677,-1.1799,-1.1803,-1.1712,-1.1739,-1.1715,-1.1737,-1.2245,-1.1083,-0.894,-1.0673,-1.1478,-1.1601,-1.1511,-1.111,-1.1005,-1.0898,-1.1231,-1.1215,-1.1204,-1.1342,-1.1497,-1.158,-1.1568,-1.1584,-1.1937,-1.2562,-1.322,-1.3331,-1.3528,-1.3581,-1.3125,-1.2204,-1.2302,-1.2204,-1.1859,-1.2208,-1.1859,-1.1739,-1.1859,-1.2097,-1.2332,-1.2093,-1.1739,-1.2093,-1.2212,-1.2093,-1.2093,-1.2093,-1.1735,-1.1501,-1.1377,-1.1223,-1.139,-1.1391,-1.1818,-1.2433,-1.2921,-1.1819,-1.0647,-1.0626,-1.0481,-1.0469,-1.0352,-1.0213,-1.0039,-0.9608,-0.8385,-0.7161,-0.7252,-0.7159,-0.5598,-0.4598,-0.5692,-0.7029,-0.5201,-0.4029,-0.8757,-1.2253,-1.1624,-1.1129,-0.9448,-0.8418,-0.736,-0.6637,-0.6283,-0.5991,-0.5083,-0.3541,-0.2035,0.046,0.1449,0.3301,0.5032,0.674,0.7992,-1.976,-1.9642,-1.9295,-1.9065,-1.8647,-1.6588,-1.5654,-1.5351,-1.3377,-1.2035,-1.1442,-1.1175,-1.1312,-1.1416,-1.0553,-1.087,-1.2277,-1.3038,-1.348,-1.3485,-1.348,-1.348,-1.349,-1.3443,-1.3479,-1.3509,-1.3153,-1.2547,-1.1635,-1.2334,-1.2566,-1.2452,-1.2392,-1.2318,-1.2212,-1.226,-1.2295,-1.2299,-1.2299,-1.2304,-1.2295,-1.2299,-1.2295,-1.2641,-1.5265,-1.7045,-1.7313,-1.7414,-1.7356,-1.7425,-1.7316,-1.7282,-1.7344,-1.7755,-1.7854,-1.7972,-1.7848,-1.7507,-1.6815,-1.6579,-1.6229,-1.5405,-1.5286,-1.5291,-1.5286,-1.5286,-1.5286,-1.5286,-1.5286,-1.4698,-1.3932,-1.419,-1.4565,-1.4617,-1.4596,-1.4836,-1.5057,-1.4615,-1.4134,-1.3841,-1.3789,-1.3789,-1.3881,-1.3759,-1.3537,-1.3579,-1.2775,-1.1978,-1.1897,-1.1771,-1.1334,-1.0646,-1.0795,-1.0652,-1.0689,-1.0457,-1.3843,-1.4431,-1.398,-1.3728,-1.2964,-1.2182,-1.1408,-1.0731,-1.0169,-0.9908,-0.9033,-0.7569,-0.5078,-0.1991,-0.1068,-0.0613,0.1306,0.2759,0.4099,-2.3623,-2.2687,-2.2336,-2.2096,-2.1773,-1.9803,-1.8916,-1.8681,-1.674,-1.5526,-1.4771,-1.4501,-1.4039,-1.3494,-1.4899,-1.5925,-1.6366,-1.6474,-1.5943,-1.5195,-1.5195,-1.4764,-1.4123,-1.4015,-1.4015,-1.3928,-1.3624,-1.333,-1.312,-1.3129,-1.3018,-1.2799,-1.287,-1.3241,-1.3701,-1.3874,-1.4362,-1.4923,-1.5149,-1.5154,-1.516,-1.5036,-1.528,-1.568,-1.8425,-1.9903,-2.0028,-2.0028,-2.0079,-2.0196,-1.986,-1.9947,-2.0262,-2.0336,-2.0451,-2.0451,-2.0451,-2.0161,-1.9568,-1.9472,-1.9162,-1.8562,-1.8115,-1.7612,-1.7533,-1.7234,-1.6975,-1.6728,-1.6851,-1.698,-1.6292,-1.6726,-1.6938,-1.6285,-1.6031,-1.616,-1.6495,-1.6191,-1.6022,-1.6302,-1.5924,-1.5561,-1.5134,-1.5147,-1.4958,-1.4852,-1.4596,-1.4285,-1.4181,-1.4203,-1.3855,-1.3917,-1.4076,-1.4506,-1.5861,-1.6733,-1.6934,-1.6835,-1.6389,-1.6192,-1.4923,-1.3884,-1.3316,-1.2338,-1.2046,-1.1773,-1.1348,-0.9965,-0.8962,-0.6266,-0.5483,-0.4552,-0.1719,-0.0506,0.0669,-2.539,-2.328,-2.3155,-2.3381,-2.3131,-2.2803,-2.2727,-2.2686,-2.2086,-2.0854,-1.8842,-1.8365,-1.6919,-1.518,-1.9099,-2.1084,-2.0693,-2.0471,-1.9395,-1.7553,-1.7453,-1.6373,-1.4339,-1.4231,-1.4446,-1.4872,-1.49,-1.469,-1.4576,-1.4468,-1.4015,-1.348,-1.3779,-1.4533,-1.5831,-1.6236,-1.7306,-1.8811,-1.9062,-1.9341,-1.9341,-1.9676,-2.0277,-2.0978,-2.1194,-2.1371,-2.1412,-2.1358,-2.1485,-2.1683,-2.1334,-2.0919,-2.0838,-2.0406,-2.0316,-2.0226,-2.0218,-2.0343,-2.0713,-2.0872,-2.0868,-2.1009,-2.0221,-1.9348,-1.9329,-1.8686,-1.7931,-1.6696,-1.7443,-1.7895,-1.868,-1.8887,-1.8332,-1.6796,-1.6324,-1.7083,-1.8238,-1.7163,-1.6802,-1.7761,-1.7079,-1.633,-1.569,-1.4996,-1.5147,-1.5064,-1.4742,-1.4744,-1.4744,-1.4579,-1.4579,-1.456,-1.476,-1.549,-1.8715,-1.9954,-2.021,-1.9851,-1.9076,-1.8461,-1.6489,-1.4952,-1.4374,-1.3942,-1.4266,-1.4123,-1.3365,-1.2552,-1.188,-1.0751,-0.9762,-0.797,-0.5003,-0.381,-0.2531,-2.891,-2.8321,-2.8205,-2.8205,-2.807,-2.6318,-2.5525,-2.5311,-2.3378,-2.2083,-2.1444,-2.1168,-2.0659,-2.0478,-2.1412,-2.1667,-2.1247,-2.1216,-2.0658,-1.9907,-1.9793,-1.9472,-1.8931,-1.8931,-1.8931,-1.8931,-1.8817,-1.8817,-1.8931,-1.8931,-1.8702,-1.8208,-1.8151,-1.8292,-1.8523,-1.8791,-1.927,-1.9831,-2.0258,-2.0481,-2.092,-2.362,-2.546,-2.5691,-2.5767,-2.5816,-2.5837,-2.5837,-2.5789,-2.5886,-2.5789,-2.5807,-2.5978,-2.5898,-2.5922,-2.6299,-2.6347,-2.6071,-2.518,-2.5189,-2.4907,-2.42,-2.3775,-2.3507,-2.3439,-2.3152,-2.2547,-2.1659,-2.1334,-2.0896,-2.048,-2.031,-2.0164,-1.965,-1.9405,-1.9598,-2.0143,-1.9815,-1.9579,-1.9998,-1.9582,-1.8892,-1.8753,-1.8423,-1.8032,-1.7892,-1.7715,-1.7435,-1.7383,-1.7347,-1.7339,-1.7361,-1.7443,-1.8732,-2.1383,-2.259,-2.2787,-2.2371,-2.2108,-2.1711,-2.1521,-2.0633,-1.9796,-1.7834,-1.7799,-1.7539,-1.6954,-1.6219,-1.5469,-1.3845,-1.2271,-1.0559,-0.8482,-0.7757,-0.6321,-3.1008,-3.0327,-3.0327,-3.0327,-3.0211,-2.8794,-2.8205,-2.7954,-2.642,-2.5162,-2.4429,-2.516,-2.5438,-2.537,-2.5267,-2.4843,-2.422,-2.4193,-2.344,-2.2241,-2.2126,-2.1701,-2.0851,-2.0851,-2.0665,-2.0441,-2.0433,-2.046,-2.0237,-2.0214,-2.0111,-1.9828,-1.9812,-2.0112,-2.0754,-2.1046,-2.1744,-2.2716,-2.3155,-2.3576,-2.4488,-2.6866,-2.8138,-2.8057,-2.8735,-2.8938,-2.8443,-2.9149,-2.9655,-2.955,-2.955,-2.9685,-2.9954,-2.9965,-2.9781,-2.9501,-2.9437,-2.8876,-2.7551,-2.7461,-2.7312,-2.6828,-2.6284,-2.5977,-2.5836,-2.5516,-2.5442,-2.5463,-2.5944,-2.5596,-2.4202,-2.3944,-2.3715,-2.3503,-2.3512,-2.3512,-2.3503,-2.3264,-2.3166,-2.3139,-2.2828,-2.245,-2.2228,-2.1946,-2.1715,-2.1491,-2.133,-2.1098,-2.0851,-2.0833,-2.0677,-2.058,-2.0651,-2.155,-2.2619,-2.3672,-2.373,-2.3451,-2.3514,-2.3476,-2.293,-2.2494,-2.233,-2.216,-2.0926,-2.0292,-2.0338,-1.955,-1.9035,-1.8189,-1.6398,-1.5068,-1.2955,-1.17,-1.1202,-3.2503,-3.0933,-3.1091,-3.0882,-3.0662,-3.0316,-3.0211,-3.0201,-3.0327,-2.9026,-2.7462,-2.9372,-2.9847,-2.9628,-2.9483,-2.8905,-2.8129,-2.8283,-2.6813,-2.4681,-2.4482,-2.3371,-2.1741,-2.1391,-2.1017,-2.0845,-2.0813,-2.0855,-2.0584,-2.0349,-2.0216,-2.0098,-2.0066,-2.1056,-2.2697,-2.3044,-2.4277,-2.674,-2.7261,-2.829,-2.961,-2.967,-2.94,-2.9005,-3.081,-3.1016,-2.9921,-3.1489,-3.2552,-3.2564,-3.2487,-3.2434,-3.2446,-3.2405,-3.181,-3.0475,-3.0164,-2.9614,-2.8557,-2.8289,-2.8252,-2.8757,-2.7672,-2.6964,-2.6747,-2.625,-2.6777,-2.8185,-2.9921,-2.9714,-2.8639,-2.8158,-2.7573,-2.7032,-2.6887,-2.7355,-2.6939,-2.6886,-2.6534,-2.6534,-2.5638,-2.5625,-2.4945,-2.4751,-2.4709,-2.4096,-2.3921,-2.3883,-2.3517,-2.3528,-2.3468,-2.4047,-2.4606,-2.4896,-2.4818,-2.5278,-2.5788,-2.4574,-2.4821,-2.5301,-2.4656,-2.3884,-2.2843,-2.4301,-2.2832,-2.2342,-2.2258,-2.2175,-2.2018,-2.0991,-2.0837,-2.0492,-1.7475,-1.529,-1.5196,-3.6175,-3.5042,-3.5649,-3.4588,-3.2353,-3.0882,-3.0327,-3.0327,-3.0327,-3.0882,-3.1424,-3.0641,-3.0264,-3.017,-3.017,-2.9856,-2.9273,-2.9211,-2.8543,-2.7349,-2.6982,-2.6323,-2.5455,-2.511,-2.4922,-2.4833,-2.4823,-2.4774,-2.4685,-2.4675,-2.4675,-2.4636,-2.431,-2.4338,-2.4857,-2.5301,-2.591,-2.7025,-3.104,-3.3537,-3.4231,-3.3632,-3.3344,-3.312,-3.3016,-3.2846,-3.2553,-3.2964,-3.3238,-3.3265,-3.3016,-3.2873,-3.2898,-3.2592,-3.2314,-3.1901,-3.0763,-2.999,-2.9685,-2.8458,-2.7784,-2.7889,-2.758,-2.7433,-2.7541,-2.9493,-3.0765,-3.036,-3.0785,-3.0475,-2.9371,-2.8691,-2.8153,-2.8029,-2.724,-2.6979,-2.6725,-2.624,-2.5977,-2.6025,-2.5693,-2.5479,-2.5236,-2.5041,-2.498,-2.5053,-2.4655,-2.4624,-2.453,-2.4499,-2.6314,-2.8913,-3.1159,-3.1238,-3.0923,-3.0676,-3.039,-3.0361,-3.0327,-2.9919,-2.9691,-2.8748,-2.8192,-2.7608,-2.5982,-2.4507,-2.4103,-2.4103,-2.3688,-2.2843,-2.3582,-2.3255,-2.0674,-1.87,-1.8405,-3.7987,-3.6876,-3.7416,-3.6889,-3.5363,-3.4706,-3.4121,-3.3689,-3.4247,-3.4689,-3.4928,-3.4031,-3.3359,-3.2811,-3.2811,-3.2414,-3.1634,-3.1634,-3.1092,-3.0154,-2.9872,-2.9476,-2.9013,-2.9058,-2.8684,-2.7951,-2.823,-2.8106,-2.7709,-2.7663,-2.7788,-2.8067,-2.8288,-2.8818,-2.9526,-2.9826,-3.0235,-3.0602,-3.2741,-3.4207,-3.491,-3.4167,-3.3719,-3.3441,-3.4736,-3.5058,-3.4394,-3.5232,-3.5786,-3.5772,-3.5646,-3.5552,-3.5566,-3.527,-3.4668,-3.3558,-3.2658,-3.1653,-3.0455,-2.9476,-2.8968,-2.9081,-2.9273,-2.9318,-2.899,-3.1287,-3.2482,-3.1967,-3.2658,-3.2645,-3.1817,-3.1457,-3.1074,-3.0875,-3.0348,-2.9872,-2.9848,-2.9474,-2.9125,-2.9066,-2.876,-2.8464,-2.8452,-2.8297,-2.82,-2.8212,-2.8119,-2.8092,-2.7878,-2.8572,-3.0036,-3.208,-3.3307,-3.3347,-3.2291,-3.2261,-3.2481,-3.2418,-3.2278,-3.234,-3.2651,-3.1901,-3.1102,-3.0861,-2.9019,-2.7307,-2.7157,-2.7075,-2.6734,-2.5887,-2.7036,-2.7677,-2.6449,-2.4725,-2.428,-3.949,-3.8039,-3.8662,-3.8707,-3.8422,-3.9024,-3.8729,-3.7707,-3.9284,-3.9132,-3.7825,-3.7589,-3.6932,-3.5949,-3.5961,-3.5448,-3.468,-3.4667,-3.4008,0.0,-3.2945,-3.2619,-3.2031,-3.2506,-3.1918,-3.0496,-3.1089,-3.0921,-3.0014,-2.9939,-3.019,-3.0777,-3.158,-3.2765,-3.429,-3.4497,-3.5037,-3.6181,-3.5033,-3.4925,-3.5999,-3.5192,-3.4315,-3.3619,-3.656,-3.7457,-3.5879,-3.7785,-3.8762,-3.8667,-3.8576,-3.867,-3.8764,-3.8468,-3.7556,-3.558,-3.5033,-3.378,-3.1488,-3.0986,-3.0889,-3.073,-3.1123,-3.1358,-3.134,-3.2605,-3.3363,-3.3447,-3.4663,-3.5392,-3.5021,-3.4662,-3.429,-3.3988,-3.3906,-3.3865,-3.3496,-3.2996,-3.2511,-3.2498,-3.2661,-3.2369,-3.216,-3.2413,-3.247,-3.2553,-3.2193,-3.2372,-3.2203,-3.3439,-3.4043,-3.3775,-3.3801,-3.3374,-3.2872,-3.268,-3.3397,-3.3229,-3.3256,-3.3597,-3.4164,-3.3553,-3.2999,-3.292,-3.1342,-3.0313,-3.0151,-3.0313,-3.0071,-2.9976,-3.0379,-3.1487,-3.1457,-3.0713,-2.9839,-4.3246,-4.2171,-4.2871,-4.1769,-3.9594,-3.9694,-3.9068,-3.8299,0.0,0.0,0.0,-3.781,-3.7044,-3.6936,-3.6828,-3.6843,-3.6643,-3.6643,-3.6271,-3.5606,-3.5319,-3.4885,-3.4407,-3.4142,-3.3549,-3.2713,-3.3469,-3.3374,-3.2604,-3.2591,-3.2888,-3.3592,-3.3171,-3.3429,-3.4414,-3.4716,-3.7367,-4.2114,-4.3015,-4.4133,-4.5784,-4.447,-4.2584,-4.0296,-4.1004,-4.0228,-3.7909,-3.9597,-4.0241,-3.9538,-3.9137,-3.932,-3.9953,-3.8825,-3.8406,-3.9187,-3.7107,-3.5211,-3.3973,-3.2618,-3.1463,-3.0705,-3.0791,-3.1679,-3.3793,-3.4589,-3.5103,-3.5089,-3.5378,-3.557,-3.5378,-3.502,-3.46,-3.452,-3.3696,-3.3233,-3.3233,-3.2726,-3.2446,-3.2511,-3.3086,-3.3576,-3.365,-3.4271,-3.4822,-3.4837,-3.4759,-3.476,-3.4744,-3.5038,-3.5496,-3.5624,-3.6361,-3.683,-3.6141,-3.6194,-3.6605,-3.6512,-3.6975,-3.7476,-3.7389,-3.6213,-3.5185,-3.5045,-3.3395,-3.222,-3.1966,-3.1981,-3.2061,-3.1981,-3.1182,-3.0715,-3.1746,-3.251,-3.2163,-4.4072,0.0,-4.4359,-4.3803,0.0,-4.2897,-4.287,-4.2722,-4.4795,-4.4547,-4.2479,-4.1615,-4.0694,-3.9888,-3.9888,-3.97,-3.9397,-3.9397,-3.905,-3.8545,-3.8327,-3.7947,-3.7419,-3.7546,-3.7033,-3.6017,-3.6741,-3.6711,-3.6002,-3.5973,-3.5987,-3.6002,-3.6118,-3.6238,-3.6379,-3.7001,-3.9118,-4.3004,-4.414,-4.4966,-4.5405,-4.525,-4.4441,-4.3175,0.0,0.0,0.0,0.0,0.0,0.0,0.0,0.0,0.0,0.0,0.0,-3.9247,-3.7448,-3.5873,-3.4431,-3.3417,-3.3102,-3.3355,-3.2452,-3.3005,-3.5517,-3.6441,-3.7077,-3.7495,-3.7271,-3.732,-3.7722,-3.6515,-3.5602,-3.5467,-3.406,-3.2968,-3.294,-3.3116,-3.3343,-3.3475,-3.4501,-3.542,-3.5404,-3.5937,-3.618,-3.6163,-3.6163,-3.5983,-3.5679,-3.6592,-3.7696,-3.8133,-3.8761,-3.8919,-3.8175,-3.8306,-3.8472,-3.8463,-3.8396,-3.8549,-3.9012,-3.8039,-3.7158,-3.7004,-3.5608,-3.3947,-3.3142,-3.3458,-3.3694,-3.2777,-3.2459,-3.2539,-3.211,-3.1606,-3.0963,-4.4515,-4.47,-4.5104,-4.5237,-4.5388,-4.645,-4.7058,-4.7214,-4.7214,-4.6585,-4.5605,-4.537,-4.4308,-4.286,-4.2844,-4.2532,-4.2016,-4.2,-4.1703,-4.1256,-4.1256,-4.0958,-4.0554,-4.0989,-4.0613,-3.958,-4.0177,-4.0161,-3.947,-3.947,-3.9172,-3.8764,-3.972,-3.9899,-3.936,0.0,0.0,0.0,-4.4519,-4.5314,-4.507,-4.5701,-4.5873,-4.5468,-4.749,0.0,-4.9091,-4.9623,-4.946,-4.8439,-4.8153,0.0,0.0,0.0,0.0,0.0,0.0,0.0,0.0,0.0,0.0,0.0,-3.431,-3.4373,-3.6603,-3.7376,-3.8158,-3.884,-3.8912,-3.9115,-3.9572,-3.7864,-3.68,-3.6821,-3.5064,-3.3856,-3.4032,-3.4822,-3.5248,-3.5138,-3.6528,-3.7396,-3.7246,-3.7305,-3.7265,-3.7244,-3.718,-3.679,-3.6288,-3.8238,-3.9744,-4.0118,-4.0036,-3.9913,-3.9233,-3.9366,-3.957,-3.9873,-3.9335,-3.9432,-3.9938,-3.9581,-3.9277,-3.8745,-3.7655,-3.598,-3.4009,-3.4621,-3.4872,-3.2856,-3.3237,-3.3648,-3.2205,-3.0385,-2.9035,-4.6696,-4.7298,-4.6755,-4.6585,-4.6772,-4.9259,-4.9283,-4.771,-4.771,-4.7283,-4.6599,-4.5485,-4.4502,-4.3824,-4.3726,-4.366,-4.3676,-4.3659,-4.3626,-4.3527,-4.3543,-4.3477,-4.3395,-4.3494,-4.3097,-4.2274,-4.3047,-4.2917,-4.2241,-4.2225,-4.2489,-4.3145,-4.3883,-4.3876,-4.2864,-4.1713,-4.2673,-4.5731,-4.9559,-5.2198,-5.3678,-5.3437,-5.2211,-5.009,-5.1333,-5.0999,-4.8855,-5.1165,-5.217,-5.1269,-5.0163,-4.9732,-4.9904,-4.5581,-4.2767,0.0,-3.9581,0.0,0.0,0.0,0.0,0.0,0.0,0.0,0.0,-3.6864,-3.6989,-3.7108,-3.8466,-3.9097,-3.8449,-3.7748,-3.768,-3.8296,-3.7781,-3.7751,-3.8306,-3.8602,-3.8393,-3.7682,-3.8585,-3.8999,-3.8377,-3.8377,-3.8457,-3.8326,-3.7844,-3.7731,-3.8278,-3.967,-4.0555,-4.0099,-4.0073,-4.0286,-3.9822,-3.9934,-4.0513,-4.14,-4.1896,-4.241,-4.2001,-4.1569,-4.0897,-3.96,-3.8763,-3.7655,-3.5652,-3.5402,-3.4934,-3.2936,-3.1597,-3.0781,-3.0459,-2.9971,-2.9028,-5.1046,-5.1344,-5.1045,-5.0945,-5.1063,-5.0782,-5.0782,-5.0864,-4.9816,-4.9229,-4.8855,-4.7859,-4.6234,-4.4425,-4.4408,-4.4587,-4.5074,-4.5074,-4.5542,-4.6395,-4.6377,-4.6395,-4.6395,-4.6395,-4.6219,-4.5901,-4.6236,-4.6219,-4.5883,-4.5366,-4.489,-4.4455,-4.4295,-4.4023,-4.3805,-4.4492,-4.6292,-4.9104,-5.1095,-5.2665,-5.3842,-5.4837,-5.4867,-5.378,-5.5021,-5.5373,-5.4676,-5.5947,-5.6178,-5.5144,-5.3927,-5.2821,-5.1859,-4.6981,-4.3804,0.0,0.0,0.0,0.0,0.0,0.0,0.0,0.0,0.0,0.0,0.0,-3.9686,-4.0521,-4.2317,-4.2811,-4.137,-4.0051,-3.9321,-3.9151,-3.7693,-3.7009,-3.7681,-3.8684,-3.8904,-3.7931,-3.94,-4.0033,-3.8782,-3.881,-3.8792,-3.808,-3.8523,-3.9322,-4.034,-4.1057,-4.1676,-4.2193,-4.2284,-4.2246,-4.2064,-4.199,-4.2308,-4.3256,-4.3615,-4.343,-4.2748,-4.2417,-4.1772,-4.0204,-3.96,-3.8745,-3.6849,-3.7004,-3.66,-3.3694,-3.1582,-3.0635,-3.0298,-2.9519,-2.8409,-5.4375,-5.4494,-5.4807,-5.4895,-5.4748,-5.2702,-5.2622,-5.3655,-5.2355,-5.1468,-5.1027,-5.057,-4.8392,-4.5169,-4.4708,-4.5119,-4.6304,-4.6483,-4.753,-4.9094,-4.9112,-4.9112,-4.9112,-4.8831,-4.8812,-4.9056,-4.8327,-4.8159,-4.8381,-4.688,-4.5389,-4.4193,-4.3821,-4.3562,-4.3496,-4.5772,-4.8363,-5.1263,-5.1466,-5.2116,-5.3173,-5.5298,-5.6448,-5.6599,-5.7885,-5.8939,-5.9581,-5.9826,-5.9595,-5.8778,-5.6665,-5.4672,-5.3062,-4.754,0.0,0.0,0.0,0.0,0.0,0.0,0.0,0.0,0.0,-3.9418,-3.8837,0.0,-4.1825,0.0,-4.5122,-4.5623,-4.4068,-4.2112,0.0,0.0,-3.7705,-3.6628,-3.7244,-3.8864,-3.961,-3.8531,-4.001,-4.0624,-3.9116,-3.9106,-3.912,-3.8623,-3.9737,-4.0977,-4.1957,-4.2345,-4.3031,-4.3998,-4.426,-4.4319,-4.4106,-4.3878,-4.4035,-4.524,-4.512,-4.4565,-4.3651,-4.3475,-4.2764,-4.0786,-4.028,-3.9353,-3.7466,-3.8039,-3.7483,-3.4856,-3.3205,-3.219,-3.0846,-2.9572,-2.8193,-5.4954,-5.5206,-5.6291,-5.6463,-5.6053,-5.5803,-5.5457,-5.5079,-5.4905,-5.4081,-5.2756,-5.2869,-5.0543,-4.6261,-4.4658,0.0,0.0,-4.7776,-4.9202,-5.1103,-5.1103,-5.1103,-5.1064,-5.014,-5.0159,-5.1045,-4.8262,-4.7509,-4.839,-4.5079,-4.2833,-4.2081,-4.3189,-4.3133,-4.2101,-4.3908,-4.6777,-5.0527,-5.1577,-5.2819,-5.4431,-5.6513,-5.7607,-5.7599,-5.9258,-6.014,-6.0206,-6.0882,-6.1223,-6.0973,-5.683,-5.4118,-5.3391,0.0,0.0,0.0,0.0,0.0,0.0,0.0,0.0,0.0,0.0,0.0,0.0,0.0,0.0,0.0,-4.3938,0.0,-4.4698,-4.2614,0.0,0.0,0.0,-3.8629,-3.9313,-4.1021,-4.1851,-4.1017,0.0,0.0,-3.9881,0.0,-3.9801,-4.1116,-4.1936,-4.2405,-4.2526,-4.357,-4.4448,-4.4893,-4.4942,-4.4801,-4.4825,-4.4628,-4.5112,-4.6662,-4.7028,-4.6587,-4.5603,-4.538,-4.4243,-4.1702,-4.0845,-3.9921,-3.7908,-3.7466,-3.7158,-3.7122,-3.6677,-3.528,-3.2046,-3.0766,-2.9776,-5.6291,-5.3722,-5.4137,-5.4186,-5.3775,-5.2018,-5.2854,-5.529,-5.3211,-5.1677,-5.0657,-5.0422,-4.7638,-4.317,-4.2179,0.0,0.0,0.0,-4.7482,-5.0799,-5.0433,-5.118,-5.2604,-5.2335,-5.2159,-5.2161,-5.1029,-5.0492,-5.0385,-4.8401,-4.402,-3.7613,0.0,0.0,-3.9079,-4.2794,-4.6444,-5.0003,-5.3135,-5.5129,-5.5808,-5.7615,-5.8732,-5.9196,-6.0515,-6.1021,-6.03,-6.167,-6.101,-5.785,-5.5525,-5.3118,0.0,0.0,0.0,0.0,0.0,0.0,0.0,0.0,0.0,0.0,0.0,-3.5958,-3.6443,0.0,0.0,0.0,-4.164,-4.2054,-4.1823,-4.1203,0.0,0.0,0.0,0.0,0.0,0.0,0.0,-4.3745,-4.3046,-4.252,-4.2627,-4.2006,-4.1739,-4.2319,-4.4153,-4.5402,-4.5402,0.0,-4.7505,-4.7616,-4.7616,-4.7586,-4.7449,-4.6856,-4.659,-4.7379,-4.7785,-4.773,-4.6839,-4.6344,-4.523,-4.3119,-4.1702,-4.0694,-3.9883,-3.9638,-3.9429,-3.8803,-3.8097,-3.6849,-3.4402,-3.3284,-3.2085,-5.5989,0.0,0.0,0.0,0.0,-4.9584,-5.0718,-5.3836,-5.1117,-4.9356,-4.8527,-4.8147,0.0,0.0,0.0,0.0,0.0,0.0,-4.8169,-5.1106,-5.2487,-5.3539,-5.4213,-5.4031,-5.3618,-5.3003,-5.1605,-5.0563,-4.9709,-4.7682,-4.2216,-3.382,0.0,0.0,0.0,0.0,-4.5111,-4.8488,-5.2862,-5.5373,-5.5705,-5.7179,-5.8634,-6.0061,-6.124,-6.1461,-6.0609,-6.0651,-5.8965,-5.5343,-5.3013,0.0,0.0,0.0,0.0,0.0,0.0,0.0,0.0,0.0,0.0,0.0,0.0,0.0,0.0,0.0,0.0,0.0,0.0,0.0,-3.954,-3.9164,-3.8498,0.0,0.0,0.0,0.0,0.0,0.0,0.0,0.0,0.0,-4.5297,-4.4987,-4.4643,0.0,0.0,-4.7779,-4.7809,-4.8938,-4.977,-4.9877,0.0,0.0,0.0,-4.8833,-4.8287,-4.7644,-4.8257,-4.8425,-4.7439,-4.6791,-4.5738,-4.3514,-4.2369,-4.1142,-3.9803,-3.9546,-3.9482,-3.8768,-3.7992,-3.6841,-3.5045,-3.3577,-3.1801,0.0,0.0,0.0,0.0,0.0,0.0,0.0,0.0,-4.9319,-4.8143,0.0,-4.6872,0.0,0.0,0.0,0.0,0.0,0.0,0.0,0.0,-5.826,-5.9308,-5.5741,-5.4906,-5.4269,-5.3172,-4.854,-4.5835,-4.4791,-4.0109,0.0,0.0,0.0,0.0,0.0,0.0,-4.2094,-4.524,-4.9726,-5.2474,-5.3785,-5.4863,-5.6888,-5.9943,-6.1136,-6.1462,-6.1023,-5.7156,-5.4938,-5.4881,-4.9034,0.0,0.0,0.0,0.0,0.0,0.0,0.0,0.0,0.0,0.0,0.0,0.0,0.0,0.0,0.0,0.0,0.0,0.0,0.0,0.0,-3.6742,0.0,0.0,0.0,0.0,0.0,0.0,0.0,0.0,0.0,0.0,-4.734,-4.805,-4.8694,-4.9969,0.0,0.0,0.0,0.0,-5.0757,-5.1038,-5.1607,-5.1324,-4.9544,-5.0058,-4.9935,-4.7811,0.0,0.0,-4.7114,-4.6822,-4.573,-4.2807,-4.2375,-4.1195,-3.5469,-3.529,-3.6245,-3.6177,-3.5575,-3.4985,-3.2888,-2.9763,-2.7554,0.0,0.0,0.0,0.0,0.0,0.0,0.0,0.0,0.0,0.0,0.0,-4.198,0.0,0.0,0.0,0.0,0.0,0.0,0.0,0.0,-4.9678,-5.0047,-4.895,-4.9184,-4.8293,0.0,-4.4121,-4.0552,0.0,0.0,0.0,0.0,0.0,0.0,0.0,0.0,-4.0518,-4.3189,-4.8862,-5.2757,-5.4662,-5.6907,-5.8974,-6.0739,-6.1411,-6.042,-5.7626,-5.5519,-5.3128,0.0,0.0,0.0,0.0,0.0,0.0,0.0,0.0,0.0,0.0,0.0,0.0,0.0,0.0,0.0,0.0,0.0,0.0,0.0,0.0,0.0,0.0,0.0,-3.4559,0.0,0.0,0.0,0.0,0.0,0.0,0.0,0.0,0.0,-4.2815,-4.4205,-4.5332,-4.5931,-4.7095,-4.7948,-4.8199,0.0,0.0,0.0,0.0,0.0,0.0,0.0,-5.098,-5.0093,-4.9231,-4.8397,-4.751,-4.4929,-4.2434,-4.0585,0.0,0.0,-2.5521,-2.5112,-2.6092,-2.5502,-2.5334,-2.4783,-2.2582,-2.2393,-2.2113,0.0,0.0,0.0,0.0,0.0,0.0,0.0,0.0,0.0,-3.8549,-3.6427,0.0,0.0,0.0,0.0,0.0,0.0,0.0,0.0,0.0,0.0,0.0,-4.4307,-4.4429,0.0,0.0,0.0,0.0,0.0,0.0,0.0,0.0,0.0,0.0,0.0,0.0,-3.9639,-4.2009,-4.8726,-5.3206,-5.5145,-5.7984,-6.016,-6.1236,-6.2019,-6.0442,-5.6372,0.0,0.0,0.0,0.0,0.0,0.0,0.0,0.0,0.0,0.0,0.0,0.0,0.0,0.0,0.0,0.0,0.0,0.0,0.0,0.0,0.0,0.0,0.0,0.0,0.0,-3.2497,0.0,0.0,0.0,0.0,0.0,0.0,0.0,0.0,0.0,0.0,0.0,-4.3576,-4.5116,-4.7045,-4.8528,-4.9113,-5.0703,-5.2298,0.0,0.0,0.0,0.0,0.0,0.0,0.0,0.0,0.0,0.0,0.0,0.0,0.0,0.0,-2.1783,-1.3622,-1.3357,-1.4254,-1.3914,0.0,0.0,0.0,0.0,0.0,0.0,0.0,0.0,0.0,0.0,0.0,0.0,0.0,0.0,0.0,0.0,0.0,0.0,-3.0926,0.0,0.0,0.0,0.0,0.0,0.0,0.0,0.0,0.0,0.0,0.0,0.0,0.0,0.0,0.0,0.0,0.0,0.0,0.0,0.0,0.0,0.0,-3.9399,-4.1481,-4.9118,-5.3683,-5.5098,-5.7886,-6.0068,-6.139,-6.2745,-6.156,-5.7434,0.0,0.0,0.0,0.0,0.0,0.0,0.0,0.0,0.0,0.0,0.0,0.0,0.0,0.0,0.0,0.0,0.0,0.0,0.0,0.0,0.0,0.0,0.0,0.0,0.0,0.0,-2.5314,-2.3958,-2.4186,0.0,0.0,0.0,0.0,0.0,0.0,0.0,0.0,0.0,0.0,-4.971,-5.0835,-5.203,-5.3046,-5.3806,-5.466,-5.5555,-5.5447,-5.3386,-5.301,-5.1617,0.0,0.0,0.0,0.0,0.0,0.0,0.0,0.0,0.0,0.0,0.0,0.0,0.0,0.0,0.0,0.0,0.0,0.0,0.0,0.0,0.0,0.0,0.0,0.0,0.0,0.0,0.0,0.0,0.0,0.0,0.0,0.0,0.0,0.0,0.0,0.0,0.0,0.0,0.0,0.0,0.0,0.0,0.0,0.0,0.0,0.0,0.0,0.0,0.0,0.0,0.0,0.0,0.0,0.0,-3.8908,-4.2243,-4.9195,-5.3977,-5.6464,-5.9873,-6.1684,-6.1808,-6.1954,-5.962,0.0,0.0,0.0,0.0,0.0,0.0,0.0,0.0,0.0,0.0,0.0,0.0,0.0,0.0,0.0,0.0,0.0,0.0,0.0,0.0,0.0,0.0,0.0,0.0,0.0,0.0,0.0,0.0,-2.2089,-2.174,-2.1751,0.0,0.0,0.0,0.0,0.0,0.0,0.0,0.0,0.0,0.0,-4.9076,-5.2163,-5.2846,-5.281,-5.1991,-5.4534,-5.5614,-5.2936,-5.1763,-5.0007,-4.6589,0.0,0.0,0.0,0.0,0.0,0.0,0.0,0.0,0.0,0.0,0.0,0.0,0.0,0.0,0.0,0.0,0.0,0.0,0.0,0.0,0.0,0.0,0.0,0.0,0.0,0.0,0.0,0.0,0.0,0.0,0.0,0.0,0.0,0.0,0.0,0.0,0.0,0.0,0.0,0.0,0.0,0.0,0.0,0.0,0.0,0.0,0.0,0.0,0.0,0.0,0.0,0.0,0.0,-3.9178,-4.2309,-5.0198,-5.5338,-5.7535,-6.1266,-6.3314,-6.3341,-6.1801,-5.8429,0.0,0.0,0.0,0.0,0.0,0.0,0.0,0.0,0.0,0.0,0.0,0.0,0.0,0.0,0.0,0.0,0.0,0.0,0.0,0.0,0.0,0.0,0.0,0.0,0.0,0.0,0.0,0.0,-1.8194,-1.7459,-1.6212,0.0,0.0,0.0,0.0,0.0,0.0,0.0,0.0,0.0,0.0,-4.7416,-5.092,-5.1932,0.0,0.0,-5.2936,-5.4027,-5.1325,-4.9631,-4.737,-4.3448,-3.5927,0.0,0.0,0.0,0.0,0.0,0.0,0.0,0.0,0.0,0.0,0.0,0.0,0.0,0.0,0.0,0.0,0.0,0.0,0.0,0.0,0.0,0.0,0.0,0.0,0.0,0.0,0.0,0.0,0.0,0.0,0.0,0.0,0.0,0.0,0.0,0.0,0.0,0.0,0.0,0.0,0.0,0.0,0.0,0.0,0.0,0.0,0.0,0.0,0.0,0.0,0.0,0.0,0.0,-4.2331,-5.2001,-5.757,-5.8572,-6.2544,-6.4953,-6.5473,-6.2111,-5.7925,0.0,0.0,0.0,0.0,0.0,0.0,0.0,0.0,0.0,0.0,0.0,0.0,0.0,0.0,0.0,0.0,0.0,0.0,0.0,0.0,0.0,0.0,0.0,0.0,0.0,0.0,0.0,0.0,0.0,0.0,0.0,0.0,0.0,0.0,0.0,0.0,0.0,0.0,0.0,0.0,0.0,-4.6005,-4.9203,-5.0669,-5.1063,0.0,0.0,-5.1096,-4.8774,-4.6943,-4.3946,-3.8573,0.0,0.0,0.0,0.0,0.0,0.0,0.0,0.0,0.0,0.0,0.0,0.0,0.0,0.0,0.0,0.0,0.0,0.0,0.0,0.0,0.0,0.0,0.0,0.0,0.0,0.0,0.0,0.0,0.0,0.0,0.0,0.0,0.0,0.0,0.0,0.0,0.0,0.0,0.0,0.0,0.0,0.0,0.0,0.0,0.0,0.0,0.0,0.0,0.0,0.0,0.0,0.0,0.0,0.0,-4.5258,-5.4182,-6.0018,-6.2342,-6.5936,-6.7161,-6.5639,-6.219,0.0,0.0,0.0,0.0,0.0,0.0,0.0,0.0,0.0,0.0,0.0,0.0,0.0,0.0,0.0,0.0,0.0,0.0,0.0,0.0,0.0,0.0,0.0,0.0,0.0,0.0,0.0,-1.0072,0.0,0.0,0.0,0.0,0.0,0.0,0.0,0.0,0.0,0.0,0.0,0.0,0.0,0.0,-4.6215,-5.1406,-5.2754,-5.1807,0.0,0.0,-4.9537,-4.6862,-4.435,-4.0612,0.0,0.0,0.0,0.0,0.0,0.0,0.0,0.0,0.0,0.0,0.0,0.0,0.0,0.0,0.0,0.0,0.0,0.0,0.0,0.0,0.0,0.0,0.0,0.0,0.0,0.0,0.0,0.0,0.0,0.0,0.0,0.0,0.0,0.0,0.0,0.0,0.0,0.0,0.0,0.0,0.0,0.0,0.0,0.0,0.0,0.0,0.0,0.0,0.0,0.0,0.0,0.0,0.0,0.0,-4.1846,-4.7038,-5.5046,-6.1142,-6.5109,-6.8022,-6.8738,-6.7126,-6.2202,-5.6978,0.0,0.0,0.0,0.0,0.0,0.0,0.0,0.0,0.0,0.0,0.0,0.0,0.0,0.0,0.0,0.0,0.0,0.0,0.0,0.0,0.0,0.0,0.0,0.0,0.0,0.0,0.0,0.0,0.0,0.0,0.0,0.0,0.0,0.0,0.0,0.0,0.0,0.0,0.0,0.0,0.0,0.0,-4.9524,-4.9624,0.0,0.0,0.0,-4.2391,-3.8231,0.0,0.0,0.0,0.0,0.0,0.0,0.0,0.0,0.0,0.0,0.0,0.0,0.0,0.0,0.0,0.0,0.0,0.0,0.0,0.0,0.0,0.0,0.0,0.0,0.0,0.0,0.0,0.0,0.0,0.0,0.0,0.0,0.0,0.0,0.0,0.0,0.0,0.0,0.0,0.0,0.0,0.0,0.0,0.0,0.0,0.0,0.0,0.0,0.0,0.0,0.0,0.0,0.0,0.0,0.0,0.0,0.0,-4.7517,-5.5126,-6.1521,-6.6466,-6.9071,-6.9804,-6.8677,-6.2451,-5.6879,0.0,0.0,0.0,0.0,0.0,0.0,0.0,0.0,0.0,0.0,0.0,0.0,0.0,0.0,0.0,0.0,0.0,0.0,0.0,0.0,0.0,0.0,0.0,0.0,0.0,0.0,0.0,0.0,0.0,0.0,0.0,0.0,0.0,0.0,0.0,0.0,0.0,0.0,0.0,0.0,0.0,-3.8651,-4.4851,-4.3313,-4.0702,0.0,0.0,-3.1491,-2.6312,-2.3374,0.0,0.0,0.0,0.0,0.0,0.0,0.0,0.0,0.0,0.0,0.0,0.0,0.0,0.0,0.0,0.0,0.0,0.0,0.0,0.0,0.0,0.0,0.0,0.0,0.0,0.0,0.0,0.0,0.0,0.0,0.0,0.0,0.0,0.0,0.0,0.0,0.0,0.0,0.0,0.0,0.0,0.0,0.0,0.0,0.0,0.0,0.0,0.0,0.0,0.0,0.0,0.0,0.0,0.0,0.0,0.0,-4.5644,-5.4919,-6.1319,-6.4456,-6.8816,-6.9819,-6.7184,-6.3268,-5.8364,0.0,0.0,0.0,0.0,0.0,0.0,0.0,0.0,0.0,0.0,0.0,0.0,0.0,0.0,0.0,0.0,0.0,0.0,0.0,0.0,0.0,0.0,0.0,0.0,0.0,0.0,0.0,0.0,0.0,0.0,0.0,0.0,0.0,0.0,0.0,0.0,0.0,0.0,0.0,0.0,0.0,-3.433,-3.8344,-3.6125,0.0,0.0,0.0,0.0,-1.6448,-1.2218,0.0,0.0,0.0,0.0,0.0,0.0,0.0,0.0,0.0,0.0,0.0,0.0,0.0,0.0,0.0,0.0,0.0,0.0,0.0,0.0,0.0,0.0,0.0,0.0,0.0,0.0,0.0,0.0,0.0,0.0,0.0,0.0,0.0,0.0,0.0,0.0,0.0,0.0,0.0,0.0,0.0,0.0,0.0,0.0,0.0,0.0,0.0,0.0,0.0,0.0,0.0,0.0,0.0,0.0,0.0,0.0,-4.6238,-5.3653,-5.9907,-6.4896,-6.8546,-6.8952,-6.6007,-6.2933,-5.8069,0.0,0.0,0.0,0.0,0.0,0.0,0.0,0.0,0.0,0.0,0.0,0.0,0.0,0.0,0.0,0.0,0.0,0.0,0.0,0.0,0.0,0.0,0.0,0.0,0.0,0.0,0.0,0.0,0.0,0.0,0.0,0.0,0.0,0.0,0.0,0.0,0.0,0.0,0.0,0.0,-2.1856,-2.4782,-2.7482,0.0,0.0,0.0,0.0,0.0,0.0,-0.0222,0.5063,0.0,0.0,0.0,0.0,0.0,0.0,0.0,0.0,0.0,0.0,0.0,0.0,0.0,0.0,0.0,0.0,0.0,0.0,0.0,0.0,0.0,0.0,0.0,0.0,0.0,0.0,0.0,0.0,0.0,0.0,0.0,0.0,0.0,0.0,0.0,0.0,0.0,0.0,0.0,0.0,0.0,0.0,0.0,0.0,0.0,0.0,0.0,0.0,0.0,0.0,0.0,0.0,0.0,0.0,0.0,-4.6032,-5.1712,-5.7876,-6.4613,-6.7785,-6.7961,-6.4966,-6.2327,-5.635,-4.6592,0.0,0.0,0.0,0.0,0.0,0.0,0.0,0.0,0.0,0.0,0.0,0.0,0.0,0.0,0.0,0.0,0.0,0.0,0.0,0.0,0.0,0.0,0.0,0.0,0.0,0.0,0.0,0.0,0.0,0.0,0.0,0.0,0.0,0.0,0.0,0.0,0.0,0.0,0.0,-1.1249,-1.3449,0.0,0.0,0.0,0.0,0.0,0.0,0.0,0.0,1.5818,0.0,0.0,0.0,0.0,0.0,0.0,0.0,0.0,0.0,0.0,0.0,0.0,0.0,0.0,0.0,0.0,0.0,0.0,0.0,0.0,0.0,0.0,0.0,0.0,0.0,0.0,0.0,0.0,0.0,0.0,0.0,0.0,0.0,0.0,0.0,0.0,0.0,0.0,0.0,0.0,0.0,0.0,0.0,0.0,0.0,0.0,0.0,0.0,0.0,0.0,0.0,0.0,0.0,0.0,0.0,0.0,-4.9618,-5.586,-5.8524,-6.5599,-6.7677,-6.4082,-6.226,-5.2729,-3.4711,0.0,0.0,0.0,0.0,0.0,0.0,0.0,0.0,0.0,0.0,0.0,0.0,0.0,0.0,0.0,0.0,0.0,0.0,0.0,0.0,0.0,0.0,0.0,0.0,0.0,0.0,0.0,0.0,0.0,0.0,0.0,0.0,0.0,0.0,0.0,0.0,0.0,0.0,0.4577,-0.0321,0.0,0.0,0.0,0.0,0.0,0.0,0.0,0.0,2.1637,0.0,0.0,0.0,0.0,0.0,0.0,0.0,0.0,0.0,0.0,0.0,0.0,0.0,0.0,0.0,0.0,0.0,0.0,0.0,0.0,0.0,0.0,0.0,0.0,0.0,0.0,0.0,0.0,0.0,0.0,0.0,0.0,0.0,0.0,0.0,0.0,0.0,0.0,0.0,0.0,0.0,0.0,0.0,0.0,0.0,0.0,0.0,0.0,0.0,0.0,0.0,0.0,0.0,0.0,0.0,0.0,0.0,0.0,-5.4043,-5.7598,-6.4799,-6.7098,-6.3962,-5.9893,-4.633,0.0,0.0,0.0,0.0,0.0,0.0,0.0,0.0,0.0,0.0,0.0,0.0,0.0,0.0,0.0,0.0,0.0,0.0,0.0,0.0,0.0,0.0,0.0,0.0,0.0,0.0,0.0,0.0,0.0,0.0,0.0,0.0,0.0,0.0,0.0,0.0,0.0,0.0,0.0,0.0,0.0,0.0,0.0,0.0,0.0,0.0,0.0,0.0,0.0,0.0,0.0,0.0,0.0,0.0,0.0,0.0,0.0,0.0,0.0,0.0,0.0,0.0,0.0,0.0,0.0,0.0,0.0,0.0,0.0,0.0,0.0,0.0,0.0,0.0,0.0,0.0,0.0,0.0,0.0,0.0,0.0,0.0,0.0,0.0,0.0,0.0,0.0,0.0,0.0,0.0,0.0,0.0,0.0,0.0,0.0,0.0,0.0,0.0,0.0,0.0,0.0,0.0,0.0,0.0,0.0,0.0,0.0,0.0,-5.234,-5.7467,-6.3641,-6.6005,-6.416,-5.5078,-3.8537,0.0,0.0,0.0,0.0,0.0,0.0,0.0,0.0,0.0,0.0,0.0,0.0,0.0,0.0,0.0,0.0,0.0,0.0,0.0,0.0,0.0,0.0,0.0,0.0,0.0,0.0,0.0,0.0,0.0,0.0,0.0,0.0,0.0,0.0,0.0,0.0,0.0,0.0,0.0,0.0,0.0,0.0,0.0,0.0,0.0,0.0,0.0,0.0,2.7521,0.0,0.0,0.0,0.0,0.0,0.0,0.0,0.0,0.0,0.0,0.0,0.0,0.0,0.0,0.0,0.0,0.0,0.0,0.0,0.0,0.0,0.0,0.0,0.0,0.0,0.0,0.0,0.0,0.0,0.0,0.0,0.0,0.0,0.0,0.0,0.0,0.0,0.0,0.0,0.0,0.0,0.0,0.0,0.0,0.0,0.0,0.0,0.0,0.0,0.0,0.0,0.0,0.0,0.0,0.0,0.0,0.0,0.0,0.0,-5.0679,-5.5597,-6.0899,-6.3822,-6.3605,-4.6275,-2.9185,0.0,0.0,0.0,0.0,0.0,0.0,0.0,0.0,0.0,0.0,0.0,0.0,0.0,0.0,0.0,0.0,0.0,0.0,0.0,0.0,0.0,0.0,0.0,0.0,0.0,0.0,0.0,0.0,0.0,0.0,0.0,0.0,0.0,0.0,0.0,0.0,0.0,0.0,0.0,0.0,0.0,0.0,0.0,0.0,0.0,0.0,0.0,0.0,0.0,0.0,0.0,0.0,0.0,0.0,0.0,0.0,0.0,0.0,0.0,0.0,0.0,0.0,0.0,0.0,0.0,0.0,0.0,0.0,0.0,0.0,0.0,0.0,0.0,0.0,0.0,0.0,0.0,0.0,0.0,0.0,0.0,0.0,0.0,0.0,0.0,0.0,0.0,0.0,0.0,0.0,0.0,0.0,0.0,0.0,0.0,0.0,0.0,0.0,0.0,0.0,0.0,0.0,0.0,0.0,0.0,0.0,0.0,0.0,-4.804,-5.4826,-5.9527,-6.0464,-5.7299,-4.1891,-2.68,0.0,0.0,0.0,0.0,0.0,0.0,0.0,0.0,0.0,0.0,0.0,0.0,0.0,0.0,0.0,0.0,0.0,0.0,0.0,0.0,0.0,0.0,0.0,0.0,0.0,0.0,0.0,0.0,0.0,0.0,0.0,0.0,0.0,0.0,0.0,0.0,0.0,0.0,0.0,0.0,0.0,0.0,0.0,0.0,0.0,0.0,0.0,0.0,0.0,0.0,0.0,0.0,0.0,0.0,0.0,0.0,0.0,0.0,0.0,0.0,0.0,0.0,0.0,0.0,0.0,0.0,0.0,0.0,0.0,0.0,0.0,0.0,0.0,0.0,0.0,0.0,0.0,0.0,0.0,0.0,0.0,0.0,0.0,0.0,0.0,0.0,0.0,0.0,0.0,0.0,0.0,0.0,0.0,0.0,0.0,0.0,0.0,0.0,0.0,0.0,0.0,0.0,0.0,0.0,0.0,0.0,0.0,0.0,0.0,-5.2683,-5.4723,-5.3474,-4.873,-3.4605,-2.1372,0.0,0.0,0.0,0.0,0.0,0.0,0.0,0.0,0.0,0.0,0.0,0.0,0.0,0.0,0.0,0.0,0.0,0.0,0.0,0.0,0.0,0.0,0.0,0.0,0.0,0.0,0.0,0.0,0.0,0.0,0.0,0.0,0.0,0.0,0.0,0.0,0.0,0.0,0.0,0.0,0.0,0.0,0.0,0.0,0.0,0.0,0.0,0.0,0.0,0.0,0.0,0.0,0.0,0.0,0.0,0.0,0.0,0.0,0.0,0.0,0.0,0.0,0.0,0.0,0.0,0.0,0.0,0.0,0.0,0.0,0.0,0.0,0.0,0.0,0.0,0.0,0.0,0.0,0.0,0.0,0.0,0.0,0.0,0.0,0.0,0.0,0.0,0.0,0.0,0.0,0.0,0.0,0.0,0.0,0.0,0.0,0.0,0.0,0.0,0.0,0.0,0.0,0.0,0.0,0.0,0.0,0.0,0.0,0.0,-4.8848,-4.4133,-4.106,-3.9566,-2.1578,-0.9228,0.0,0.0,0.0,0.0,0.0,0.0,0.0,0.0,0.0,0.0,0.0,0.0,0.0,0.0,0.0,0.0,0.0,0.0,0.0,0.0,0.0,0.0,0.0,0.0,0.0,0.0,0.0,0.0,0.0,0.0,0.0,0.0,0.0,0.0,0.0,0.0,0.0,0.0,0.0,0.0,0.0,0.0,0.0,0.0,0.0,0.0,0.0,0.0,0.0,0.0,0.0,0.0,0.0,0.0,0.0,0.0,0.0,0.0,0.0,0.0,0.0,0.0,0.0,0.0,0.0,0.0,0.0,0.0,0.0,0.0,0.0,0.0,0.0,0.0,0.0,0.0,0.0,0.0,0.0,0.0,0.0,0.0,0.0,0.0,0.0,0.0,0.0,0.0,0.0,0.0,0.0,0.0,0.0,0.0,0.0,0.0,0.0,0.0,0.0,0.0,0.0,0.0,0.0,0.0,0.0,0.0,0.0,0.0,0.0,-3.4231,-3.3524,-3.1322,-2.76,-1.4461,-0.4949,0.0294,0.0,0.0,0.0,0.0,0.0,0.0,0.0,0.0,0.0,0.0,0.0,0.0,0.0,0.0,0.0,0.0,0.0,0.0,0.0,0.0,0.0,0.0,0.0,0.0,0.0,0.0,0.0,0.0,0.0,0.0,0.0,0.0,0.0,0.0,0.0,0.0,0.0,0.0,0.0,0.0,0.0,0.0,0.0,0.0,0.0,0.0,0.0,0.0,0.0,0.0,0.0,0.0,0.0,0.0,0.0,0.0,0.0,0.0,0.0,0.0,0.0,0.0,0.0,0.0,0.0,0.0,0.0,0.0,0.0,0.0,0.0,0.0,0.0,0.0,0.0,0.0,0.0,0.0,0.0,0.0,0.0,0.0,0.0,0.0,0.0,0.0,0.0,0.0,0.0,0.0,0.0,0.0,0.0,0.0,0.0,0.0,0.0,0.0,0.0,0.0,0.0,0.0,0.0,0.0,0.0,0.0,0.0,0.0,-2.0397,-2.1726,-2.0017,-1.476,-0.6242,0.066,0.0,0.0,0.0,0.0,0.0,0.0,0.0,0.0,0.0,0.0,0.0,0.0,0.0,0.0,0.0,0.0,0.0,0.0,0.0,0.0,0.0,0.0,0.0,0.0,0.0,0.0,0.0,0.0,0.0,0.0,0.0,0.0,0.0,0.0,0.0,0.0,0.0,0.0,0.0,0.0,0.0,0.0,0.0,0.0,0.0,0.0,0.0,0.0,0.0,0.0,0.0,0.0,0.0,0.0,0.0,0.0,0.0,0.0,0.0,0.0,0.0,0.0,0.0,0.0,0.0,0.0,0.0,0.0,0.0,0.0,0.0,0.0,0.0,0.0,0.0,0.0,0.0,0.0,0.0,0.0,0.0,0.0,0.0,0.0,0.0,0.0,0.0,0.0,0.0,0.0,0.0,0.0,0.0,0.0,0.0,0.0,0.0,0.0,0.0,0.0,0.0,0.0,0.0,0.0,0.0,0.0,0.0,0.0,-0.2489,-0.8187,-0.8592,-0.6561,-0.2003,0.3845,0.8702,0.0,0.0,0.0,0.0,0.0,0.0,0.0,0.0,0.0,0.0,0.0,0.0,0.0,0.0,0.0,0.0,0.0,0.0,0.0,0.0,0.0,0.0,0.0,0.0,0.0,0.0,0.0,0.0,0.0,0.0,0.0,0.0,0.0,0.0,0.0,0.0,0.0,0.0,0.0,0.0,0.0,0.0,0.0,0.0,0.0,0.0,0.0,0.0,0.0,0.0,0.0,0.0,0.0,0.0,0.0,0.0,0.0,0.0,0.0,0.0,0.0,0.0,0.0,0.0,0.0,0.0,0.0,0.0,0.0,0.0,0.0,0.0,0.0,0.0,0.0,0.0,0.0,0.0,0.0,0.0,0.0,0.0,0.0,0.0,0.0,0.0,0.0,0.0,0.0,0.0,0.0,0.0,0.0,0.0,0.0,0.0,0.0,0.0,0.0,0.0,0.0,0.0,0.0,0.0,0.0,0.0,0.0,0.0,0.0,0.1971,0.0,0.4209,0.0,1.1489,1.4688,0.0,0.0,0.0,0.0,0.0,0.0,0.0,0.0,0.0,0.0,0.0,0.0,0.0,0.0,0.0,0.0,0.0,0.0,0.0,0.0,0.0,0.0,0.0,0.0,0.0,0.0,0.0,0.0,0.0,0.0,0.0,0.0,0.0,0.0,0.0,0.0,0.0,0.0,0.0,0.0,0.0,0.0,0.0,0.0,0.0,0.0,0.0,0.0,0.0,0.0,0.0,0.0,0.0,0.0,0.0,0.0,0.0,0.0,0.0,0.0,0.0,0.0,0.0,0.0,0.0,0.0,0.0,0.0,0.0,0.0,0.0,0.0,0.0,0.0,0.0,0.0,0.0,0.0,0.0,0.0,0.0,0.0,0.0,0.0,0.0,0.0,0.0,0.0,0.0,0.0,0.0,0.0,0.0,0.0,0.0,0.0,0.0,0.0,0.0,0.0,0.0,0.0,0.0,0.0,0.0,0.0,0.0,0.0,0.0,1.0283,1.0711,1.2644,1.589,1.8559,2.045,0.0,0.0,0.0,0.0,0.0,0.0,0.0,0.0,0.0,0.0,0.0,0.0,0.0,0.0,0.0,0.0,0.0,0.0,0.0,0.0,0.0,0.0,0.0,0.0,0.0,0.0,0.0,0.0,0.0,0.0,0.0,0.0,0.0,0.0,0.0,0.0,0.0,0.0,0.0,0.0,0.0,0.0,0.0,0.0,0.0,0.0,0.0,0.0,0.0,0.0,0.0,0.0,0.0,0.0,0.0,0.0,0.0,0.0,0.0,0.0,0.0,0.0,0.0,0.0,0.0,0.0,0.0,0.0,0.0,0.0,0.0,0.0,0.0,0.0,0.0,0.0,0.0,0.0,0.0,0.0,0.0,0.0,0.0,0.0,0.0,0.0,0.0,0.0,0.0,0.0,0.0,0.0,0.0,0.0,0.0,0.0,0.0,0.0,0.0,0.0,0.0,0.0,0.0,0.0,0.0,0.0,0.0,0.0,0.0,0.0,1.8225,1.9055,1.9404,2.4906,2.5812,0.0,0.0,0.0,0.0,0.0,0.0,0.0,0.0,0.0,0.0,0.0,0.0,0.0,0.0,0.0,0.0,0.0,0.0,0.0,0.0,0.0,0.0,0.0,0.0,0.0,0.0,0.0,0.0,0.0,0.0,0.0,0.0,0.0,0.0,0.0,0.0,0.0,0.0,0.0,0.0,0.0,0.0,0.0,0.0,0.0,0.0,0.0,0.0,0.0,0.0,0.0,0.0,0.0,0.0,0.0,0.0,0.0,0.0,0.0,0.0,0.0,0.0,0.0,0.0,0.0,0.0,0.0,0.0,0.0,0.0,0.0,0.0,0.0,0.0,0.0,0.0,0.0,0.0,0.0,0.0,0.0,0.0,0.0,0.0,0.0,0.0,0.0,0.0,0.0,0.0,0.0,0.0,0.0,0.0,0.0,0.0,0.0,0.0,0.0,0.0,0.0,0.0,0.0,0.0,0.0,0.0,0.0,0.0,0.0,0.0,2.4417,0.0,2.5459,2.6941,2.7554,2.7163,0.0,0.0,0.0,0.0,0.0,0.0,0.0,0.0,0.0,0.0,0.0,0.0,0.0,0.0,0.0,0.0,0.0,0.0,0.0,0.0,0.0,0.0,0.0,0.0,0.0,0.0,0.0,0.0,0.0,0.0,0.0,0.0,0.0,0.0,0.0,0.0,0.0,0.0,0.0,0.0,0.0,0.0,0.0,0.0,0.0,0.0,0.0,0.0,0.0,0.0,0.0,0.0,0.0,0.0,0.0,0.0,0.0,0.0,0.0,0.0,0.0,0.0,0.0,0.0,0.0,0.0,0.0,0.0,0.0,0.0,0.0,0.0,0.0,0.0,0.0,0.0,0.0,0.0,0.0,0.0,0.0,0.0,0.0,0.0,0.0,0.0,0.0,0.0,0.0,0.0,0.0,0.0,0.0,0.0,0.0,0.0,0.0,0.0,0.0,0.0,0.0,0.0,0.0,0.0,0.0,0.0,0.0,0.0,0.0,0.0,0.0,2.745,2.7295,2.7523,0.0,0.0,0.0,0.0,0.0,0.0,0.0,0.0,0.0,0.0,0.0,0.0,0.0,0.0,0.0,0.0,0.0,0.0,0.0,0.0,0.0,0.0,0.0,0.0,0.0,0.0,0.0,0.0,0.0,0.0,0.0,0.0,0.0,0.0,0.0,0.0,0.0,0.0,0.0,0.0,0.0,0.0,0.0,0.0,0.0,0.0,0.0,0.0,0.0,0.0,0.0,0.0,0.0,0.0,0.0,0.0,0.0,0.0,0.0,0.0,0.0,0.0,0.0,0.0,0.0,0.0,0.0,0.0,0.0,0.0,0.0,0.0,0.0,0.0,0.0,0.0,0.0,0.0,0.0,0.0,0.0,0.0,0.0,0.0,0.0,0.0,0.0,0.0,0.0,0.0,0.0,0.0,0.0,0.0,0.0,0.0,0.0,0.0,0.0,0.0,0.0,0.0,0.0,0.0,0.0,0.0,0.0,0.0,0.0,0.0,0.0,2.6859,2.7347,2.6859,0.0,2.7564,0.0,0.0,0.0,0.0,0.0,0.0,0.0,0.0,0.0,0.0,0.0,0.0,0.0,0.0,0.0,0.0,0.0,0.0,0.0,0.0,0.0,0.0,0.0,0.0,0.0,0.0,0.0,0.0,0.0,0.0,0.0,0.0,0.0,0.0,0.0,0.0,0.0,0.0,0.0,0.0,0.0,0.0,0.0,0.0,0.0,0.0,0.0,0.0,0.0,0.0,0.0,0.0,0.0,0.0,0.0,0.0,0.0,0.0,0.0,0.0,0.0,0.0,0.0,0.0,0.0,0.0,0.0,0.0,0.0,0.0,0.0,0.0,0.0,0.0,0.0,0.0,0.0,0.0,0.0,0.0,0.0,0.0,0.0,0.0,0.0,0.0,0.0,0.0,0.0,0.0,0.0,0.0,0.0,0.0,0.0,0.0,0.0,0.0,0.0,0.0,0.0,0.0,0.0,0.0,0.0,0.0,0.0,0.0,0.0,0.0,0.0,0.0,2.9065,2.8976,3.1349,0.0,0.0,0.0,0.0,0.0,0.0,0.0,0.0,0.0,0.0,0.0,0.0,0.0,0.0,0.0,0.0,0.0,0.0,0.0,0.0,0.0,0.0,0.0,0.0,0.0,0.0,0.0,0.0,0.0,0.0,0.0,0.0,0.0,0.0,0.0,0.0,0.0,0.0,0.0,0.0,0.0,0.0,0.0,0.0,0.0,0.0,0.0,0.0,0.0,0.0,0.0,0.0,0.0,0.0,0.0,0.0,0.0,0.0,0.0,0.0,0.0,0.0,0.0,0.0,0.0,0.0,0.0,0.0,0.0,0.0,0.0,0.0,0.0,0.0,0.0,0.0,0.0,0.0,0.0,0.0,0.0,0.0,0.0,0.0,0.0,0.0,0.0,0.0,0.0,0.0,0.0,0.0,0.0,0.0,0.0,0.0,0.0,0.0,0.0,0.0,0.0,0.0,0.0,0.0,0.0,0.0,0.0,0.0,0.0,0.0,2.8506,3.1569,2.9239,2.9415,3.2555,0.0,0.0,0.0,0.0,0.0,0.0,0.0,0.0,0.0,0.0,0.0,0.0,0.0,0.0,0.0,0.0,0.0,0.0,0.0,0.0,0.0,0.0,0.0,0.0,0.0,0.0,0.0,0.0,0.0,0.0,0.0,0.0,0.0,0.0,0.0,0.0,0.0,0.0,0.0,0.0,0.0,0.0,0.0,0.0,0.0,0.0,0.0,0.0,0.0,0.0,0.0,0.0,0.0,0.0,0.0,0.0,0.0,0.0,0.0,0.0,0.0,0.0,0.0,0.0,0.0,0.0,0.0,0.0,0.0,0.0,0.0,0.0,0.0,0.0,0.0,0.0,0.0,0.0,0.0,0.0,0.0,0.0,0.0,0.0,0.0,0.0,0.0,0.0,0.0,0.0,0.0,0.0,0.0,0.0,0.0,0.0,0.0,0.0,0.0,0.0,0.0,0.0,0.0,0.0,0.0,0.0,0.0,0.0,0.0,0.0,0.0,0.0,0.0,0.0,3.2149,0.0,0.0,0.0,0.0,0.0,0.0,0.0,0.0,0.0,0.0,0.0,0.0,0.0,0.0,0.0,0.0,0.0,0.0,0.0,0.0,0.0,0.0,0.0,0.0,0.0,0.0,0.0,0.0,0.0,0.0,0.0,0.0,0.0,0.0,0.0,0.0,0.0,0.0,0.0,0.0,0.0,0.0,0.0,0.0,0.0,0.0,0.0,0.0,0.0,0.0,0.0,0.0,0.0,0.0,0.0,0.0,0.0,0.0,0.0,0.0,0.0,0.0,0.0,0.0,0.0,0.0,0.0,0.0,0.0,0.0,0.0,0.0,0.0,0.0,0.0,0.0,0.0,0.0,0.0,0.0,0.0,0.0,0.0,0.0,0.0,0.0,0.0,0.0,0.0,0.0,0.0,0.0,0.0,0.0,0.0,0.0,0.0,0.0,0.0,0.0,0.0,0.0,0.0,0.0,0.0,0.0,0.0,0.0,0.0,0.0,0.0,0.0,0.0,0.0,0.0,0.0,0.0,0.0,0.0,0.0,0.0,0.0,0.0,0.0,0.0,0.0,0.0,0.0,0.0,0.0,0.0,0.0,0.0,0.0,0.0,0.0,0.0,0.0,0.0,0.0,0.0,0.0,0.0,0.0,0.0,0.0,0.0,0.0,0.0,0.0,0.0,0.0,0.0,0.0,0.0,0.0,0.0,0.0,0.0,0.0,0.0,0.0,0.0,0.0,0.0,0.0,0.0,0.0,0.0,0.0,0.0,0.0,0.0,0.0,0.0,0.0,0.0,0.0,0.0,0.0,0.0,0.0,0.0,0.0,0.0,0.0,0.0,0.0,0.0,0.0,0.0,0.0,0.0,0.0,0.0,0.0,0.0,0.0,0.0,0.0,0.0,0.0,0.0,0.0,0.0,0.0,0.0,0.0,0.0,0.0,0.0,0.0,0.0,0.0,0.0,0.0,0.0,0.0,0.0,0.0,0.0,0.0,0.0,0.0,0.0,0.0,0.0,0.0,0.0,0.0,0.0,0.0,0.0,0.0,0.0,0.0,0.0,0.0,0.0,0.0,0.0,0.0,0.0,0.0,0.0,0.0,0.0,0.0,0.0,0.0,0.0,0.0,0.0,0.0,0.0,0.0,0.0,0.0,0.0,0.0,0.0,0.0,0.0,0.0,0.0,0.0,0.0,0.0,0.0,0.0,0.0,0.0,0.0,0.0,0.0,0.0,0.0,0.0,0.0,0.0,0.0,0.0,0.0,0.0,0.0,0.0,0.0,0.0,0.0,0.0,0.0,0.0,0.0,0.0,0.0,0.0,0.0,0.0,0.0,0.0,0.0,0.0,0.0,0.0,0.0,0.0,0.0,0.0,0.0,0.0,0.0,0.0,0.0,0.0,0.0,0.0,0.0,0.0,0.0,0.0,0.0,0.0,0.0,0.0,0.0,0.0,0.0,0.0,0.0,0.0,0.0,0.0,0.0,0.0,0.0,0.0,0.0,0.0,0.0,0.0,0.0,0.0,0.0,0.0,0.0,0.0,0.0,0.0,0.0,0.0,0.0,0.0,0.0,0.0,0.0,0.0,0.0,0.0,0.0,0.0,0.0,0.0,0.0,0.0,0.0,0.0,0.0,0.0,0.0,0.0,0.0,0.0,0.0,0.0,0.0,0.0,0.0,0.0,0.0,0.0,0.0,0.0,0.0,0.0,0.0,0.0,0.0,0.0,0.0,0.0,0.0,0.0,0.0,0.0,0.0,0.0,0.0,0.0,0.0,0.0,0.0,0.0,0.0,0.0,0.0,0.0,0.0,0.0,0.0,0.0,0.0,0.0,0.0,0.0,0.0,0.0,0.0,0.0,0.0,0.0,0.0,0.0,0.0,0.0,0.0,0.0,0.0,0.0,0.0,0.0,0.0,0.0,0.0,0.0,0.0,0.0,0.0,0.0,0.0,0.0,0.0,0.0,0.0,0.0,0.0,0.0,0.0,0.0,0.0,0.0,0.0,0.0,0.0,0.0,0.0,0.0,0.0,0.0,0.0,0.0,0.0,0.0,0.0,0.0,0.0,0.0,0.0,0.0,0.0,0.0,0.0,0.0,0.0,0.0,0.0,0.0,0.0,0.0,0.0,0.0,0.0,0.0,0.0,0.0,0.0,0.0,0.0,0.0,0.0,0.0,0.0,0.0,0.0,0.0,0.0,0.0,0.0,0.0,0.0,0.0,0.0,0.0,0.0,0.0,0.0,0.0,0.0,0.0,0.0,0.0,0.0,0.0,0.0,0.0,0.0,0.0,0.0,0.0,0.0,0.0,0.0,0.0,0.0,0.0,0.0,0.0,0.0,0.0,0.0,0.0,0.0,0.0,0.0,0.0,0.0,0.0,0.0,0.0,0.0,0.0,0.0,0.0,0.0,0.0,0.0,0.0,0.0,0.0,0.0,0.0,0.0,0.0,0.0,0.0,0.0,0.0,0.0,0.0,0.0,0.0,0.0,0.0,0.0,0.0,0.0,0.0,0.0,0.0,0.0,0.0,0.0,0.0,0.0,0.0,0.0,0.0,0.0,0.0,0.0,0.0,0.0,0.0,0.0,0.0,0.0,0.0,0.0,0.0,0.0,0.0,0.0,0.0,0.0,0.0,0.0,0.0,0.0,0.0,0.0,0.0,0.0,0.0,0.0,0.0,0.0,0.0,0.0,0.0,0.0,0.0,0.0,0.0,0.0,0.0,0.0,0.0,0.0,0.0,0.0,0.0,0.0,0.0,0.0,0.0,0.0,0.0,0.0,0.0,0.0,0.0,0.0,0.0,0.0,0.0,0.0,0.0,0.0,0.0,0.0,0.0,0.0,0.0,0.0,0.0,0.0,0.0,0.0,0.0,0.0,0.0,0.0,0.0,0.0,0.0,0.0,0.0,0.0,0.0,0.0,0.0,0.0,0.0,0.0,0.0,0.0,0.0,0.0,0.0,0.0,0.0,0.0,0.0,0.0,0.0,0.0,0.0,0.0,0.0,0.0,0.0,0.0,0.0,0.0,0.0,0.0,0.0,0.0,0.0,0.0,0.0,0.0,0.0,0.0,0.0,0.0,0.0,0.0,0.0,0.0,0.0,0.0,0.0,0.0,0.0,0.0,0.0,0.0,0.0,0.0,0.0,0.0,0.0,0.0,0.0,0.0,0.0,0.0,0.0,0.0,0.0,0.0,0.0,0.0,0.0,0.0,0.0,0.0,0.0,0.0,0.0,0.0,0.0,0.0,0.0,0.0,0.0,0.0,0.0,0.0,0.0,0.0,0.0,0.0,0.0,0.0,0.0,0.0,0.0,0.0,0.0,0.0,0.0,0.0,0.0,0.0,0.0,0.0,0.0,0.0,0.0,0.0,0.0,0.0,0.0,0.0,0.0,0.0,0.0,0.0,0.0,0.0,0.0,0.0,0.0,0.0,0.0,0.0,0.0,0.0,0.0,0.0,0.0,0.0,0.0,0.0,0.0,0.0,0.0,0.0,0.0,0.0,0.0,0.0,0.0,0.0,0.0,0.0,0.0,0.0,0.0,0.0,0.0,0.0,0.0,0.0,0.0,0.0,0.0,0.0,0.0,0.0,0.0,0.0,0.0,0.0,0.0,0.0,0.0,0.0,0.0,0.0,0.0,0.0,0.0,0.0,0.0,0.0,0.0,0.0,0.0,0.0,0.0,0.0,0.0,0.0,0.0,0.0,0.0,0.0,0.0,0.0,0.0,0.0,0.0,0.0,0.0,0.0,0.0,0.0,0.0,0.0,0.0,0.0,0.0,0.0,0.0,0.0,0.0,0.0,0.0,0.0,0.0,0.0,0.0,0.0,0.0,0.0,0.0,0.0,0.0,0.0,0.0,0.0,0.0,0.0,0.0,0.0,0.0,0.0,0.0,0.0,0.0,0.0,0.0,0.0,0.0,0.0,0.0,0.0,0.0,0.0,0.0,0.0,0.0,0.0,0.0,0.0,0.0,0.0,0.0,0.0,0.0,0.0,0.0,0.0,0.0,0.0,0.0,0.0,0.0,0.0,0.0,0.0,0.0,0.0,0.0,0.0,0.0,0.0,0.0,0.0,0.0,0.0,0.0,0.0,0.0,0.0,0.0,0.0,0.0,0.0,0.0,0.0,0.0,0.0,0.0,0.0,0.0,0.0,0.0,0.0,0.0,0.0,0.0,0.0,0.0,0.0,0.0,0.0,0.0,0.0,0.0,0.0,0.0,0.0,0.0,0.0,0.0,0.0,0.0,0.0,0.0,0.0,0.0,0.0,0.0,0.0,0.0,0.0,0.0,0.0,0.0,0.0,0.0,0.0,0.0,0.0,0.0,0.0,0.0,0.0,0.0,0.0,0.0,0.0,0.0,0.0,0.0]}],[{"header":{"parameterUnit":"kt","parameterCategory":2,"dx":1,"dy":1,"la1":29.587661999999998,"la2":31.0,"lo1":-88.76705300000003,"lo2":-86.6583820000003,"nx":115,"ny":88,"refTime":"2022-10-03T12:00:00:Z","depth":0,"parameterNumber":2,"parameterNumberName":"V-component_of_WINDS"},"data":[11.8186,11.8186,11.8186,11.8186,11.841,11.963,12.0266,12.0789,12.3608,12.4168,12.3634,12.5565,12.6524,12.5154,12.686,12.7883,12.7745,12.8007,12.8057,12.8057,12.8057,12.8057,12.8069,12.7932,12.7059,12.6336,12.5426,12.3596,12.2254,12.0857,11.9221,11.7406,11.7212,11.7119,11.7119,11.6852,11.6734,11.7184,11.7212,11.7091,11.724,11.7414,11.7414,11.7414,11.7414,11.7414,11.7414,11.7414,11.7414,11.7414,11.7414,11.7414,11.7414,11.7414,11.7414,11.7414,11.7414,11.7414,11.7414,11.7267,11.7119,11.6667,11.6509,11.6091,11.5525,11.5211,11.5138,11.4887,11.4592,11.3891,11.2918,11.2877,11.1794,11.054,10.9768,10.9195,10.8655,10.8569,10.8213,10.7742,10.7528,10.7242,10.6957,10.66,10.66,10.6743,10.6921,10.7563,10.767,10.7884,10.817,10.767,10.7171,10.6386,10.5637,10.5458,10.5601,10.6029,10.5958,10.4959,10.4103,10.3455,10.3384,10.3384,10.3384,10.3384,10.3384,10.3384,10.3384,10.3384,10.3384,10.3384,10.3384,10.3224,10.3057,11.8186,11.8186,11.8186,11.8186,11.8261,11.8485,11.856,11.9121,12.1925,12.2486,12.1476,12.3047,12.3533,12.3944,12.514,12.6673,12.7683,12.7907,12.8057,12.8057,12.8057,12.8057,12.8007,12.7994,12.777,12.711,12.6163,12.4346,12.2206,12.0737,11.9173,11.719,11.6645,11.6593,11.6312,11.6091,11.6323,11.6997,11.7119,11.6968,11.7147,11.7414,11.7414,11.7414,11.7414,11.7414,11.7414,11.7414,11.7414,11.7414,11.7414,11.7414,11.7414,11.7414,11.7414,11.7414,11.7414,11.7414,11.7414,11.7414,11.7295,11.724,11.7267,11.6881,11.616,11.5893,11.5944,11.5843,11.5709,11.5006,11.3667,11.2695,11.1132,10.9769,10.9282,10.8839,10.8389,10.8012,10.707,10.6065,10.5744,10.5316,10.4816,10.4133,10.4097,10.4275,10.4745,10.5458,10.6136,10.6493,10.6671,10.6279,10.5744,10.4923,10.4026,10.399,10.421,10.4638,10.4923,10.4138,10.3532,10.3419,10.3384,10.3384,10.3384,10.3384,10.3384,10.3384,10.3384,10.3384,10.3384,10.3384,10.3384,10.3384,10.3384,11.8186,11.8186,11.8186,11.8186,11.8186,11.8186,11.8186,11.8635,12.0691,12.0803,11.9719,12.1701,12.2523,12.2037,12.4505,12.6225,12.6636,12.7571,12.7758,12.7945,12.8057,12.7795,12.8094,12.8045,12.7957,12.7995,12.7011,12.5329,12.2853,12.1036,11.9358,11.767,11.7292,11.7238,11.7221,11.6988,11.7082,11.7457,11.7258,11.7295,11.7468,11.7521,11.7495,11.7414,11.7414,11.7414,11.7414,11.7414,11.7414,11.7414,11.7414,11.7414,11.7414,11.7414,11.7414,11.7414,11.7414,11.7414,11.7414,11.7414,11.7387,11.736,11.7387,11.7238,11.6519,11.5002,11.5082,11.4222,11.4124,11.3678,11.2383,11.1805,11.0397,10.9064,10.8484,10.7831,10.7279,10.6698,10.5794,10.488,10.4566,10.421,10.399,10.3384,10.3455,10.3705,10.478,10.5779,10.5351,10.5351,10.5244,10.4995,10.4459,10.3633,10.3384,10.3384,10.3384,10.3384,10.3669,10.3419,10.3455,10.3419,10.3384,10.3384,10.3384,10.3384,10.3384,10.3384,10.3384,10.3384,10.3384,10.3384,10.3384,10.3384,10.3384,11.8186,11.8186,11.8186,11.8186,11.8186,11.8186,11.8186,11.8298,11.957,11.9405,11.8784,12.0542,12.1327,12.1215,12.3682,12.5253,12.5739,12.6711,12.7085,12.6673,12.5851,12.544,12.6561,12.6275,12.7272,12.7683,12.7571,12.6213,12.3151,12.0848,11.9096,11.7991,11.7767,11.7705,11.7717,11.7641,11.75,11.7589,11.7537,11.7615,11.7626,11.7574,11.7548,11.7441,11.7414,11.7414,11.7414,11.7414,11.7414,11.7377,11.7414,11.7377,11.7377,11.7414,11.7414,11.7414,11.7414,11.7414,11.7414,11.7414,11.7414,11.7414,11.7377,11.7201,11.6275,11.45,11.3157,11.2189,11.1447,11.0973,11.0447,11.019,10.9622,10.8503,10.7494,10.6668,10.5808,10.5077,10.4368,10.3905,10.3573,10.3455,10.3491,10.3384,10.3384,10.396,10.4887,10.5179,10.4644,10.478,10.4852,10.4322,10.3609,10.3384,10.3384,10.3384,10.3384,10.3384,10.3384,10.3384,10.3384,10.3384,10.3384,10.3384,10.3384,10.3384,10.3384,10.3384,10.3384,10.3384,10.3384,10.3384,10.3384,10.3384,10.3384,11.8186,11.8186,11.8186,11.8186,11.8186,11.8186,11.8186,11.8224,11.841,11.8336,11.8261,11.8597,11.957,12.064,12.2336,12.3907,12.4729,12.5365,12.5215,12.3533,12.3308,12.3121,12.372,12.3645,12.4729,12.6898,12.7085,12.4668,12.2462,12.0345,11.8664,11.8201,11.801,11.8,11.7976,11.7903,11.7444,11.7121,11.6959,11.7034,11.7108,11.7377,11.7548,11.7181,11.7107,11.7117,11.7154,11.7265,11.7414,11.7377,11.7303,11.708,11.6968,11.6931,11.6978,11.6941,11.6671,11.6634,11.6597,11.656,11.6783,11.6968,11.7303,11.6124,11.475,11.3078,11.2106,11.1144,11.0645,11.0143,10.9642,10.9318,10.8863,10.7906,10.7301,10.6814,10.6098,10.5477,10.4822,10.4459,10.4157,10.3958,10.3958,10.4075,10.4114,10.3669,10.4012,10.4114,10.4108,10.4709,10.4465,10.3945,10.3537,10.3384,10.3384,10.3384,10.3384,10.3384,10.3384,10.3384,10.3384,10.3384,10.3384,10.3384,10.3384,10.3384,10.3384,10.3384,10.3384,10.3384,10.3384,10.3384,10.3384,10.3384,10.3384,11.8186,11.8186,11.8186,11.8186,11.8186,11.8186,11.8186,11.8186,11.8186,11.8186,11.8186,11.8186,11.8523,11.948,12.0953,12.2112,12.2935,12.357,12.3533,12.2598,12.2748,12.1775,12.1476,12.1813,12.2075,12.1626,12.1738,12.2075,12.0205,11.8523,11.8074,11.7999,11.8163,11.8117,11.7907,11.7562,11.6903,11.5858,11.52,11.498,11.4797,11.4724,11.4787,11.4588,11.4563,11.4512,11.4461,11.4435,11.4421,11.4442,11.449,11.449,11.4527,11.4527,11.4527,11.4676,11.4713,11.4787,11.4824,11.4713,11.4527,11.4416,11.4305,11.3525,11.2336,11.1519,11.0814,11.022,10.9848,10.9514,10.9031,10.8523,10.7924,10.7322,10.7167,10.7076,10.6572,10.605,10.5605,10.5205,10.4893,10.4642,10.4606,10.4751,10.4678,10.4375,10.4213,10.4127,10.4322,10.4599,10.4138,10.3781,10.3583,10.3384,10.3384,10.3384,10.3384,10.3384,10.3384,10.3384,10.3384,10.3384,10.3384,10.3384,10.3384,10.3384,10.3384,10.3384,10.3384,10.3384,10.3384,10.3384,10.3384,10.3384,10.3384,11.8186,11.8186,11.8186,11.8186,11.8186,11.8186,11.8186,11.8186,11.8186,11.8186,11.8186,11.8186,11.8224,11.8336,11.9929,12.064,12.1215,12.1663,12.1813,12.0593,11.9308,11.9196,11.8784,11.8261,11.856,11.841,11.8485,11.856,11.7625,11.7476,11.7289,11.6915,11.6317,11.6429,11.6481,11.6728,11.5248,11.4104,11.3723,11.3618,11.3474,11.3502,11.3393,11.3345,11.3358,11.3334,11.3248,11.3186,11.3073,11.2886,11.2748,11.2622,11.2548,11.2522,11.2522,11.2522,11.2485,11.2485,11.2522,11.2559,11.2745,11.2931,11.1705,11.0591,10.9848,10.9328,10.9031,10.8697,10.84,10.8511,10.8251,10.8103,10.7804,10.7505,10.7479,10.7379,10.719,10.6707,10.6263,10.5826,10.5407,10.5207,10.5207,10.5309,10.5348,10.5184,10.4929,10.4588,10.45,10.4242,10.3916,10.3793,10.3633,10.3425,10.3384,10.3425,10.3425,10.3384,10.3384,10.3384,10.3384,10.3384,10.3384,10.3384,10.3384,10.3384,10.3384,10.3384,10.3384,10.3384,10.3384,10.3384,10.3384,10.3384,10.3425,11.8149,11.8186,11.8186,11.8186,11.8186,11.8186,11.8186,11.8186,11.8186,11.8186,11.8186,11.8186,11.8186,11.8523,11.9869,12.049,12.064,12.064,11.9158,11.7064,11.6317,11.4821,11.4335,11.4186,11.5045,11.684,11.7102,11.5494,11.5718,11.5345,11.4784,11.4186,11.4335,11.3849,11.355,11.3438,11.3101,11.2556,11.2273,11.2132,11.2035,11.2438,11.2145,11.2085,11.2099,11.2075,11.2065,11.2116,11.2217,11.2255,11.2354,11.2391,11.2425,11.2485,11.2485,11.2411,11.2188,11.2039,11.1928,11.1779,11.1854,11.1285,10.9688,10.8437,10.7979,10.8215,10.814,10.788,10.7732,10.7707,10.7682,10.7682,10.7707,10.7707,10.7707,10.767,10.7558,10.732,10.6874,10.6585,10.6142,10.5988,10.6019,10.5862,10.593,10.5722,10.5459,10.5218,10.5356,10.4929,10.4421,10.4269,10.4039,10.3678,10.3425,10.3466,10.3466,10.3384,10.3384,10.3384,10.3384,10.3384,10.3384,10.3384,10.3384,10.3384,10.3384,10.3384,10.3384,10.3384,10.3384,10.3241,10.2604,10.2818,10.2462,11.6541,11.6653,11.7737,11.8186,11.8186,11.8186,11.8186,11.8186,11.8186,11.8186,11.8186,11.8186,11.8186,11.8336,11.8807,11.9106,11.9069,11.9032,11.7476,11.5943,11.4971,11.3363,11.2129,11.1867,11.2241,11.1269,11.1606,11.2391,11.2615,11.254,11.269,11.2952,11.3304,11.2017,11.0671,11.0297,11.0297,11.0388,11.0404,11.0286,11.0249,11.0093,11.0033,11.0071,11.0033,10.9974,10.9854,10.9735,10.9675,10.9508,10.9461,10.9474,10.9389,10.9378,10.9342,10.9367,10.9379,10.944,10.9614,10.9614,10.9813,10.9751,10.8621,10.7863,10.7826,10.7802,10.7802,10.7826,10.785,10.785,10.7826,10.7812,10.7812,10.785,10.785,10.785,10.7752,10.7619,10.7308,10.7409,10.7168,10.7126,10.7073,10.6819,10.6535,10.6202,10.5956,10.6336,10.6617,10.5867,10.5241,10.5207,10.5032,10.4385,10.3961,10.3758,10.3593,10.3425,10.3384,10.3384,10.3384,10.3384,10.3384,10.3384,10.3384,10.3384,10.3384,10.3384,10.3384,10.3384,10.3205,10.2604,10.1962,10.1534,10.1106,11.598,11.6616,11.77,11.8186,11.8186,11.8186,11.8186,11.8186,11.8186,11.8186,11.8186,11.8186,11.8186,11.8186,11.8261,11.7924,11.7476,11.7289,11.5831,11.4186,11.3662,11.2167,11.0767,10.9848,10.9512,10.8577,10.8374,10.9421,11.0019,11.0131,11.0858,11.1307,11.097,11.0297,10.8876,10.8241,10.8241,10.8278,10.8236,10.8156,10.8295,10.8327,10.8364,10.8465,10.8519,10.8535,10.8546,10.8621,10.8555,10.8407,10.8407,10.8324,10.818,10.8157,10.7975,10.7877,10.7853,10.7743,10.7743,10.7743,10.7754,10.7863,10.7822,10.7905,10.7928,10.7928,10.7928,10.7905,10.7882,10.7905,10.7891,10.7891,10.7891,10.7914,10.7914,10.7914,10.7891,10.7799,10.7752,10.7822,10.7775,10.7546,10.7521,10.7211,10.713,10.6929,10.6846,10.7194,10.6929,10.6276,10.593,10.5962,10.567,10.4963,10.4423,10.4157,10.3922,10.3593,10.3425,10.3425,10.3425,10.3384,10.3384,10.3384,10.3384,10.3384,10.3384,10.3384,10.3384,10.3027,10.2497,10.1891,10.082,10.0071,9.9536,11.6466,11.8037,11.7999,11.8037,11.7962,11.8111,11.8186,11.8186,11.8186,11.8186,11.8186,11.8186,11.8186,11.8111,11.7775,11.7139,11.6242,11.5681,11.4186,11.2092,11.1718,11.0206,10.9047,10.8635,10.8615,10.8315,10.8278,10.8315,10.8502,10.871,10.8577,10.8839,10.9213,10.8689,10.8353,10.8241,10.8241,10.8241,10.8241,10.8241,10.8241,10.8241,10.822,10.8241,10.8241,10.8241,10.8257,10.8257,10.8156,10.8092,10.807,10.8048,10.7959,10.7914,10.7891,10.7891,10.7868,10.7868,10.7831,10.7891,10.7868,10.7854,10.7899,10.7959,10.7937,10.7914,10.7937,10.8019,10.7959,10.7937,10.7914,10.7914,10.7937,10.7959,10.7959,10.7959,10.7959,10.7914,10.7868,10.7891,10.7799,10.7656,10.7694,10.7657,10.7632,10.7607,10.7669,10.739,10.6929,10.6543,10.6492,10.6366,10.6024,10.5474,10.51,10.4679,10.4233,10.3718,10.3507,10.3547,10.3507,10.3425,10.3384,10.3384,10.3384,10.3384,10.3384,10.3348,10.2956,10.2569,10.1891,10.0856,9.9536,9.8501,9.7752,11.4335,11.4859,11.598,11.6429,11.6578,11.7663,11.8186,11.8186,11.8186,11.8186,11.8186,11.8186,11.8186,11.7775,11.7064,11.6018,11.5307,11.4298,11.2653,11.1456,11.0505,10.9757,10.8764,10.8241,10.8241,10.8241,10.8241,10.8241,10.8241,10.8241,10.8241,10.8241,10.8241,10.8241,10.8241,10.8241,10.8241,10.8241,10.8241,10.8241,10.8241,10.8241,10.8241,10.8241,10.8241,10.8241,10.8241,10.8241,10.822,10.8199,10.8215,10.8215,10.8135,10.807,10.8026,10.7982,10.7937,10.7928,10.7914,10.7959,10.8026,10.8026,10.807,10.8113,10.8135,10.8172,10.8113,10.8113,10.8135,10.8156,10.8194,10.8113,10.8113,10.8092,10.8092,10.807,10.807,10.8004,10.7982,10.7959,10.7845,10.7728,10.7693,10.7706,10.7657,10.7645,10.7682,10.7457,10.712,10.7076,10.6994,10.6724,10.6425,10.6178,10.5826,10.5374,10.4893,10.4383,10.388,10.3801,10.3633,10.3466,10.3384,10.3471,10.3471,10.3425,10.3277,10.3063,10.264,10.1998,10.0963,9.9893,9.8573,9.7181,9.629,11.2838,11.3347,11.372,11.4664,11.588,11.6795,11.7588,11.8111,11.8186,11.8186,11.8186,11.8111,11.785,11.7102,11.598,11.5083,11.3699,11.269,11.1344,11.0318,10.9832,10.9213,10.8764,10.8241,10.8241,10.8241,10.8241,10.8241,10.8241,10.8241,10.8241,10.8241,10.8241,10.8261,10.8261,10.8241,10.8241,10.8241,10.8241,10.8241,10.8241,10.8241,10.8241,10.8241,10.8241,10.8241,10.8241,10.8241,10.8241,10.8241,10.8241,10.8278,10.822,10.8215,10.8172,10.8172,10.8092,10.8048,10.807,10.8113,10.8135,10.8156,10.8199,10.8241,10.822,10.8278,10.8241,10.8241,10.8241,10.822,10.8278,10.8241,10.8241,10.8241,10.8241,10.822,10.8178,10.807,10.8026,10.8004,10.7914,10.7775,10.7752,10.7752,10.7693,10.7657,10.7694,10.7645,10.757,10.7505,10.7416,10.7248,10.7103,10.6865,10.6292,10.5925,10.554,10.4928,10.4347,10.4159,10.4003,10.3762,10.3593,10.3638,10.3678,10.344,10.3134,10.289,10.1855,10.0392,9.9429,9.868,9.7431,9.6004,9.5255,11.1952,11.293,11.1763,11.2994,11.559,11.5563,11.6539,11.7812,11.7939,11.7992,11.8134,11.8074,11.7289,11.6018,11.5307,11.3737,11.0991,11.0692,10.9795,10.886,10.8278,10.839,10.8353,10.8241,10.8241,10.8241,10.8241,10.8241,10.8241,10.8241,10.8282,10.8303,10.8366,10.8363,10.8366,10.8387,10.8346,10.8346,10.8346,10.8326,10.8387,10.8346,10.8326,10.8343,10.8282,10.8241,10.8241,10.8241,10.8241,10.8241,10.8241,10.8241,10.8241,10.8257,10.8257,10.8257,10.8199,10.8199,10.8199,10.8257,10.8278,10.8278,10.8241,10.8241,10.8241,10.8241,10.8241,10.8241,10.8241,10.8241,10.8241,10.8241,10.8241,10.8241,10.8241,10.8241,10.8199,10.8113,10.8048,10.8048,10.7959,10.7845,10.7799,10.7799,10.7728,10.7765,10.7778,10.7754,10.7719,10.7657,10.7657,10.7657,10.7607,10.7253,10.667,10.6448,10.6178,10.5638,10.5239,10.4928,10.4533,10.4118,10.388,10.388,10.3758,10.3409,10.3068,10.1917,10.06,9.8979,9.7752,9.711,9.604,9.5148,9.447,11.0921,11.0259,11.1086,11.1906,11.2759,11.4043,11.5281,11.6513,11.6644,11.7216,11.7939,11.8119,11.7259,11.5756,11.4335,11.2727,11.0692,10.9458,10.8673,10.839,10.8241,10.8241,10.8241,10.8241,10.8241,10.8241,10.8241,10.8303,10.8282,10.8323,10.8426,10.8535,10.8553,10.8674,10.8713,10.8669,10.8591,10.8591,10.8553,10.8636,10.8766,10.8674,10.8608,10.8538,10.8405,10.8241,10.8241,10.8282,10.8282,10.8282,10.8303,10.8282,10.8241,10.8241,10.8241,10.8261,10.8346,10.8326,10.8326,10.8326,10.8261,10.8241,10.8241,10.8346,10.8323,10.8241,10.8261,10.8303,10.8303,10.8282,10.8241,10.8241,10.8241,10.8241,10.8241,10.8241,10.822,10.8156,10.8092,10.807,10.8004,10.7928,10.7891,10.7831,10.7845,10.7845,10.7822,10.7775,10.7717,10.7694,10.767,10.7707,10.7571,10.731,10.7068,10.7063,10.68,10.6484,10.6239,10.5894,10.5273,10.4822,10.4315,10.397,10.3758,10.2958,10.1348,10.0436,9.9439,9.7918,9.6504,9.5683,9.4934,9.447,9.3685,11.0356,10.9524,11.0335,11.1048,11.182,11.2619,11.3867,11.5111,11.5962,11.6749,11.7508,11.8129,11.7526,11.5621,11.3203,11.1328,10.9811,10.8764,10.8241,10.8241,10.8241,10.8241,10.8282,10.8261,10.8241,10.8241,10.8261,10.8366,10.8588,10.8619,10.8653,10.8821,10.885,10.895,10.894,10.8856,10.885,10.8836,10.8836,10.8922,10.8953,10.8936,10.8873,10.8821,10.8702,10.8636,10.8657,10.8623,10.8591,10.8445,10.8445,10.8387,10.8303,10.8261,10.8261,10.8303,10.8482,10.8588,10.8606,10.8602,10.8619,10.864,10.8602,10.8588,10.8623,10.864,10.8606,10.8464,10.8445,10.8385,10.8303,10.8261,10.8241,10.8241,10.8241,10.8241,10.8241,10.8194,10.8172,10.8129,10.8085,10.8107,10.807,10.8048,10.8048,10.8041,10.7937,10.7891,10.7836,10.7778,10.7754,10.7656,10.7334,10.7223,10.7273,10.7038,10.6597,10.6763,10.6527,10.594,10.5601,10.5345,10.4751,10.4342,10.3521,10.1785,9.9651,9.8649,9.7786,9.6562,9.5328,9.422,9.3184,9.2829,9.2331,11.0029,10.9987,10.9689,11.0349,11.1566,11.1497,11.2366,11.3941,11.5225,11.6156,11.6348,11.7498,11.7224,11.5415,11.2421,11.0148,10.8892,10.8407,10.8482,10.8482,10.8464,10.8464,10.8424,10.8366,10.8426,10.8463,10.8445,10.8674,10.888,10.8953,10.9032,10.9081,10.9093,10.9128,10.9244,10.914,10.9093,10.9093,10.9093,10.9093,10.9105,10.9143,10.9131,10.9081,10.9019,10.8967,10.894,10.8964,10.8908,10.8735,10.8702,10.8551,10.8406,10.8403,10.8403,10.8538,10.875,10.9044,10.8993,10.8953,10.894,10.8926,10.8967,10.9032,10.8953,10.894,10.8894,10.8718,10.8702,10.8602,10.85,10.8385,10.8306,10.8326,10.8323,10.8241,10.8241,10.8236,10.8199,10.8178,10.8172,10.8215,10.8236,10.8236,10.8257,10.8135,10.807,10.8004,10.7937,10.7891,10.7905,10.7091,10.6621,10.6858,10.6946,10.6425,10.632,10.679,10.6255,10.5563,10.5401,10.5233,10.482,10.3672,10.2921,10.1441,9.9168,9.7398,9.6124,9.5228,9.4616,9.3332,9.1797,9.1189,9.0903,11.0029,11.0029,10.9935,11.0077,11.0413,11.0353,11.1138,11.2268,11.2855,11.3679,11.4557,11.4921,11.4945,11.4032,11.2278,11.0425,10.8984,10.8767,10.879,10.8813,10.885,10.888,10.8894,10.8871,10.8813,10.8806,10.888,10.894,10.9105,10.9105,10.9185,10.9316,10.9363,10.95,10.9637,10.9491,10.9372,10.9325,10.9325,10.9363,10.9325,10.9363,10.9363,10.9363,10.9151,10.9069,10.9105,10.9117,10.9094,10.8993,10.8953,10.8926,10.8922,10.8908,10.8908,10.8922,10.9004,10.9032,10.9057,10.9081,10.9128,10.9178,10.9069,10.9057,10.9069,10.9155,10.9107,10.9018,10.8953,10.8899,10.8806,10.8686,10.8606,10.8535,10.8406,10.8261,10.8303,10.8323,10.8343,10.8303,10.8278,10.8257,10.8257,10.8278,10.8278,10.8178,10.8156,10.8113,10.807,10.8048,10.7444,10.6617,10.6386,10.6721,10.6713,10.6281,10.5736,10.6441,10.6293,10.544,10.5186,10.4962,10.3487,10.2197,10.1506,10.0402,9.858,9.6659,9.5533,9.4552,9.392,9.2753,9.1146,9.0228,8.9623,11.0029,11.0029,11.0029,11.0029,11.0029,11.0029,11.0413,11.1112,11.1794,11.2585,11.3051,11.3214,11.2798,11.1572,11.0114,10.8939,10.8062,10.7937,10.8402,10.9006,10.9044,10.9044,10.9032,10.9032,10.9044,10.9143,10.9401,10.9521,10.9483,10.9503,10.9615,10.9709,10.9722,10.9828,10.993,10.9784,10.9728,10.9722,10.9722,10.9722,10.9716,10.9722,10.9716,10.9709,10.9607,10.9521,10.9521,10.9521,10.9439,10.9286,10.9227,10.9163,10.9189,10.9293,10.9521,10.9521,10.9529,10.9529,10.9521,10.9521,10.9503,10.9512,10.9529,10.9521,10.9521,10.9503,10.9537,10.9503,10.943,10.9185,10.9069,10.8913,10.8865,10.8821,10.8766,10.8585,10.85,10.8501,10.8501,10.8501,10.8482,10.8445,10.8385,10.8306,10.8282,10.8241,10.8241,10.822,10.8178,10.7708,10.7073,10.6582,10.662,10.7025,10.7332,10.593,10.4753,10.6077,10.6365,10.5374,10.4809,10.4131,10.2771,10.1004,9.9708,9.8782,9.724,9.6162,9.4999,9.3916,9.2843,9.1676,9.0282,8.9158,8.8373,10.9692,10.9199,10.9464,10.9578,10.9578,10.9578,10.9877,11.0489,11.1125,11.1665,11.177,11.1319,10.9968,10.8917,10.741,10.7176,10.7357,10.7838,10.8309,10.9114,10.9303,10.9303,10.9324,10.9334,10.9293,10.9354,10.9668,10.993,10.9973,11.0029,10.993,11.002,10.9987,10.9987,11.0029,11.0029,10.9982,10.9973,10.9977,10.9977,10.9977,10.9977,10.9977,10.9977,10.993,10.9925,10.9977,10.9982,10.9882,10.9592,10.9501,10.9419,10.9392,10.9696,10.9925,10.9968,10.9925,10.9914,10.992,10.9977,11.0025,11.0029,10.9973,10.9977,10.9982,10.9982,10.992,10.9871,10.9696,10.9483,10.926,10.9189,10.9117,10.9131,10.9032,10.8899,10.8813,10.8798,10.8806,10.875,10.8702,10.8669,10.864,10.8571,10.8588,10.8606,10.81,10.7634,10.7901,10.7599,10.6829,10.6677,10.6769,10.7269,10.7767,10.5786,10.4923,10.6555,10.6095,10.5103,10.3583,10.301,10.1886,9.9958,9.8478,9.7585,9.6657,9.5664,9.4319,9.2645,9.1503,9.0428,8.9359,8.8327,8.7469,10.8326,10.5822,10.7301,10.7908,10.7871,10.7946,10.9388,11.1172,10.9388,10.935,10.973,10.7226,10.6724,10.6103,10.6819,10.735,10.7666,10.8413,10.9141,10.9678,10.9791,10.9785,10.9791,10.9791,10.9798,10.9871,10.9982,11.0029,11.0029,11.0029,11.0029,11.0029,11.0029,11.0029,11.0029,11.0029,11.0029,11.0029,11.0029,11.0029,11.0029,11.0029,11.0029,11.0029,11.0029,11.0029,11.0029,11.0029,10.9987,10.994,10.9935,10.9925,10.9882,10.9987,11.0029,11.0029,11.0029,11.0029,11.0029,11.0029,11.0029,11.0029,11.0029,11.0029,11.0029,11.0029,11.0029,10.9987,10.994,10.9865,10.9865,10.9577,10.939,10.9354,10.92,10.9044,10.9019,10.9185,10.9151,10.9044,10.9004,10.8913,10.8894,10.8489,10.8781,10.8775,10.7706,10.7108,10.7649,10.7612,10.6662,10.627,10.657,10.6964,10.7489,10.6252,10.6362,10.6823,10.5728,10.3947,10.1944,10.13,10.0416,9.8649,9.7547,9.6846,9.5967,9.4674,9.3109,9.1411,9.0248,8.9515,8.8559,8.7517,8.6975,10.7226,10.5101,10.5822,10.6163,10.6277,10.7154,10.833,10.9236,10.8022,10.844,10.9009,10.6467,10.5518,10.6353,10.6201,10.6201,10.6543,10.7908,10.9161,10.9919,11.0029,11.0029,11.0029,11.0029,11.0029,11.0029,11.0029,11.0029,11.0029,11.0029,11.0029,11.0029,11.0029,11.0029,11.0029,11.0029,11.0029,11.0029,11.0029,11.0029,11.0029,11.0029,11.0029,11.0029,11.0029,11.0029,11.0029,11.0029,11.0029,11.0029,11.0029,11.0029,11.0029,11.0029,11.0029,11.0029,11.0029,11.0029,11.0029,11.0029,11.0029,11.0029,11.0029,11.0029,11.0029,11.0029,11.0029,11.0029,11.0029,11.0029,11.0029,10.9822,10.9772,10.9716,10.963,10.9466,10.9335,10.9524,10.9599,10.9345,10.9276,10.9185,10.8678,10.791,10.7874,10.7671,10.6614,10.6125,10.6731,10.6161,10.5552,10.623,10.6477,10.6723,10.7229,10.7441,10.7336,10.6326,10.4865,10.2597,10.0914,9.9957,9.9016,9.7779,9.6585,9.5928,9.4735,9.3327,9.181,9.0579,8.9567,8.8741,8.7982,8.7421,8.6884,10.6264,10.4439,10.4843,10.4949,10.5177,10.6353,10.7154,10.7495,10.677,10.7074,10.7908,10.5746,10.5139,10.6205,10.586,10.5518,10.6011,10.7567,10.8667,10.9991,11.0029,11.0029,11.0029,11.0029,11.0029,11.0029,11.0029,11.0029,11.0029,11.0029,11.0029,11.0029,11.0029,11.0029,11.0029,11.0029,11.0029,11.0029,11.0029,11.0029,11.0029,11.0029,11.0029,11.0029,11.0029,11.0029,11.0029,11.0029,11.0003,10.9973,11.0007,11.0029,11.0029,11.0029,11.0029,11.0029,11.0029,11.0029,11.0029,11.0029,11.0029,11.0029,11.0029,11.0029,11.0029,11.0029,11.0029,11.0029,11.0029,11.0029,11.0029,11.0029,10.9982,10.9982,10.9973,10.9833,10.9709,10.9865,10.9839,10.9658,10.9547,10.931,10.8718,10.7584,10.6968,10.636,10.5868,10.5307,10.4794,10.4243,10.5043,10.6533,10.6618,10.6552,10.7042,10.7291,10.6742,10.568,10.3467,10.1119,10.0305,9.9387,9.8516,9.7294,9.5884,9.4389,9.3157,9.185,9.0985,8.9992,8.8982,8.8474,8.7988,8.7414,8.6824,10.543,10.2695,10.4294,10.4949,10.4915,10.5177,10.6087,10.6736,10.4687,10.438,10.5252,10.3697,10.3431,10.3132,10.5784,10.704,10.7154,10.844,10.9502,10.973,11.0029,11.0029,11.0029,11.0029,11.0029,11.0029,11.0029,11.0029,11.0029,11.0029,11.0029,11.0033,10.9999,11.0033,11.0033,10.9999,11.0033,11.0041,11.0007,11.0011,10.9983,10.9983,10.9987,10.9987,10.9983,11.0021,11.0015,11.0003,10.9955,10.9871,10.9993,11.0015,11.0007,10.9999,11.0003,11.0011,10.998,10.9977,11.0003,10.998,11.0007,11.0015,11.0011,11.0029,11.0015,10.9983,10.9983,10.9987,11.0033,11.0003,11.0003,11.0033,11.0033,10.9995,11.0003,10.9995,10.9982,11.0025,11.0029,10.994,10.9902,10.9143,10.8223,10.7388,10.6772,10.5075,10.4262,10.3803,10.3416,10.3142,10.4245,10.5707,10.6003,10.6173,10.6626,10.7004,10.5972,10.4691,10.2201,10.0961,10.0157,9.8887,9.8026,9.6818,9.5262,9.3681,9.2026,9.0892,9.0078,8.9218,8.8771,8.8376,8.7789,8.6935,8.5673,10.5256,10.2338,10.3076,10.337,10.3405,10.3487,10.5025,10.6656,10.4987,10.4873,10.5784,10.4683,10.3925,10.4,10.5366,10.6011,10.6277,10.7757,10.8553,10.8705,10.9506,10.9886,10.9995,11.0029,11.0029,11.0029,11.0029,11.0033,11.0033,11.0029,11.0029,11.0007,10.996,10.992,11.0011,10.992,10.9899,10.9898,10.9899,10.9869,10.9796,10.9795,10.9795,10.9795,10.9795,10.9795,10.9796,10.9869,10.9834,10.9749,10.9751,10.9795,10.9795,10.9795,10.9795,10.9795,10.9795,10.9795,10.9757,10.9795,10.9795,10.9795,10.9795,10.9795,10.9796,10.9795,10.9795,10.9796,10.9868,10.9901,10.9932,10.998,11.0037,10.9973,10.9867,10.9795,10.9757,10.9793,10.9444,10.8715,10.8393,10.7908,10.6277,10.5101,10.4266,10.3553,10.2649,10.2428,10.2167,10.2422,10.286,10.3448,10.3839,10.4568,10.5129,10.5538,10.4962,10.346,10.1592,10.1149,9.9967,9.837,9.7086,9.5558,9.4393,9.3026,9.1205,8.9732,8.9236,8.9046,8.8603,8.7971,8.6923,8.5913,8.4447,10.5699,10.359,10.3548,10.3526,10.3529,10.3605,10.4735,10.5796,10.4659,10.439,10.5056,10.4597,10.4031,10.4291,10.4657,10.4922,10.5464,10.6782,10.7495,10.7651,10.8472,10.8601,10.8677,10.9021,10.9434,10.992,10.9896,10.9927,10.9952,10.9934,10.9899,10.9934,10.9834,10.9834,10.9865,10.9796,10.9792,10.9753,10.9754,10.9702,10.9628,10.9662,10.9612,10.9612,10.962,10.962,10.9662,10.974,10.9735,10.9588,10.9598,10.9612,10.9662,10.9662,10.9666,10.9666,10.9662,10.9616,10.962,10.9658,10.9658,10.9612,10.9669,10.9612,10.9612,10.9616,10.9616,10.9662,10.9695,10.9792,10.9794,10.9871,10.9901,10.9903,10.9751,10.948,10.9031,10.8981,10.8464,10.6985,10.6719,10.5916,10.4586,10.3334,10.2424,10.1889,10.1543,10.1374,10.0729,10.0723,10.12,10.1625,10.1935,10.2839,10.3594,10.4008,10.3604,10.202,10.1337,10.0769,9.9613,9.809,9.6395,9.4317,9.3285,9.2247,9.047,8.9098,8.8996,8.8961,8.8268,8.7272,8.6183,8.4525,8.2982,10.6992,10.6841,10.6809,10.6543,10.6433,10.6292,10.5053,10.307,10.258,10.1962,10.1292,10.2241,10.2507,10.2809,10.3778,10.435,10.5046,10.6207,10.6909,10.6667,10.6113,10.5555,10.5785,10.681,10.8117,10.9378,10.9514,10.963,10.9797,10.9746,10.9666,10.9683,10.9673,10.9666,10.9683,10.9666,10.9658,10.9662,10.9662,10.9654,10.9636,10.9636,10.9636,10.9631,10.9631,10.9626,10.9621,10.9636,10.9568,10.9478,10.9583,10.9621,10.9641,10.9612,10.9631,10.9626,10.9645,10.9631,10.9603,10.9616,10.9621,10.9616,10.9616,10.9612,10.9621,10.9611,10.9611,10.9616,10.9607,10.9662,10.9662,10.968,10.9673,10.9666,10.9636,10.8906,10.7567,10.7305,10.652,10.5347,10.4816,10.4291,10.2673,10.2253,10.1377,10.0585,10.0225,10.0115,9.9584,9.9165,9.9612,9.9802,9.9883,10.064,10.1397,10.1776,10.1622,10.0547,10.045,9.9959,9.9199,9.8019,9.6566,9.409,9.2259,9.1194,9.0057,8.9153,8.8723,8.8189,8.7384,8.6582,8.5085,8.3086,8.1525,10.781,10.6902,10.6949,10.6387,10.5348,10.4349,10.3925,10.3742,10.2714,10.1931,10.1534,10.1992,10.1645,10.0884,10.132,10.1584,10.1681,10.3372,10.4134,10.4041,10.4182,10.4543,10.469,10.5183,10.6349,10.7814,10.806,10.8599,10.9654,10.9632,10.9612,10.9598,10.9545,10.9507,10.9607,10.9556,10.9506,10.9506,10.9506,10.9494,10.9524,10.9496,10.9496,10.9496,10.9496,10.9496,10.9534,10.9534,10.9457,10.9454,10.9485,10.9487,10.9534,10.9505,10.9534,10.9534,10.9496,10.9496,10.9496,10.9515,10.9496,10.9496,10.9496,10.9496,10.9496,10.9534,10.9496,10.9515,10.9524,10.9506,10.952,10.9568,10.9583,10.9495,10.9467,10.8739,10.7243,10.6152,10.4844,10.358,10.3135,10.2331,10.1196,10.0665,10.032,9.9978,9.9775,9.9636,9.8348,9.7627,9.7063,9.6916,9.7336,9.8021,9.8974,9.943,9.9468,9.9527,9.9496,9.9034,9.844,9.7313,9.5925,9.3357,9.1075,9.0026,8.9158,8.85,8.781,8.6992,8.6177,8.5068,8.3682,8.166,8.0648,10.8564,10.7575,10.7596,10.6932,10.5765,10.4286,10.4234,10.5082,10.2967,10.2121,10.2031,10.1587,10.0666,9.9701,9.9598,9.9626,9.9575,10.0655,10.1272,10.1454,10.2288,10.2696,10.2848,10.3272,10.4189,10.5273,10.5955,10.6825,10.7738,10.7863,10.7969,10.8107,10.8312,10.867,10.8727,10.9247,10.9439,10.9449,10.9449,10.9454,10.9446,10.9472,10.9472,10.9459,10.9459,10.9107,10.8616,10.8616,10.8829,10.9357,10.9383,10.9371,10.9422,10.9459,10.9459,10.9459,10.9459,10.9459,10.9472,10.9434,10.9446,10.9434,10.9434,10.9459,10.9459,10.9446,10.9446,10.9459,10.946,10.9449,10.9467,10.9524,10.9247,10.8703,10.8629,10.7848,10.6125,10.4637,10.3072,10.1661,10.1341,10.0902,9.9992,9.9714,9.9512,9.895,9.8776,9.8157,9.6753,9.581,9.5094,9.4822,9.4382,9.4845,9.6931,9.8274,9.8579,9.8885,9.849,9.7952,9.7111,9.6035,9.4453,9.2479,9.0322,8.886,8.8038,8.7282,8.6577,8.583,8.4659,8.3363,8.2034,8.1003,8.018,10.9175,10.8994,10.9204,10.8836,10.8195,10.6797,10.6482,10.5793,10.3016,10.178,10.1673,10.016,9.9555,9.9393,9.947,9.9432,9.9347,9.9506,9.9598,9.9585,9.9685,9.9723,9.9887,10.1068,10.1836,10.2024,10.3456,10.435,10.4822,10.4851,10.4804,10.4867,10.6175,10.6829,10.6954,10.8224,10.9144,10.8993,10.888,10.9057,10.9384,10.9032,10.8918,10.9069,10.8993,10.8158,10.6703,10.6651,10.7276,10.8647,10.8856,10.9231,10.9029,10.9231,10.9383,10.9269,10.9383,10.9396,10.9383,10.9357,10.9293,10.932,10.9396,10.932,10.9306,10.932,10.932,10.932,10.9359,10.9422,10.9396,10.9069,10.8364,10.7257,10.6829,10.6033,10.4292,10.2741,10.1304,10.0046,9.9718,9.9605,9.9541,9.925,9.8619,9.7555,9.7058,9.6357,9.4789,9.3578,9.3189,9.3586,9.307,9.3207,9.5266,9.7146,9.7635,9.8024,9.7297,9.6744,9.5931,9.3854,9.2229,9.0647,8.8465,8.7039,8.6184,8.5387,8.4791,8.4396,8.3018,8.1749,8.0824,8.0052,7.9364,10.7927,10.7948,10.8049,10.7435,10.6429,10.6231,10.5529,10.4269,10.2473,10.1684,10.1408,10.0025,9.9283,9.9233,9.9367,9.9256,9.9092,9.9033,9.905,9.9088,9.905,9.905,9.9126,9.9592,9.9855,10.0081,10.1622,10.3113,10.4137,10.421,10.422,10.4234,10.47,10.5053,10.5141,10.5556,10.5858,10.5896,10.5896,10.5933,10.5858,10.5896,10.5858,10.5817,10.5279,10.4659,10.4153,10.406,10.4416,10.4827,10.4884,10.539,10.6495,10.7543,10.8143,10.8123,10.8105,10.8238,10.8463,10.8499,10.8591,10.8749,10.8766,10.8803,10.8766,10.8766,10.8766,10.8766,10.8766,10.8885,10.8565,10.6885,10.5301,10.4834,10.4684,10.3921,10.2278,10.1575,10.057,9.9269,9.8893,9.8893,9.8765,9.79,9.7088,9.6622,9.5429,9.4155,9.2711,9.1732,9.1481,9.0799,9.0361,9.1716,9.3814,9.4527,9.4743,9.5846,9.5683,9.5412,9.4484,9.1755,8.9673,8.8189,8.6727,8.5305,8.418,8.3371,8.3028,8.2931,8.1619,8.0295,7.9793,7.8996,7.8216,10.7109,10.7311,10.7384,10.6814,10.5834,10.5563,10.5263,10.4611,10.2786,10.2361,10.2665,10.0786,9.9893,9.9968,9.9692,9.9148,9.8461,9.8443,9.8569,9.8725,9.8725,9.879,9.8922,9.8938,9.8938,9.9103,10.0104,10.1254,10.2238,10.2314,10.2328,10.2394,10.2959,10.318,10.3196,10.3633,10.3835,10.3717,10.3684,10.3722,10.3759,10.3701,10.3013,10.1877,10.1262,10.1214,10.1848,10.1848,10.2108,10.2704,10.277,10.3217,10.4239,10.523,10.5826,10.5826,10.5826,10.6191,10.6881,10.7014,10.7302,10.8024,10.8253,10.8144,10.7657,10.8051,10.7938,10.7132,10.7151,10.7207,10.6623,10.4864,10.3292,10.282,10.2668,10.2033,10.0594,10.0105,9.9748,9.8741,9.8456,9.8245,9.762,9.6312,9.5112,9.4437,9.3478,9.2143,9.0814,9.0311,9.002,8.9126,8.8871,8.9686,9.2308,9.1961,9.1925,9.31,9.2949,9.1827,9.1003,8.8286,8.7145,8.5754,8.4377,8.3112,8.2712,8.1895,8.1018,8.0738,7.9653,7.8647,7.876,7.7296,7.6612,10.6782,10.7222,10.7211,10.7123,10.7099,10.5578,10.5788,10.6729,10.3906,10.3657,10.4852,10.2199,10.1101,10.1569,10.0596,9.919,9.7876,9.7884,9.8064,9.8295,9.8351,9.8498,9.8891,9.8907,9.8876,9.8774,9.8962,9.9032,9.901,9.9026,9.8938,9.905,10.0427,10.1011,10.0663,10.179,10.273,10.2118,10.2226,10.2482,10.2482,10.2419,10.0791,9.8165,9.7613,9.8429,9.9664,9.9947,10.0541,10.2013,10.2009,10.225,10.2421,10.2586,10.2719,10.2853,10.2816,10.3449,10.4731,10.4931,10.5513,10.6839,10.7146,10.6998,10.5574,10.6653,10.6436,10.3946,10.494,10.4825,10.33,10.2529,10.2012,10.1045,10.093,10.0072,9.8402,9.8595,9.8426,9.8219,9.8108,9.7582,9.634,9.4683,9.3005,9.1865,9.1148,9.0532,8.9301,8.8905,8.8905,8.8793,8.8798,8.8982,8.9485,8.8633,8.842,8.9084,8.8322,8.593,8.5325,8.4798,8.4205,8.3315,8.195,8.1127,8.0948,8.0386,7.949,7.9,7.8095,7.7459,7.7631,7.5874,7.4825,10.604,10.616,10.619,10.619,10.6148,10.6048,10.632,10.6449,10.4908,10.4451,10.4816,10.2896,10.269,10.3539,10.238,10.0851,9.9427,9.9279,9.8776,9.7845,9.783,9.7894,9.7961,9.7961,9.7961,9.7961,9.7945,9.7945,9.7961,9.7961,9.7348,9.6476,9.6757,9.6344,9.5295,9.6673,9.7431,9.7473,9.8471,9.9006,9.8953,9.8383,9.7569,9.6724,9.6585,9.6769,9.7274,9.7274,9.7522,9.7889,9.7954,9.846,9.9553,9.9692,10.0235,10.1235,10.1419,10.1725,10.2419,10.2455,10.2759,10.3279,10.3494,10.3361,10.3065,10.3363,10.3302,10.2445,10.2009,10.1014,9.9549,9.9274,9.911,9.8787,9.8681,9.8527,9.7913,9.7941,9.7872,9.7749,9.6788,9.6073,9.5366,9.3148,9.1174,9.0466,8.9572,8.866,8.8399,8.8213,8.8176,8.8288,8.8194,8.7192,8.4584,8.4309,8.5042,8.5349,8.5104,8.3951,8.4353,8.1993,8.0519,8.086,7.9467,7.8708,7.8914,7.8836,7.8213,7.8517,7.8586,7.8221,7.6678,7.5381,7.4106,10.5525,10.5762,10.5762,10.5762,10.5795,10.6072,10.619,10.6178,10.5475,10.5314,10.5291,10.4299,10.3958,10.417,10.3257,10.1524,9.9449,9.9338,9.8582,9.7302,9.7289,9.7385,9.7571,9.7571,9.7222,9.6687,9.665,9.6256,9.5722,9.561,9.5127,9.4295,9.422,9.3613,9.2656,9.3485,9.4183,9.4617,9.5527,9.5893,9.5547,9.4471,9.3862,9.3966,9.4356,9.4652,9.4881,9.5341,9.5503,9.5536,9.5536,9.5971,9.6841,9.6878,9.7411,9.8408,9.8586,9.9068,10.0193,10.0296,10.0612,10.145,10.1631,10.1357,10.0806,10.1396,10.1102,9.9804,9.8542,9.7652,9.7068,9.6936,9.6914,9.6966,9.7003,9.7003,9.6966,9.6438,9.6032,9.5921,9.4629,9.351,9.2587,9.0976,8.9586,8.8664,8.8,8.7041,8.6436,8.6362,8.6126,8.572,8.6016,8.4855,8.261,8.188,8.1744,8.1785,8.1333,8.0869,8.0631,7.9097,7.8196,7.8245,7.7758,7.7416,7.7247,7.7333,7.7422,7.7625,7.7984,7.7518,7.5396,7.3871,7.2259,10.4677,10.527,10.5382,10.5522,10.5626,10.5726,10.5795,10.5759,10.5762,10.6009,10.6189,10.5913,10.4952,10.3751,10.3674,10.2062,9.9322,9.9042,9.8348,9.7182,9.6841,9.6881,9.7065,9.6987,9.6292,9.5008,9.486,9.4073,9.285,9.2746,9.262,9.2567,9.2419,9.2121,9.1887,9.1996,9.2621,9.3639,9.3528,9.3261,9.2851,9.1316,9.0485,9.0613,9.1418,9.203,9.2432,9.3433,9.3872,9.3908,9.4015,9.4194,9.423,9.4445,9.4727,9.5205,9.5304,9.6112,9.7975,9.825,9.8932,10.0288,10.0632,10.0195,9.8956,10.0149,9.9499,9.6699,9.5261,9.5326,9.5535,9.5441,9.5374,9.545,9.5333,9.5398,9.5121,9.415,9.3303,9.3303,9.2056,9.0482,8.9569,8.8874,8.7979,8.6889,8.6622,8.6121,8.5159,8.484,8.4266,8.2166,8.208,8.2071,8.0547,7.897,7.8205,7.8237,7.6963,7.6447,7.6737,7.6623,7.6504,7.6492,7.6468,7.6652,7.6676,7.6701,7.6785,7.6994,7.676,7.6145,7.3854,7.232,7.036,10.1452,10.213,10.3166,10.4126,10.5001,10.5522,10.5762,10.5762,10.5762,10.5522,10.5243,10.5553,10.5543,10.5215,10.5215,10.412,10.251,10.2291,10.0783,9.8201,9.6884,9.5727,9.4586,9.3303,9.2606,9.2276,9.224,9.2056,9.1726,9.169,9.169,9.1543,9.0333,8.9657,8.9633,9.0849,9.2256,9.3478,9.2102,9.1829,9.2788,9.1471,9.0687,9.0688,8.9796,8.9333,8.944,8.9653,8.9795,8.9866,9.1332,9.219,9.2261,9.3657,9.4516,9.4656,9.5032,9.5478,9.5971,9.646,9.6894,9.7259,9.7386,9.727,9.6845,9.6467,9.575,9.5202,9.4746,9.4846,9.4955,9.4211,9.3541,9.3499,9.2703,9.2186,9.2063,9.1886,9.1724,9.1513,9.0345,8.9221,8.8738,8.7688,8.6758,8.6302,8.6337,8.6228,8.5899,8.579,8.3142,7.9169,7.688,7.6356,7.4885,7.4289,7.4283,7.4213,7.3899,7.3819,7.3952,7.4405,7.4658,7.4836,7.5456,7.5988,7.6156,7.6156,7.6287,7.6504,7.624,7.6063,7.5506,7.3632,7.0846,9.896,9.9622,10.1082,10.2043,10.2702,10.3727,10.424,10.446,10.4239,10.4053,10.4013,10.435,10.4606,10.4859,10.4859,10.3591,10.1488,10.1488,9.9748,9.674,9.5833,9.4565,9.3079,9.2866,9.167,8.9672,9.0221,8.9822,8.8554,8.8409,8.8808,8.9357,8.8371,8.804,8.8565,8.9466,9.069,9.2128,8.9048,8.768,8.8342,8.6187,8.5057,8.5167,8.6245,8.6771,8.7036,8.7478,8.7745,8.771,8.8785,8.9395,8.943,9.0404,9.1205,9.1579,9.1904,9.2255,9.2697,9.3132,9.3292,9.3296,9.3912,9.4057,9.3364,9.25,9.2046,9.2186,9.1904,9.1868,9.2078,9.1358,9.0888,9.0956,9.0372,8.9931,8.9859,8.9383,8.8978,8.8797,8.7539,8.6637,8.6601,8.5813,8.5205,8.5242,8.5272,8.4881,8.4232,8.2394,7.9278,7.5347,7.3939,7.2753,7.0856,7.0995,7.1479,7.1549,7.1654,7.2001,7.2694,7.315,7.3494,7.3595,7.4381,7.5027,7.5122,7.5151,7.5233,7.5448,7.5044,7.477,7.469,7.2836,7.0019,9.6526,9.7189,9.878,9.9536,9.9768,10.1001,10.1887,10.2553,10.1674,10.1611,10.2185,10.2232,10.2512,10.2941,10.2977,10.1507,9.896,9.8925,9.7385,0.0,9.4339,9.3407,9.2044,9.3084,9.1399,8.7633,8.8713,8.7927,8.5348,8.5134,8.585,8.7213,8.6764,8.7054,8.8178,8.8423,8.8946,8.9552,8.5633,8.3542,8.3539,8.0455,7.8683,7.8487,8.1634,8.3395,8.326,8.4372,8.5055,8.4848,8.514,8.5347,8.5555,8.5896,8.663,8.7788,8.809,8.8577,8.9539,8.9673,8.9707,8.9882,9.1032,9.1071,8.943,8.8976,8.8938,8.8866,8.8562,8.8151,8.8339,8.8277,8.8178,8.8254,8.8041,8.7935,8.7833,8.6804,8.6095,8.6059,8.4534,8.3507,8.3506,8.3082,8.2693,8.2905,8.2516,8.2446,8.0717,7.7366,7.4272,7.243,7.1872,7.0563,6.8531,6.8707,6.9627,6.9665,7.0115,7.0835,7.1827,7.2366,7.262,7.2656,7.3392,7.3864,7.393,7.3864,7.3963,7.396,7.3795,7.3288,7.3218,7.1059,6.9037,9.3273,9.3889,9.5447,9.6638,9.7386,9.7632,9.8864,10.0426,0.0,0.0,0.0,9.8499,9.8749,9.8789,9.883,9.854,9.8007,9.8007,9.7011,9.5233,9.3841,9.2381,9.0817,8.9821,8.8259,8.6343,8.7762,8.7513,8.5775,8.574,8.652,8.7796,8.6697,8.6801,8.8211,8.956,8.8569,8.5398,8.3968,8.4329,8.6335,8.3637,8.0512,7.6996,7.7525,7.626,7.3017,7.5262,7.6082,7.495,7.6399,7.7797,7.9051,8.1171,8.3548,8.5988,8.7154,8.7978,8.8504,8.9012,8.9467,8.981,9.0062,8.9149,8.6619,8.753,8.8266,8.8231,8.8115,8.8038,8.8115,8.695,8.6178,8.6251,8.527,8.4637,8.4637,8.4427,8.425,8.4144,8.2408,8.106,8.0988,7.953,7.8211,7.8246,7.853,7.8072,7.758,7.5569,7.2576,6.954,6.8384,6.7657,6.639,6.7009,6.8125,6.8131,6.9175,7.0113,7.0503,7.1072,7.1544,7.1655,7.2439,7.301,7.308,7.3115,7.308,7.3115,7.346,7.3697,7.3011,7.1132,6.9369,9.1117,0.0,9.3001,9.3935,0.0,9.5228,9.6571,9.8253,9.6614,9.6353,9.7116,9.7448,9.7343,9.6896,9.6896,9.644,9.5702,9.5702,9.486,9.3343,9.253,9.1331,8.9782,8.9812,8.8586,8.6418,8.7885,8.7815,8.6383,8.6313,8.6348,8.6383,8.5346,8.4346,8.3416,8.4843,8.3888,8.0245,8.0666,8.1121,8.1702,8.1007,7.9153,7.6118,0.0,0.0,0.0,0.0,0.0,0.0,0.0,0.0,0.0,0.0,0.0,7.915,7.9177,7.8945,7.8715,7.9934,8.1419,8.3077,8.3719,8.2727,7.9772,8.0897,8.2068,8.2754,8.298,8.3332,8.3984,8.3978,8.3874,8.3808,8.2996,8.2373,8.2303,8.1454,8.0746,8.0567,7.9347,7.84,7.8366,7.7286,7.6712,7.6677,7.6677,7.651,7.5437,7.1816,6.7831,6.4738,6.3876,6.3201,6.2143,6.3752,6.564,6.5953,6.735,6.8833,6.9662,7.0241,7.0625,7.0706,7.1419,7.2182,7.2513,7.2368,7.2258,7.2762,7.2904,7.2869,7.2976,7.1829,7.037,9.0267,9.0642,9.1966,9.2493,9.2546,9.3419,9.4643,9.6005,9.6005,9.6312,9.6696,9.6471,9.5836,9.4869,9.4835,9.4143,9.3001,9.2966,9.2309,9.1053,9.1053,9.0396,8.9245,9.0465,8.9635,8.7102,8.8416,8.8381,8.686,8.686,8.6454,8.5555,8.4696,8.2719,7.9814,0.0,0.0,0.0,7.6529,7.712,7.6514,7.72,7.6346,7.4015,7.7496,0.0,7.7617,7.8269,7.8012,7.6772,7.6503,0.0,0.0,0.0,0.0,0.0,0.0,0.0,0.0,0.0,0.0,0.0,7.5944,7.5206,7.3214,7.4355,7.5704,7.6849,7.762,7.8452,7.937,8.0283,8.0984,8.1267,8.0883,8.0738,8.0911,7.9373,7.802,7.7778,7.6798,7.6041,7.5735,7.5027,7.4538,7.4294,7.4369,7.3588,7.18,6.6565,6.2235,6.0041,5.9776,5.9173,5.8028,6.0763,6.3019,6.3502,6.5303,6.7277,6.8828,6.9428,6.96,6.9898,7.0448,7.119,7.211,7.1777,7.1697,7.2726,7.2511,7.2364,7.2975,7.2683,7.1638,9.1893,9.3078,9.3521,9.3691,9.3555,9.2399,9.2687,9.389,9.389,9.4063,9.4235,9.3259,9.2006,9.0605,9.0652,9.0516,9.0297,9.0263,9.0195,8.999,9.0024,8.9887,8.9716,8.9921,8.9101,8.7643,8.8998,8.8977,8.7575,8.7541,8.8088,8.8951,8.7062,8.519,8.3448,7.7835,7.299,6.9256,7.1941,7.4546,7.6661,7.5437,7.2861,6.9102,7.0169,6.9237,6.5723,6.8831,7.0023,6.8658,6.7636,6.7671,6.9002,6.8217,6.7781,0.0,6.9428,0.0,0.0,0.0,0.0,0.0,0.0,0.0,0.0,7.2742,7.3785,7.4022,7.6315,7.7357,7.6281,7.6545,7.7255,7.8518,7.8767,7.937,8.0536,8.0478,7.982,7.8561,7.6552,7.4718,7.333,7.0316,6.8319,6.8436,6.7575,6.5849,6.3236,6.138,5.9563,5.7803,5.7497,5.7534,5.7672,5.9204,6.0919,6.2106,6.36,6.5305,6.7544,6.8167,6.8572,6.9461,6.9931,7.0448,7.1312,7.1395,7.1625,7.269,7.3323,7.3629,7.3762,7.3716,7.2991,9.0684,9.1213,9.1381,9.1437,9.1414,9.1614,9.1614,9.1525,9.2229,9.2587,9.2613,9.1207,9.0253,8.9592,8.9558,8.9427,8.9182,8.9182,8.8901,8.8416,8.8383,8.8416,8.8416,8.8416,8.808,8.7475,8.8114,8.808,8.7441,8.6684,8.5776,8.4718,8.287,8.0037,7.6065,7.3321,7.1113,6.9481,7.0812,7.2487,7.4448,7.5132,7.3979,7.1046,7.1867,7.1355,6.9201,7.0809,7.0626,6.8097,6.8099,6.7761,6.6826,6.4368,6.3735,0.0,0.0,0.0,0.0,0.0,0.0,0.0,0.0,0.0,0.0,0.0,6.7039,6.6449,7.0952,7.3042,7.0938,7.3382,7.4935,7.481,7.4578,7.5047,7.662,7.6332,7.5537,7.4244,7.3519,7.2222,6.9964,6.8075,6.6684,6.5956,6.2865,5.9976,5.8422,5.7827,5.71,5.5865,5.5606,5.5682,5.582,5.753,5.9313,6.0642,6.2433,6.454,6.6939,6.7553,6.7998,6.9112,6.9461,6.9898,7.0787,7.0706,7.0873,7.2258,7.3289,7.3731,7.3829,7.4225,7.4007,8.895,8.9145,8.7074,8.6794,8.7828,8.9026,8.9558,8.974,9.0681,9.0969,9.0651,8.9383,8.8207,8.7001,8.6342,8.6213,8.6402,8.6736,8.686,8.6772,8.6806,8.6806,8.6806,8.6528,8.6495,8.6706,8.5854,8.5774,8.639,8.414,8.1885,7.9726,7.7061,7.3039,6.7948,6.818,6.8749,6.9278,6.9553,7.0111,7.0885,7.2228,7.225,7.0679,7.1006,7.1024,7.0536,7.0826,6.9777,6.7171,6.6936,6.5882,6.3518,5.9499,0.0,0.0,0.0,0.0,0.0,0.0,0.0,0.0,0.0,5.9413,5.47,0.0,6.0856,0.0,6.55,6.828,6.6897,6.9569,0.0,0.0,6.999,7.0174,7.1737,7.1953,7.1458,7.0232,7.0538,6.9834,6.7242,6.6059,6.4946,6.3649,5.9611,5.6529,5.5806,5.556,5.5078,5.4455,5.4292,5.4244,5.4466,5.591,5.7517,5.9225,6.0977,6.3204,6.6263,6.6786,6.7288,6.8726,6.9068,6.9557,7.0463,7.0241,7.0496,7.1663,7.2442,7.2941,7.356,7.4122,7.4171,8.752,8.8348,8.0393,7.9342,8.2907,8.3121,8.5397,8.9007,8.916,8.8685,8.7801,8.7555,8.4745,8.0127,7.7545,0.0,0.0,8.1309,8.3113,8.5472,8.5472,8.5472,8.5407,8.4278,8.431,8.5374,8.1728,8.1465,8.4026,7.9273,7.6877,7.6902,7.0825,6.6103,6.3008,6.3293,6.4235,6.5552,6.6612,6.67,6.5737,6.4158,6.3281,6.3134,6.1632,6.0932,6.0866,6.2225,6.2847,6.2454,5.8593,5.6409,5.6263,0.0,0.0,0.0,0.0,0.0,0.0,0.0,0.0,0.0,0.0,0.0,0.0,0.0,0.0,0.0,6.1741,0.0,6.6112,6.4536,0.0,0.0,0.0,6.5415,6.6907,6.9293,7.0346,6.8943,0.0,0.0,6.6702,0.0,6.0706,5.9685,5.7193,5.5514,5.5421,5.4653,5.404,5.3621,5.3679,5.3748,5.3777,5.4138,5.5214,5.7623,5.8596,6.044,6.4377,6.5415,6.6371,6.8219,6.8824,6.932,7.0182,7.0463,7.0625,7.0558,7.0833,7.154,7.3046,7.3594,7.3467,7.965,7.5142,7.168,7.2071,7.487,7.481,7.6724,7.9887,8.0013,7.9386,7.8192,7.839,7.6423,7.2742,7.1784,0.0,0.0,0.0,7.5804,7.8598,7.7659,7.8622,8.1003,8.0589,8.0703,8.1288,7.9714,7.9831,8.1421,7.8406,7.2542,6.3854,0.0,0.0,5.5041,5.7833,6.0119,6.1611,6.3605,6.4405,6.3918,6.2191,6.1085,6.0634,5.9209,5.8798,5.9645,5.8779,5.7267,5.5138,5.3503,5.1296,0.0,0.0,0.0,0.0,0.0,0.0,0.0,0.0,0.0,0.0,0.0,5.0645,4.8362,0.0,0.0,0.0,5.3178,5.4682,5.704,5.9533,0.0,0.0,0.0,0.0,0.0,0.0,0.0,6.6564,6.7244,6.6904,6.4709,6.027,5.7055,5.6673,5.4525,5.3041,5.3041,0.0,5.1166,5.1062,5.1062,5.1142,5.1218,5.1812,5.2661,5.3788,5.5949,5.881,6.2157,6.408,6.5656,6.7197,6.8219,6.8913,6.9254,6.9351,6.9514,6.9822,7.0166,7.0787,7.1924,7.2406,7.2489,7.0388,0.0,0.0,0.0,0.0,6.6552,6.8075,7.0478,7.0842,7.0325,6.9144,7.0055,0.0,0.0,0.0,0.0,0.0,0.0,6.8792,7.0991,7.1583,7.3353,7.6004,7.5574,7.5868,7.676,7.4911,7.4611,7.5638,7.3425,6.6107,5.4123,0.0,0.0,0.0,0.0,5.4968,5.6646,5.9227,6.0694,6.1059,5.947,5.8252,5.7496,5.5505,5.4977,5.6026,5.3659,5.1032,4.8428,4.7109,0.0,0.0,0.0,0.0,0.0,0.0,0.0,0.0,0.0,0.0,0.0,0.0,0.0,0.0,0.0,0.0,0.0,0.0,0.0,4.9709,5.3905,5.6278,0.0,0.0,0.0,0.0,0.0,0.0,0.0,0.0,0.0,6.0798,5.7066,5.4518,0.0,0.0,5.1014,5.0934,4.9691,4.8803,4.8694,0.0,0.0,0.0,4.9261,5.0112,5.0097,5.336,5.6949,5.9773,6.1813,6.3534,6.5123,6.6505,6.7137,6.6572,6.6637,6.7027,6.7487,6.784,6.8385,6.9153,6.9034,6.8784,0.0,0.0,0.0,0.0,0.0,0.0,0.0,0.0,6.3126,6.2883,0.0,6.4072,0.0,0.0,0.0,0.0,0.0,0.0,0.0,0.0,6.8819,7.131,7.0391,6.8872,6.9617,7.2022,6.605,6.4259,6.6094,6.191,0.0,0.0,0.0,0.0,0.0,0.0,4.8424,5.0355,5.3092,5.4935,5.5939,5.4506,5.3282,5.2337,4.8958,4.7375,4.757,4.5363,4.37,4.2975,3.831,0.0,0.0,0.0,0.0,0.0,0.0,0.0,0.0,0.0,0.0,0.0,0.0,0.0,0.0,0.0,0.0,0.0,0.0,0.0,0.0,4.756,0.0,0.0,0.0,0.0,0.0,0.0,0.0,0.0,0.0,0.0,5.4578,5.3954,5.3374,5.1971,0.0,0.0,0.0,0.0,4.7331,4.6973,4.6061,4.5408,4.5399,4.6578,4.7594,4.7706,0.0,0.0,5.7794,5.8469,5.9327,6.1562,6.3419,6.3739,6.1589,6.2216,6.2937,6.2977,6.3362,6.3604,6.4372,6.3828,6.262,0.0,0.0,0.0,0.0,0.0,0.0,0.0,0.0,0.0,0.0,0.0,5.7913,0.0,0.0,0.0,0.0,0.0,0.0,0.0,0.0,5.6771,5.821,5.8987,5.9533,6.0307,0.0,5.9355,5.7115,0.0,0.0,0.0,0.0,0.0,0.0,0.0,0.0,4.8074,4.7757,5.1715,5.3336,5.21,5.1127,5.0146,4.8967,4.7442,4.5737,4.4018,4.043,3.8423,0.0,0.0,0.0,0.0,0.0,0.0,0.0,0.0,0.0,0.0,0.0,0.0,0.0,0.0,0.0,0.0,0.0,0.0,0.0,0.0,0.0,0.0,0.0,4.7348,0.0,0.0,0.0,0.0,0.0,0.0,0.0,0.0,0.0,5.2286,5.0965,5.0016,4.9363,4.7508,4.6101,4.5839,0.0,0.0,0.0,0.0,0.0,0.0,0.0,4.4708,4.4907,4.7232,5.0007,5.3113,5.5607,5.8005,6.0596,0.0,0.0,5.9942,6.0814,6.1844,6.2336,6.3101,6.3523,6.3331,6.4123,6.422,0.0,0.0,0.0,0.0,0.0,0.0,0.0,0.0,0.0,5.1859,5.1662,0.0,0.0,0.0,0.0,0.0,0.0,0.0,0.0,0.0,0.0,0.0,5.0523,5.1223,0.0,0.0,0.0,0.0,0.0,0.0,0.0,0.0,0.0,0.0,0.0,0.0,4.6927,4.5544,4.9046,5.038,4.9111,4.7481,4.6267,4.5727,4.4853,4.3013,4.0024,0.0,0.0,0.0,0.0,0.0,0.0,0.0,0.0,0.0,0.0,0.0,0.0,0.0,0.0,0.0,0.0,0.0,0.0,0.0,0.0,0.0,0.0,0.0,0.0,0.0,4.5559,0.0,0.0,0.0,0.0,0.0,0.0,0.0,0.0,0.0,0.0,0.0,4.7764,4.6313,4.4352,4.2839,4.2225,4.0241,3.8787,0.0,0.0,0.0,0.0,0.0,0.0,0.0,0.0,0.0,0.0,0.0,0.0,0.0,0.0,5.6746,5.6468,5.7856,5.9088,5.9091,0.0,0.0,0.0,0.0,0.0,0.0,0.0,0.0,0.0,0.0,0.0,0.0,0.0,0.0,0.0,0.0,0.0,0.0,4.5634,0.0,0.0,0.0,0.0,0.0,0.0,0.0,0.0,0.0,0.0,0.0,0.0,0.0,0.0,0.0,0.0,0.0,0.0,0.0,0.0,0.0,0.0,4.4728,4.3331,4.491,4.6053,4.6851,4.3423,4.1963,4.2588,4.0845,3.8467,3.5541,0.0,0.0,0.0,0.0,0.0,0.0,0.0,0.0,0.0,0.0,0.0,0.0,0.0,0.0,0.0,0.0,0.0,0.0,0.0,0.0,0.0,0.0,0.0,0.0,0.0,0.0,4.3515,4.6893,5.0423,0.0,0.0,0.0,0.0,0.0,0.0,0.0,0.0,0.0,0.0,4.1343,4.0075,3.8765,3.723,3.5782,3.4321,3.3298,3.2661,3.2555,3.4921,3.6818,0.0,0.0,0.0,0.0,0.0,0.0,0.0,0.0,0.0,0.0,0.0,0.0,0.0,0.0,0.0,0.0,0.0,0.0,0.0,0.0,0.0,0.0,0.0,0.0,0.0,0.0,0.0,0.0,0.0,0.0,0.0,0.0,0.0,0.0,0.0,0.0,0.0,0.0,0.0,0.0,0.0,0.0,0.0,0.0,0.0,0.0,0.0,0.0,0.0,0.0,0.0,0.0,0.0,0.0,4.5155,4.2428,4.6278,4.7336,4.5317,4.4506,4.3493,4.2182,4.0041,3.7345,0.0,0.0,0.0,0.0,0.0,0.0,0.0,0.0,0.0,0.0,0.0,0.0,0.0,0.0,0.0,0.0,0.0,0.0,0.0,0.0,0.0,0.0,0.0,0.0,0.0,0.0,0.0,0.0,4.9178,5.0906,5.3001,0.0,0.0,0.0,0.0,0.0,0.0,0.0,0.0,0.0,0.0,3.8256,3.8073,3.5645,3.3482,3.2645,3.2043,3.1385,3.0409,3.3776,3.6583,3.7058,0.0,0.0,0.0,0.0,0.0,0.0,0.0,0.0,0.0,0.0,0.0,0.0,0.0,0.0,0.0,0.0,0.0,0.0,0.0,0.0,0.0,0.0,0.0,0.0,0.0,0.0,0.0,0.0,0.0,0.0,0.0,0.0,0.0,0.0,0.0,0.0,0.0,0.0,0.0,0.0,0.0,0.0,0.0,0.0,0.0,0.0,0.0,0.0,0.0,0.0,0.0,0.0,0.0,4.4871,4.2309,4.5697,4.6331,4.3949,4.3098,4.1708,3.9772,3.8151,3.5369,0.0,0.0,0.0,0.0,0.0,0.0,0.0,0.0,0.0,0.0,0.0,0.0,0.0,0.0,0.0,0.0,0.0,0.0,0.0,0.0,0.0,0.0,0.0,0.0,0.0,0.0,0.0,0.0,4.982,5.0885,5.2211,0.0,0.0,0.0,0.0,0.0,0.0,0.0,0.0,0.0,0.0,3.6056,3.4833,3.3164,0.0,0.0,3.0486,3.0411,2.9782,3.3555,3.6678,3.7108,4.1057,0.0,0.0,0.0,0.0,0.0,0.0,0.0,0.0,0.0,0.0,0.0,0.0,0.0,0.0,0.0,0.0,0.0,0.0,0.0,0.0,0.0,0.0,0.0,0.0,0.0,0.0,0.0,0.0,0.0,0.0,0.0,0.0,0.0,0.0,0.0,0.0,0.0,0.0,0.0,0.0,0.0,0.0,0.0,0.0,0.0,0.0,0.0,0.0,0.0,0.0,0.0,0.0,0.0,4.2609,4.3634,4.3778,4.2751,4.0037,3.769,3.5919,3.532,3.2773,0.0,0.0,0.0,0.0,0.0,0.0,0.0,0.0,0.0,0.0,0.0,0.0,0.0,0.0,0.0,0.0,0.0,0.0,0.0,0.0,0.0,0.0,0.0,0.0,0.0,0.0,0.0,0.0,0.0,0.0,0.0,0.0,0.0,0.0,0.0,0.0,0.0,0.0,0.0,0.0,0.0,3.3887,3.0226,3.0445,3.0304,0.0,0.0,3.0173,3.07,3.4341,3.7285,3.7989,0.0,0.0,0.0,0.0,0.0,0.0,0.0,0.0,0.0,0.0,0.0,0.0,0.0,0.0,0.0,0.0,0.0,0.0,0.0,0.0,0.0,0.0,0.0,0.0,0.0,0.0,0.0,0.0,0.0,0.0,0.0,0.0,0.0,0.0,0.0,0.0,0.0,0.0,0.0,0.0,0.0,0.0,0.0,0.0,0.0,0.0,0.0,0.0,0.0,0.0,0.0,0.0,0.0,0.0,4.1927,4.3974,4.431,4.2947,4.0703,3.8191,3.5454,3.2806,0.0,0.0,0.0,0.0,0.0,0.0,0.0,0.0,0.0,0.0,0.0,0.0,0.0,0.0,0.0,0.0,0.0,0.0,0.0,0.0,0.0,0.0,0.0,0.0,0.0,0.0,0.0,4.7386,0.0,0.0,0.0,0.0,0.0,0.0,0.0,0.0,0.0,0.0,0.0,0.0,0.0,0.0,3.4432,3.2435,3.162,3.1206,0.0,0.0,3.4365,3.5153,3.8215,4.169,0.0,0.0,0.0,0.0,0.0,0.0,0.0,0.0,0.0,0.0,0.0,0.0,0.0,0.0,0.0,0.0,0.0,0.0,0.0,0.0,0.0,0.0,0.0,0.0,0.0,0.0,0.0,0.0,0.0,0.0,0.0,0.0,0.0,0.0,0.0,0.0,0.0,0.0,0.0,0.0,0.0,0.0,0.0,0.0,0.0,0.0,0.0,0.0,0.0,0.0,0.0,0.0,0.0,0.0,4.1212,4.062,4.1198,4.1338,4.0883,3.7899,3.5024,3.2378,3.0003,2.7636,0.0,0.0,0.0,0.0,0.0,0.0,0.0,0.0,0.0,0.0,0.0,0.0,0.0,0.0,0.0,0.0,0.0,0.0,0.0,0.0,0.0,0.0,0.0,0.0,0.0,0.0,0.0,0.0,0.0,0.0,0.0,0.0,0.0,0.0,0.0,0.0,0.0,0.0,0.0,0.0,0.0,0.0,3.3169,3.3158,0.0,0.0,0.0,3.91,3.9503,0.0,0.0,0.0,0.0,0.0,0.0,0.0,0.0,0.0,0.0,0.0,0.0,0.0,0.0,0.0,0.0,0.0,0.0,0.0,0.0,0.0,0.0,0.0,0.0,0.0,0.0,0.0,0.0,0.0,0.0,0.0,0.0,0.0,0.0,0.0,0.0,0.0,0.0,0.0,0.0,0.0,0.0,0.0,0.0,0.0,0.0,0.0,0.0,0.0,0.0,0.0,0.0,0.0,0.0,0.0,0.0,0.0,3.917,3.7358,3.6783,3.7414,3.3502,3.0171,2.7747,2.6509,2.4953,0.0,0.0,0.0,0.0,0.0,0.0,0.0,0.0,0.0,0.0,0.0,0.0,0.0,0.0,0.0,0.0,0.0,0.0,0.0,0.0,0.0,0.0,0.0,0.0,0.0,0.0,0.0,0.0,0.0,0.0,0.0,0.0,0.0,0.0,0.0,0.0,0.0,0.0,0.0,0.0,0.0,3.5651,3.3721,3.5074,3.6328,0.0,0.0,4.3945,4.4117,4.7398,0.0,0.0,0.0,0.0,0.0,0.0,0.0,0.0,0.0,0.0,0.0,0.0,0.0,0.0,0.0,0.0,0.0,0.0,0.0,0.0,0.0,0.0,0.0,0.0,0.0,0.0,0.0,0.0,0.0,0.0,0.0,0.0,0.0,0.0,0.0,0.0,0.0,0.0,0.0,0.0,0.0,0.0,0.0,0.0,0.0,0.0,0.0,0.0,0.0,0.0,0.0,0.0,0.0,0.0,0.0,0.0,3.9156,3.6782,3.4869,3.3554,3.0999,2.7239,2.2235,2.1016,2.1027,0.0,0.0,0.0,0.0,0.0,0.0,0.0,0.0,0.0,0.0,0.0,0.0,0.0,0.0,0.0,0.0,0.0,0.0,0.0,0.0,0.0,0.0,0.0,0.0,0.0,0.0,0.0,0.0,0.0,0.0,0.0,0.0,0.0,0.0,0.0,0.0,0.0,0.0,0.0,0.0,0.0,3.8211,3.7191,3.7737,0.0,0.0,0.0,0.0,5.0623,4.9932,0.0,0.0,0.0,0.0,0.0,0.0,0.0,0.0,0.0,0.0,0.0,0.0,0.0,0.0,0.0,0.0,0.0,0.0,0.0,0.0,0.0,0.0,0.0,0.0,0.0,0.0,0.0,0.0,0.0,0.0,0.0,0.0,0.0,0.0,0.0,0.0,0.0,0.0,0.0,0.0,0.0,0.0,0.0,0.0,0.0,0.0,0.0,0.0,0.0,0.0,0.0,0.0,0.0,0.0,0.0,0.0,3.7193,3.3853,3.1519,3.0348,2.6742,2.257,1.7841,1.5472,1.5492,0.0,0.0,0.0,0.0,0.0,0.0,0.0,0.0,0.0,0.0,0.0,0.0,0.0,0.0,0.0,0.0,0.0,0.0,0.0,0.0,0.0,0.0,0.0,0.0,0.0,0.0,0.0,0.0,0.0,0.0,0.0,0.0,0.0,0.0,0.0,0.0,0.0,0.0,0.0,0.0,4.3956,4.0739,3.934,0.0,0.0,0.0,0.0,0.0,0.0,5.0798,5.0278,0.0,0.0,0.0,0.0,0.0,0.0,0.0,0.0,0.0,0.0,0.0,0.0,0.0,0.0,0.0,0.0,0.0,0.0,0.0,0.0,0.0,0.0,0.0,0.0,0.0,0.0,0.0,0.0,0.0,0.0,0.0,0.0,0.0,0.0,0.0,0.0,0.0,0.0,0.0,0.0,0.0,0.0,0.0,0.0,0.0,0.0,0.0,0.0,0.0,0.0,0.0,0.0,0.0,0.0,0.0,3.5242,3.0995,2.8306,2.7343,2.2352,1.7734,1.3735,1.0081,0.9683,1.2702,0.0,0.0,0.0,0.0,0.0,0.0,0.0,0.0,0.0,0.0,0.0,0.0,0.0,0.0,0.0,0.0,0.0,0.0,0.0,0.0,0.0,0.0,0.0,0.0,0.0,0.0,0.0,0.0,0.0,0.0,0.0,0.0,0.0,0.0,0.0,0.0,0.0,0.0,0.0,4.5753,4.3648,0.0,0.0,0.0,0.0,0.0,0.0,0.0,0.0,4.923,0.0,0.0,0.0,0.0,0.0,0.0,0.0,0.0,0.0,0.0,0.0,0.0,0.0,0.0,0.0,0.0,0.0,0.0,0.0,0.0,0.0,0.0,0.0,0.0,0.0,0.0,0.0,0.0,0.0,0.0,0.0,0.0,0.0,0.0,0.0,0.0,0.0,0.0,0.0,0.0,0.0,0.0,0.0,0.0,0.0,0.0,0.0,0.0,0.0,0.0,0.0,0.0,0.0,0.0,0.0,0.0,3.0855,2.7245,2.4092,1.9821,1.4849,0.9149,0.5379,0.4961,0.8293,0.0,0.0,0.0,0.0,0.0,0.0,0.0,0.0,0.0,0.0,0.0,0.0,0.0,0.0,0.0,0.0,0.0,0.0,0.0,0.0,0.0,0.0,0.0,0.0,0.0,0.0,0.0,0.0,0.0,0.0,0.0,0.0,0.0,0.0,0.0,0.0,0.0,0.0,4.9219,4.8975,0.0,0.0,0.0,0.0,0.0,0.0,0.0,0.0,4.7341,0.0,0.0,0.0,0.0,0.0,0.0,0.0,0.0,0.0,0.0,0.0,0.0,0.0,0.0,0.0,0.0,0.0,0.0,0.0,0.0,0.0,0.0,0.0,0.0,0.0,0.0,0.0,0.0,0.0,0.0,0.0,0.0,0.0,0.0,0.0,0.0,0.0,0.0,0.0,0.0,0.0,0.0,0.0,0.0,0.0,0.0,0.0,0.0,0.0,0.0,0.0,0.0,0.0,0.0,0.0,0.0,0.0,0.0,2.6724,2.1894,1.7363,1.2133,0.5948,-0.1438,-0.1567,0.0,0.0,0.0,0.0,0.0,0.0,0.0,0.0,0.0,0.0,0.0,0.0,0.0,0.0,0.0,0.0,0.0,0.0,0.0,0.0,0.0,0.0,0.0,0.0,0.0,0.0,0.0,0.0,0.0,0.0,0.0,0.0,0.0,0.0,0.0,0.0,0.0,0.0,0.0,0.0,0.0,0.0,0.0,0.0,0.0,0.0,0.0,0.0,0.0,0.0,0.0,0.0,0.0,0.0,0.0,0.0,0.0,0.0,0.0,0.0,0.0,0.0,0.0,0.0,0.0,0.0,0.0,0.0,0.0,0.0,0.0,0.0,0.0,0.0,0.0,0.0,0.0,0.0,0.0,0.0,0.0,0.0,0.0,0.0,0.0,0.0,0.0,0.0,0.0,0.0,0.0,0.0,0.0,0.0,0.0,0.0,0.0,0.0,0.0,0.0,0.0,0.0,0.0,0.0,0.0,0.0,0.0,0.0,2.631,2.0491,1.5132,0.9644,0.3854,-0.5122,-0.4519,0.0,0.0,0.0,0.0,0.0,0.0,0.0,0.0,0.0,0.0,0.0,0.0,0.0,0.0,0.0,0.0,0.0,0.0,0.0,0.0,0.0,0.0,0.0,0.0,0.0,0.0,0.0,0.0,0.0,0.0,0.0,0.0,0.0,0.0,0.0,0.0,0.0,0.0,0.0,0.0,0.0,0.0,0.0,0.0,0.0,0.0,0.0,0.0,4.649,0.0,0.0,0.0,0.0,0.0,0.0,0.0,0.0,0.0,0.0,0.0,0.0,0.0,0.0,0.0,0.0,0.0,0.0,0.0,0.0,0.0,0.0,0.0,0.0,0.0,0.0,0.0,0.0,0.0,0.0,0.0,0.0,0.0,0.0,0.0,0.0,0.0,0.0,0.0,0.0,0.0,0.0,0.0,0.0,0.0,0.0,0.0,0.0,0.0,0.0,0.0,0.0,0.0,0.0,0.0,0.0,0.0,0.0,0.0,2.5892,2.0304,1.3501,0.7624,0.2847,-0.0656,0.1689,0.0,0.0,0.0,0.0,0.0,0.0,0.0,0.0,0.0,0.0,0.0,0.0,0.0,0.0,0.0,0.0,0.0,0.0,0.0,0.0,0.0,0.0,0.0,0.0,0.0,0.0,0.0,0.0,0.0,0.0,0.0,0.0,0.0,0.0,0.0,0.0,0.0,0.0,0.0,0.0,0.0,0.0,0.0,0.0,0.0,0.0,0.0,0.0,0.0,0.0,0.0,0.0,0.0,0.0,0.0,0.0,0.0,0.0,0.0,0.0,0.0,0.0,0.0,0.0,0.0,0.0,0.0,0.0,0.0,0.0,0.0,0.0,0.0,0.0,0.0,0.0,0.0,0.0,0.0,0.0,0.0,0.0,0.0,0.0,0.0,0.0,0.0,0.0,0.0,0.0,0.0,0.0,0.0,0.0,0.0,0.0,0.0,0.0,0.0,0.0,0.0,0.0,0.0,0.0,0.0,0.0,0.0,0.0,2.6492,2.0635,1.3197,0.843,0.6528,0.3389,0.5758,0.0,0.0,0.0,0.0,0.0,0.0,0.0,0.0,0.0,0.0,0.0,0.0,0.0,0.0,0.0,0.0,0.0,0.0,0.0,0.0,0.0,0.0,0.0,0.0,0.0,0.0,0.0,0.0,0.0,0.0,0.0,0.0,0.0,0.0,0.0,0.0,0.0,0.0,0.0,0.0,0.0,0.0,0.0,0.0,0.0,0.0,0.0,0.0,0.0,0.0,0.0,0.0,0.0,0.0,0.0,0.0,0.0,0.0,0.0,0.0,0.0,0.0,0.0,0.0,0.0,0.0,0.0,0.0,0.0,0.0,0.0,0.0,0.0,0.0,0.0,0.0,0.0,0.0,0.0,0.0,0.0,0.0,0.0,0.0,0.0,0.0,0.0,0.0,0.0,0.0,0.0,0.0,0.0,0.0,0.0,0.0,0.0,0.0,0.0,0.0,0.0,0.0,0.0,0.0,0.0,0.0,0.0,0.0,0.0,2.1018,1.4919,1.1733,1.1699,0.903,1.1155,0.0,0.0,0.0,0.0,0.0,0.0,0.0,0.0,0.0,0.0,0.0,0.0,0.0,0.0,0.0,0.0,0.0,0.0,0.0,0.0,0.0,0.0,0.0,0.0,0.0,0.0,0.0,0.0,0.0,0.0,0.0,0.0,0.0,0.0,0.0,0.0,0.0,0.0,0.0,0.0,0.0,0.0,0.0,0.0,0.0,0.0,0.0,0.0,0.0,0.0,0.0,0.0,0.0,0.0,0.0,0.0,0.0,0.0,0.0,0.0,0.0,0.0,0.0,0.0,0.0,0.0,0.0,0.0,0.0,0.0,0.0,0.0,0.0,0.0,0.0,0.0,0.0,0.0,0.0,0.0,0.0,0.0,0.0,0.0,0.0,0.0,0.0,0.0,0.0,0.0,0.0,0.0,0.0,0.0,0.0,0.0,0.0,0.0,0.0,0.0,0.0,0.0,0.0,0.0,0.0,0.0,0.0,0.0,0.0,2.124,1.9419,1.8388,1.8188,1.7513,1.9238,0.0,0.0,0.0,0.0,0.0,0.0,0.0,0.0,0.0,0.0,0.0,0.0,0.0,0.0,0.0,0.0,0.0,0.0,0.0,0.0,0.0,0.0,0.0,0.0,0.0,0.0,0.0,0.0,0.0,0.0,0.0,0.0,0.0,0.0,0.0,0.0,0.0,0.0,0.0,0.0,0.0,0.0,0.0,0.0,0.0,0.0,0.0,0.0,0.0,0.0,0.0,0.0,0.0,0.0,0.0,0.0,0.0,0.0,0.0,0.0,0.0,0.0,0.0,0.0,0.0,0.0,0.0,0.0,0.0,0.0,0.0,0.0,0.0,0.0,0.0,0.0,0.0,0.0,0.0,0.0,0.0,0.0,0.0,0.0,0.0,0.0,0.0,0.0,0.0,0.0,0.0,0.0,0.0,0.0,0.0,0.0,0.0,0.0,0.0,0.0,0.0,0.0,0.0,0.0,0.0,0.0,0.0,0.0,0.0,3.0351,2.8443,2.6929,2.5737,2.7054,2.754,2.6992,0.0,0.0,0.0,0.0,0.0,0.0,0.0,0.0,0.0,0.0,0.0,0.0,0.0,0.0,0.0,0.0,0.0,0.0,0.0,0.0,0.0,0.0,0.0,0.0,0.0,0.0,0.0,0.0,0.0,0.0,0.0,0.0,0.0,0.0,0.0,0.0,0.0,0.0,0.0,0.0,0.0,0.0,0.0,0.0,0.0,0.0,0.0,0.0,0.0,0.0,0.0,0.0,0.0,0.0,0.0,0.0,0.0,0.0,0.0,0.0,0.0,0.0,0.0,0.0,0.0,0.0,0.0,0.0,0.0,0.0,0.0,0.0,0.0,0.0,0.0,0.0,0.0,0.0,0.0,0.0,0.0,0.0,0.0,0.0,0.0,0.0,0.0,0.0,0.0,0.0,0.0,0.0,0.0,0.0,0.0,0.0,0.0,0.0,0.0,0.0,0.0,0.0,0.0,0.0,0.0,0.0,0.0,0.0,3.6703,3.4684,3.315,3.22,3.4096,3.3631,0.0,0.0,0.0,0.0,0.0,0.0,0.0,0.0,0.0,0.0,0.0,0.0,0.0,0.0,0.0,0.0,0.0,0.0,0.0,0.0,0.0,0.0,0.0,0.0,0.0,0.0,0.0,0.0,0.0,0.0,0.0,0.0,0.0,0.0,0.0,0.0,0.0,0.0,0.0,0.0,0.0,0.0,0.0,0.0,0.0,0.0,0.0,0.0,0.0,0.0,0.0,0.0,0.0,0.0,0.0,0.0,0.0,0.0,0.0,0.0,0.0,0.0,0.0,0.0,0.0,0.0,0.0,0.0,0.0,0.0,0.0,0.0,0.0,0.0,0.0,0.0,0.0,0.0,0.0,0.0,0.0,0.0,0.0,0.0,0.0,0.0,0.0,0.0,0.0,0.0,0.0,0.0,0.0,0.0,0.0,0.0,0.0,0.0,0.0,0.0,0.0,0.0,0.0,0.0,0.0,0.0,0.0,0.0,4.4692,3.8936,3.7215,3.6508,3.6696,3.777,3.6955,0.0,0.0,0.0,0.0,0.0,0.0,0.0,0.0,0.0,0.0,0.0,0.0,0.0,0.0,0.0,0.0,0.0,0.0,0.0,0.0,0.0,0.0,0.0,0.0,0.0,0.0,0.0,0.0,0.0,0.0,0.0,0.0,0.0,0.0,0.0,0.0,0.0,0.0,0.0,0.0,0.0,0.0,0.0,0.0,0.0,0.0,0.0,0.0,0.0,0.0,0.0,0.0,0.0,0.0,0.0,0.0,0.0,0.0,0.0,0.0,0.0,0.0,0.0,0.0,0.0,0.0,0.0,0.0,0.0,0.0,0.0,0.0,0.0,0.0,0.0,0.0,0.0,0.0,0.0,0.0,0.0,0.0,0.0,0.0,0.0,0.0,0.0,0.0,0.0,0.0,0.0,0.0,0.0,0.0,0.0,0.0,0.0,0.0,0.0,0.0,0.0,0.0,0.0,0.0,0.0,0.0,0.0,0.0,0.0,4.4034,0.0,4.0901,0.0,3.8173,3.579,0.0,0.0,0.0,0.0,0.0,0.0,0.0,0.0,0.0,0.0,0.0,0.0,0.0,0.0,0.0,0.0,0.0,0.0,0.0,0.0,0.0,0.0,0.0,0.0,0.0,0.0,0.0,0.0,0.0,0.0,0.0,0.0,0.0,0.0,0.0,0.0,0.0,0.0,0.0,0.0,0.0,0.0,0.0,0.0,0.0,0.0,0.0,0.0,0.0,0.0,0.0,0.0,0.0,0.0,0.0,0.0,0.0,0.0,0.0,0.0,0.0,0.0,0.0,0.0,0.0,0.0,0.0,0.0,0.0,0.0,0.0,0.0,0.0,0.0,0.0,0.0,0.0,0.0,0.0,0.0,0.0,0.0,0.0,0.0,0.0,0.0,0.0,0.0,0.0,0.0,0.0,0.0,0.0,0.0,0.0,0.0,0.0,0.0,0.0,0.0,0.0,0.0,0.0,0.0,0.0,0.0,0.0,0.0,0.0,4.4539,4.3774,4.2345,4.034,3.9352,3.6238,0.0,0.0,0.0,0.0,0.0,0.0,0.0,0.0,0.0,0.0,0.0,0.0,0.0,0.0,0.0,0.0,0.0,0.0,0.0,0.0,0.0,0.0,0.0,0.0,0.0,0.0,0.0,0.0,0.0,0.0,0.0,0.0,0.0,0.0,0.0,0.0,0.0,0.0,0.0,0.0,0.0,0.0,0.0,0.0,0.0,0.0,0.0,0.0,0.0,0.0,0.0,0.0,0.0,0.0,0.0,0.0,0.0,0.0,0.0,0.0,0.0,0.0,0.0,0.0,0.0,0.0,0.0,0.0,0.0,0.0,0.0,0.0,0.0,0.0,0.0,0.0,0.0,0.0,0.0,0.0,0.0,0.0,0.0,0.0,0.0,0.0,0.0,0.0,0.0,0.0,0.0,0.0,0.0,0.0,0.0,0.0,0.0,0.0,0.0,0.0,0.0,0.0,0.0,0.0,0.0,0.0,0.0,0.0,0.0,0.0,4.2293,4.1215,3.7879,4.0842,3.7909,0.0,0.0,0.0,0.0,0.0,0.0,0.0,0.0,0.0,0.0,0.0,0.0,0.0,0.0,0.0,0.0,0.0,0.0,0.0,0.0,0.0,0.0,0.0,0.0,0.0,0.0,0.0,0.0,0.0,0.0,0.0,0.0,0.0,0.0,0.0,0.0,0.0,0.0,0.0,0.0,0.0,0.0,0.0,0.0,0.0,0.0,0.0,0.0,0.0,0.0,0.0,0.0,0.0,0.0,0.0,0.0,0.0,0.0,0.0,0.0,0.0,0.0,0.0,0.0,0.0,0.0,0.0,0.0,0.0,0.0,0.0,0.0,0.0,0.0,0.0,0.0,0.0,0.0,0.0,0.0,0.0,0.0,0.0,0.0,0.0,0.0,0.0,0.0,0.0,0.0,0.0,0.0,0.0,0.0,0.0,0.0,0.0,0.0,0.0,0.0,0.0,0.0,0.0,0.0,0.0,0.0,0.0,0.0,0.0,0.0,4.1973,0.0,3.8193,3.6078,3.3278,2.9643,0.0,0.0,0.0,0.0,0.0,0.0,0.0,0.0,0.0,0.0,0.0,0.0,0.0,0.0,0.0,0.0,0.0,0.0,0.0,0.0,0.0,0.0,0.0,0.0,0.0,0.0,0.0,0.0,0.0,0.0,0.0,0.0,0.0,0.0,0.0,0.0,0.0,0.0,0.0,0.0,0.0,0.0,0.0,0.0,0.0,0.0,0.0,0.0,0.0,0.0,0.0,0.0,0.0,0.0,0.0,0.0,0.0,0.0,0.0,0.0,0.0,0.0,0.0,0.0,0.0,0.0,0.0,0.0,0.0,0.0,0.0,0.0,0.0,0.0,0.0,0.0,0.0,0.0,0.0,0.0,0.0,0.0,0.0,0.0,0.0,0.0,0.0,0.0,0.0,0.0,0.0,0.0,0.0,0.0,0.0,0.0,0.0,0.0,0.0,0.0,0.0,0.0,0.0,0.0,0.0,0.0,0.0,0.0,0.0,0.0,0.0,3.8573,3.5332,3.2013,0.0,0.0,0.0,0.0,0.0,0.0,0.0,0.0,0.0,0.0,0.0,0.0,0.0,0.0,0.0,0.0,0.0,0.0,0.0,0.0,0.0,0.0,0.0,0.0,0.0,0.0,0.0,0.0,0.0,0.0,0.0,0.0,0.0,0.0,0.0,0.0,0.0,0.0,0.0,0.0,0.0,0.0,0.0,0.0,0.0,0.0,0.0,0.0,0.0,0.0,0.0,0.0,0.0,0.0,0.0,0.0,0.0,0.0,0.0,0.0,0.0,0.0,0.0,0.0,0.0,0.0,0.0,0.0,0.0,0.0,0.0,0.0,0.0,0.0,0.0,0.0,0.0,0.0,0.0,0.0,0.0,0.0,0.0,0.0,0.0,0.0,0.0,0.0,0.0,0.0,0.0,0.0,0.0,0.0,0.0,0.0,0.0,0.0,0.0,0.0,0.0,0.0,0.0,0.0,0.0,0.0,0.0,0.0,0.0,0.0,0.0,4.0772,3.8785,3.6799,0.0,2.7146,0.0,0.0,0.0,0.0,0.0,0.0,0.0,0.0,0.0,0.0,0.0,0.0,0.0,0.0,0.0,0.0,0.0,0.0,0.0,0.0,0.0,0.0,0.0,0.0,0.0,0.0,0.0,0.0,0.0,0.0,0.0,0.0,0.0,0.0,0.0,0.0,0.0,0.0,0.0,0.0,0.0,0.0,0.0,0.0,0.0,0.0,0.0,0.0,0.0,0.0,0.0,0.0,0.0,0.0,0.0,0.0,0.0,0.0,0.0,0.0,0.0,0.0,0.0,0.0,0.0,0.0,0.0,0.0,0.0,0.0,0.0,0.0,0.0,0.0,0.0,0.0,0.0,0.0,0.0,0.0,0.0,0.0,0.0,0.0,0.0,0.0,0.0,0.0,0.0,0.0,0.0,0.0,0.0,0.0,0.0,0.0,0.0,0.0,0.0,0.0,0.0,0.0,0.0,0.0,0.0,0.0,0.0,0.0,0.0,0.0,0.0,0.0,3.4638,3.2608,3.211,0.0,0.0,0.0,0.0,0.0,0.0,0.0,0.0,0.0,0.0,0.0,0.0,0.0,0.0,0.0,0.0,0.0,0.0,0.0,0.0,0.0,0.0,0.0,0.0,0.0,0.0,0.0,0.0,0.0,0.0,0.0,0.0,0.0,0.0,0.0,0.0,0.0,0.0,0.0,0.0,0.0,0.0,0.0,0.0,0.0,0.0,0.0,0.0,0.0,0.0,0.0,0.0,0.0,0.0,0.0,0.0,0.0,0.0,0.0,0.0,0.0,0.0,0.0,0.0,0.0,0.0,0.0,0.0,0.0,0.0,0.0,0.0,0.0,0.0,0.0,0.0,0.0,0.0,0.0,0.0,0.0,0.0,0.0,0.0,0.0,0.0,0.0,0.0,0.0,0.0,0.0,0.0,0.0,0.0,0.0,0.0,0.0,0.0,0.0,0.0,0.0,0.0,0.0,0.0,0.0,0.0,0.0,0.0,0.0,0.0,3.6651,3.8382,3.5235,3.3689,3.4007,0.0,0.0,0.0,0.0,0.0,0.0,0.0,0.0,0.0,0.0,0.0,0.0,0.0,0.0,0.0,0.0,0.0,0.0,0.0,0.0,0.0,0.0,0.0,0.0,0.0,0.0,0.0,0.0,0.0,0.0,0.0,0.0,0.0,0.0,0.0,0.0,0.0,0.0,0.0,0.0,0.0,0.0,0.0,0.0,0.0,0.0,0.0,0.0,0.0,0.0,0.0,0.0,0.0,0.0,0.0,0.0,0.0,0.0,0.0,0.0,0.0,0.0,0.0,0.0,0.0,0.0,0.0,0.0,0.0,0.0,0.0,0.0,0.0,0.0,0.0,0.0,0.0,0.0,0.0,0.0,0.0,0.0,0.0,0.0,0.0,0.0,0.0,0.0,0.0,0.0,0.0,0.0,0.0,0.0,0.0,0.0,0.0,0.0,0.0,0.0,0.0,0.0,0.0,0.0,0.0,0.0,0.0,0.0,0.0,0.0,0.0,0.0,0.0,0.0,3.4026,0.0,0.0,0.0,0.0,0.0,0.0,0.0,0.0,0.0,0.0,0.0,0.0,0.0,0.0,0.0,0.0,0.0,0.0,0.0,0.0,0.0,0.0,0.0,0.0,0.0,0.0,0.0,0.0,0.0,0.0,0.0,0.0,0.0,0.0,0.0,0.0,0.0,0.0,0.0,0.0,0.0,0.0,0.0,0.0,0.0,0.0,0.0,0.0,0.0,0.0,0.0,0.0,0.0,0.0,0.0,0.0,0.0,0.0,0.0,0.0,0.0,0.0,0.0,0.0,0.0,0.0,0.0,0.0,0.0,0.0,0.0,0.0,0.0,0.0,0.0,0.0,0.0,0.0,0.0,0.0,0.0,0.0,0.0,0.0,0.0,0.0,0.0,0.0,0.0,0.0,0.0,0.0,0.0,0.0,0.0,0.0,0.0,0.0,0.0,0.0,0.0,0.0,0.0,0.0,0.0,0.0,0.0,0.0,0.0,0.0,0.0,0.0,0.0,0.0,0.0,0.0,0.0,0.0,0.0,0.0,0.0,0.0,0.0,0.0,0.0,0.0,0.0,0.0,0.0,0.0,0.0,0.0,0.0,0.0,0.0,0.0,0.0,0.0,0.0,0.0,0.0,0.0,0.0,0.0,0.0,0.0,0.0,0.0,0.0,0.0,0.0,0.0,0.0,0.0,0.0,0.0,0.0,0.0,0.0,0.0,0.0,0.0,0.0,0.0,0.0,0.0,0.0,0.0,0.0,0.0,0.0,0.0,0.0,0.0,0.0,0.0,0.0,0.0,0.0,0.0,0.0,0.0,0.0,0.0,0.0,0.0,0.0,0.0,0.0,0.0,0.0,0.0,0.0,0.0,0.0,0.0,0.0,0.0,0.0,0.0,0.0,0.0,0.0,0.0,0.0,0.0,0.0,0.0,0.0,0.0,0.0,0.0,0.0,0.0,0.0,0.0,0.0,0.0,0.0,0.0,0.0,0.0,0.0,0.0,0.0,0.0,0.0,0.0,0.0,0.0,0.0,0.0,0.0,0.0,0.0,0.0,0.0,0.0,0.0,0.0,0.0,0.0,0.0,0.0,0.0,0.0,0.0,0.0,0.0,0.0,0.0,0.0,0.0,0.0,0.0,0.0,0.0,0.0,0.0,0.0,0.0,0.0,0.0,0.0,0.0,0.0,0.0,0.0,0.0,0.0,0.0,0.0,0.0,0.0,0.0,0.0,0.0,0.0,0.0,0.0,0.0,0.0,0.0,0.0,0.0,0.0,0.0,0.0,0.0,0.0,0.0,0.0,0.0,0.0,0.0,0.0,0.0,0.0,0.0,0.0,0.0,0.0,0.0,0.0,0.0,0.0,0.0,0.0,0.0,0.0,0.0,0.0,0.0,0.0,0.0,0.0,0.0,0.0,0.0,0.0,0.0,0.0,0.0,0.0,0.0,0.0,0.0,0.0,0.0,0.0,0.0,0.0,0.0,0.0,0.0,0.0,0.0,0.0,0.0,0.0,0.0,0.0,0.0,0.0,0.0,0.0,0.0,0.0,0.0,0.0,0.0,0.0,0.0,0.0,0.0,0.0,0.0,0.0,0.0,0.0,0.0,0.0,0.0,0.0,0.0,0.0,0.0,0.0,0.0,0.0,0.0,0.0,0.0,0.0,0.0,0.0,0.0,0.0,0.0,0.0,0.0,0.0,0.0,0.0,0.0,0.0,0.0,0.0,0.0,0.0,0.0,0.0,0.0,0.0,0.0,0.0,0.0,0.0,0.0,0.0,0.0,0.0,0.0,0.0,0.0,0.0,0.0,0.0,0.0,0.0,0.0,0.0,0.0,0.0,0.0,0.0,0.0,0.0,0.0,0.0,0.0,0.0,0.0,0.0,0.0,0.0,0.0,0.0,0.0,0.0,0.0,0.0,0.0,0.0,0.0,0.0,0.0,0.0,0.0,0.0,0.0,0.0,0.0,0.0,0.0,0.0,0.0,0.0,0.0,0.0,0.0,0.0,0.0,0.0,0.0,0.0,0.0,0.0,0.0,0.0,0.0,0.0,0.0,0.0,0.0,0.0,0.0,0.0,0.0,0.0,0.0,0.0,0.0,0.0,0.0,0.0,0.0,0.0,0.0,0.0,0.0,0.0,0.0,0.0,0.0,0.0,0.0,0.0,0.0,0.0,0.0,0.0,0.0,0.0,0.0,0.0,0.0,0.0,0.0,0.0,0.0,0.0,0.0,0.0,0.0,0.0,0.0,0.0,0.0,0.0,0.0,0.0,0.0,0.0,0.0,0.0,0.0,0.0,0.0,0.0,0.0,0.0,0.0,0.0,0.0,0.0,0.0,0.0,0.0,0.0,0.0,0.0,0.0,0.0,0.0,0.0,0.0,0.0,0.0,0.0,0.0,0.0,0.0,0.0,0.0,0.0,0.0,0.0,0.0,0.0,0.0,0.0,0.0,0.0,0.0,0.0,0.0,0.0,0.0,0.0,0.0,0.0,0.0,0.0,0.0,0.0,0.0,0.0,0.0,0.0,0.0,0.0,0.0,0.0,0.0,0.0,0.0,0.0,0.0,0.0,0.0,0.0,0.0,0.0,0.0,0.0,0.0,0.0,0.0,0.0,0.0,0.0,0.0,0.0,0.0,0.0,0.0,0.0,0.0,0.0,0.0,0.0,0.0,0.0,0.0,0.0,0.0,0.0,0.0,0.0,0.0,0.0,0.0,0.0,0.0,0.0,0.0,0.0,0.0,0.0,0.0,0.0,0.0,0.0,0.0,0.0,0.0,0.0,0.0,0.0,0.0,0.0,0.0,0.0,0.0,0.0,0.0,0.0,0.0,0.0,0.0,0.0,0.0,0.0,0.0,0.0,0.0,0.0,0.0,0.0,0.0,0.0,0.0,0.0,0.0,0.0,0.0,0.0,0.0,0.0,0.0,0.0,0.0,0.0,0.0,0.0,0.0,0.0,0.0,0.0,0.0,0.0,0.0,0.0,0.0,0.0,0.0,0.0,0.0,0.0,0.0,0.0,0.0,0.0,0.0,0.0,0.0,0.0,0.0,0.0,0.0,0.0,0.0,0.0,0.0,0.0,0.0,0.0,0.0,0.0,0.0,0.0,0.0,0.0,0.0,0.0,0.0,0.0,0.0,0.0,0.0,0.0,0.0,0.0,0.0,0.0,0.0,0.0,0.0,0.0,0.0,0.0,0.0,0.0,0.0,0.0,0.0,0.0,0.0,0.0,0.0,0.0,0.0,0.0,0.0,0.0,0.0,0.0,0.0,0.0,0.0,0.0,0.0,0.0,0.0,0.0,0.0,0.0,0.0,0.0,0.0,0.0,0.0,0.0,0.0,0.0,0.0,0.0,0.0,0.0,0.0,0.0,0.0,0.0,0.0,0.0,0.0,0.0,0.0,0.0,0.0,0.0,0.0,0.0,0.0,0.0,0.0,0.0,0.0,0.0,0.0,0.0,0.0,0.0,0.0,0.0,0.0,0.0,0.0,0.0,0.0,0.0,0.0,0.0,0.0,0.0,0.0,0.0,0.0,0.0,0.0,0.0,0.0,0.0,0.0,0.0,0.0,0.0,0.0,0.0,0.0,0.0,0.0,0.0,0.0,0.0,0.0,0.0,0.0,0.0,0.0,0.0,0.0,0.0,0.0,0.0,0.0,0.0,0.0,0.0,0.0,0.0,0.0,0.0,0.0,0.0,0.0,0.0,0.0,0.0,0.0,0.0,0.0,0.0,0.0,0.0,0.0,0.0,0.0,0.0,0.0,0.0,0.0,0.0,0.0,0.0,0.0,0.0,0.0,0.0,0.0,0.0,0.0,0.0,0.0,0.0,0.0,0.0,0.0,0.0,0.0,0.0,0.0,0.0,0.0,0.0,0.0,0.0,0.0,0.0,0.0,0.0,0.0,0.0,0.0,0.0,0.0,0.0,0.0,0.0,0.0,0.0,0.0,0.0,0.0,0.0,0.0,0.0,0.0,0.0,0.0,0.0,0.0,0.0,0.0,0.0,0.0,0.0,0.0,0.0,0.0,0.0,0.0,0.0,0.0,0.0,0.0,0.0,0.0,0.0,0.0,0.0,0.0,0.0,0.0,0.0,0.0,0.0,0.0,0.0,0.0,0.0,0.0,0.0,0.0,0.0,0.0,0.0,0.0,0.0,0.0,0.0,0.0,0.0,0.0,0.0,0.0,0.0,0.0,0.0,0.0,0.0,0.0,0.0,0.0,0.0,0.0,0.0,0.0,0.0,0.0,0.0,0.0,0.0,0.0,0.0,0.0,0.0,0.0,0.0,0.0,0.0,0.0,0.0,0.0,0.0,0.0,0.0,0.0,0.0,0.0,0.0,0.0,0.0,0.0,0.0,0.0,0.0]}]]]